[[{"header":{"parameterUnit":"m.s-1","parameterCategory":1,"la1":30.6,"la2":29.2853,"lo1":-89.7004,"lo2":-87.6739,"dy":0.0162,"dx":0.0183,"nx":112,"ny":82,"refTime":"2023-08-07T12:00:00:Z","depth":0,"parameterNumber":2,"parameterNumberName":"U-component_of_WINDS"},"data":[0.0,0.0,0.0,0.0,0.0,0.0,0.0,0.0,0.0,0.0,0.0,0.0,0.0,0.0,0.0,0.0,0.0,0.0,0.0,0.0,0.0,0.0,0.0,0.0,0.0,0.0,0.0,0.0,0.0,0.0,0.0,0.0,0.0,0.0,0.0,0.0,0.0,0.0,0.0,0.0,0.0,0.0,0.0,0.0,0.0,0.0,0.0,0.0,0.0,0.0,0.0,0.0,0.0,0.0,0.0,0.0,0.0,0.0,0.0,0.0,0.0,0.0,0.0,0.0,0.0,0.0,0.0,0.0,0.0,0.0,0.0,0.0,0.0,0.0,0.0,0.0,0.0,0.0,0.0,0.0,0.0,0.0,0.0,0.0,0.0,0.0,0.0,0.0,0.0,0.0,-0.8496,-0.8454,-0.9366,-0.9662,-0.8715,-0.8763,-0.829,-0.7097,0.0,0.0,0.0,0.0,0.0,0.0,0.0,0.0,0.0,0.0,0.0,0.0,0.0,0.0,0.0,0.0,0.0,0.0,0.0,0.0,0.0,0.0,0.0,0.0,0.0,0.0,0.0,0.0,0.0,0.0,0.0,0.0,0.0,0.0,0.0,0.0,0.0,0.0,0.0,0.0,0.0,0.0,0.0,0.0,0.0,0.0,0.0,0.0,0.0,0.0,0.0,0.0,0.0,0.0,0.0,0.0,0.0,0.0,0.0,0.0,0.0,0.0,0.0,0.0,0.0,0.0,0.0,0.0,0.0,0.0,0.0,0.0,0.0,0.0,0.0,0.0,0.0,0.0,0.0,0.0,0.0,0.0,0.0,0.0,0.0,0.0,0.0,0.0,0.0,0.0,0.0,0.0,0.0,0.0,0.0,0.0,0.0,0.0,0.0,0.0,0.0,0.0,0.0,0.0,-0.7059,-0.7168,-0.7487,-0.7573,-0.7401,-0.7422,-0.7385,-0.7299,0.0,0.0,0.0,0.0,0.0,0.0,0.0,0.0,0.0,0.0,0.0,0.0,0.0,0.0,0.0,0.0,0.0,0.0,0.0,0.0,0.0,0.0,0.0,0.0,0.0,0.0,0.0,0.0,0.0,0.0,0.0,0.0,0.0,0.0,0.0,0.0,0.0,0.0,0.0,0.0,0.0,0.0,0.0,0.0,0.0,0.0,0.0,0.0,0.0,0.0,0.0,0.0,0.0,0.0,0.0,0.0,0.0,0.0,0.0,0.0,0.0,0.0,0.0,0.0,0.0,0.0,0.0,0.0,0.0,0.0,0.0,0.0,0.0,0.0,0.0,0.0,0.0,0.0,0.0,0.0,0.0,0.0,0.0,0.0,0.0,0.0,0.0,0.0,0.0,0.0,0.0,0.0,0.0,0.0,0.0,0.0,0.0,0.0,0.0,0.0,0.0,0.0,0.0,-0.6871,-0.7017,-0.768,-0.7752,-0.7793,-0.7793,-0.7793,-0.7607,-0.7234,-0.7248,0.0,0.0,0.0,0.0,0.0,0.0,0.0,0.0,0.0,0.0,0.0,0.0,0.0,0.0,0.0,0.0,0.0,0.0,0.0,0.0,0.0,0.0,0.0,0.0,0.0,0.0,0.0,0.0,0.0,0.0,0.0,0.0,0.0,0.0,0.0,0.0,0.0,0.0,0.0,0.0,0.0,0.0,0.0,0.0,0.0,0.0,0.0,0.0,0.0,0.0,0.0,0.0,0.0,0.0,0.0,0.0,0.0,0.0,0.0,0.0,0.0,0.0,0.0,0.0,0.0,0.0,0.0,0.0,0.0,0.0,0.0,0.0,0.0,0.0,0.0,0.0,0.0,0.0,0.0,0.0,0.0,0.0,0.0,0.0,0.0,0.0,0.0,0.0,0.0,0.0,0.0,0.0,0.0,0.0,0.0,0.0,0.0,0.0,0.0,0.0,0.0,0.0,-0.7429,-0.7714,-0.8636,-0.8835,-0.8674,-0.8379,-0.8338,-0.792,-0.7126,-0.7075,0.0,0.0,0.0,0.0,0.0,0.0,0.0,0.0,0.0,0.0,0.0,0.0,0.0,0.0,0.0,0.0,0.0,0.0,0.0,0.0,0.0,0.0,0.0,0.0,0.0,0.0,0.0,0.0,0.0,0.0,0.0,0.0,0.0,0.0,0.0,0.0,0.0,0.0,0.0,0.0,0.0,0.0,0.0,0.0,0.0,0.0,0.0,0.0,0.0,0.0,0.0,0.0,0.0,0.0,0.0,0.0,0.0,0.0,0.0,0.0,0.0,0.0,0.0,0.0,0.0,0.0,0.0,0.0,0.0,0.0,0.0,0.0,0.0,0.0,0.0,0.0,0.0,0.0,0.0,0.0,0.0,0.0,0.0,0.0,0.0,0.0,0.0,0.0,0.0,0.0,0.0,0.0,0.0,0.0,0.0,0.0,0.0,0.0,0.0,0.0,0.0,0.0,-0.8572,-0.8991,-0.9683,-0.999,-0.9535,-0.8279,-0.8108,-0.7741,-0.7112,-0.6885,0.0,0.0,0.0,0.0,0.0,0.0,0.0,0.0,0.0,0.0,0.0,0.0,0.0,0.0,0.0,0.0,0.0,0.0,0.0,0.0,0.0,0.0,0.0,0.0,0.0,0.0,0.0,0.0,0.0,0.0,0.0,0.0,0.0,0.0,0.0,0.0,0.0,0.0,0.0,0.0,0.0,0.0,0.0,0.0,0.0,0.0,0.0,0.0,0.0,0.0,0.0,0.0,0.0,0.0,0.0,0.0,0.0,0.0,0.0,0.0,0.0,0.0,0.0,0.0,0.0,0.0,0.0,0.0,0.0,0.0,0.0,0.0,0.0,0.0,0.0,0.0,0.0,0.0,0.0,0.0,0.0,0.0,0.0,0.0,0.0,0.0,0.0,0.0,0.0,0.0,0.0,0.0,0.0,0.0,0.0,0.0,0.0,0.0,0.0,0.0,0.0,0.0,-0.8636,-0.9418,0.0,-1.1222,-1.0683,-0.9394,-0.9223,-0.8518,-0.7076,0.0,0.0,0.0,0.0,0.0,0.0,0.0,0.0,0.0,0.0,0.0,0.0,0.0,0.0,0.0,0.0,0.0,0.0,0.0,0.0,0.0,0.0,0.0,0.0,0.0,0.0,0.0,0.0,0.0,0.0,0.0,0.0,0.0,0.0,0.0,0.0,0.0,0.0,0.0,0.0,0.0,0.0,0.0,0.0,0.0,0.0,0.0,0.0,0.0,0.0,0.0,0.0,0.0,0.0,0.0,0.0,0.0,0.0,0.0,0.0,0.0,0.0,0.0,0.0,0.0,0.0,0.0,0.0,0.0,0.0,0.0,0.0,0.0,0.0,0.0,0.0,0.0,0.0,0.0,0.0,0.0,0.0,0.0,0.0,0.0,0.0,0.0,0.0,0.0,0.0,0.0,0.0,0.0,0.0,0.0,0.0,0.0,0.0,0.0,0.0,0.0,0.0,-0.9365,-0.9745,-1.0552,0.0,-1.2508,-1.1793,-1.0141,-0.9852,-0.8923,-0.6994,0.0,0.0,0.0,0.0,0.0,0.0,0.0,0.0,0.0,0.0,0.0,0.0,0.0,0.0,0.0,0.0,0.0,0.0,0.0,0.0,0.0,0.0,0.0,0.0,0.0,0.0,0.0,0.0,0.0,0.0,0.0,0.0,0.0,0.0,0.0,0.0,0.0,0.0,0.0,0.0,0.0,0.0,0.0,0.0,0.0,0.0,0.0,0.0,0.0,0.0,0.0,0.0,0.0,0.0,0.0,0.0,0.0,0.0,0.0,0.0,0.0,0.0,0.0,0.0,0.0,0.0,0.0,0.0,0.0,0.0,0.0,0.0,0.0,0.0,0.0,0.0,0.0,0.0,0.0,0.0,0.0,0.0,0.0,0.0,0.0,0.0,0.0,0.0,0.0,0.0,0.0,0.0,0.0,0.0,0.0,0.0,0.0,0.0,0.0,0.0,0.0,0.0,-1.1928,-1.2265,-1.2778,-1.401,-1.3834,-1.2725,-1.0454,-0.9759,-0.8797,0.0,0.0,0.0,0.0,0.0,0.0,0.0,0.0,0.0,0.0,0.0,0.0,0.0,0.0,0.0,0.0,0.0,0.0,0.0,0.0,0.0,0.0,0.0,0.0,0.0,0.0,0.0,0.0,0.0,0.0,0.0,0.0,0.0,0.0,0.0,0.0,0.0,0.0,0.0,0.0,0.0,0.0,0.0,0.0,0.0,0.0,0.0,0.0,0.0,0.0,0.0,0.0,0.0,0.0,0.0,0.0,0.0,0.0,0.0,0.0,0.0,0.0,0.0,0.0,0.0,0.0,0.0,0.0,0.0,0.0,0.0,0.0,0.0,0.0,0.0,0.0,0.0,0.0,0.0,0.0,0.0,0.0,0.0,0.0,0.0,0.0,0.0,0.0,0.0,0.0,0.0,0.0,0.0,0.0,0.0,0.0,0.0,0.0,0.0,0.0,0.0,0.0,0.0,-1.2289,-1.2703,-1.3432,-1.4615,-1.4436,-1.3566,-1.1991,-1.0708,-0.9504,-0.8256,0.0,0.0,0.0,0.0,0.0,0.0,0.0,0.0,0.0,0.0,0.0,0.0,0.0,0.0,0.0,0.0,0.0,0.0,0.0,0.0,0.0,0.0,0.0,0.0,0.0,0.0,0.0,0.0,0.0,0.0,0.0,0.0,0.0,0.0,0.0,0.0,0.0,0.0,0.0,0.0,0.0,0.0,0.0,0.0,0.0,0.0,0.0,0.0,0.0,0.0,0.0,0.0,0.0,0.0,0.0,0.0,0.0,0.0,0.0,0.0,0.0,0.0,0.0,0.0,0.0,0.0,0.0,0.0,0.0,0.0,0.0,0.0,0.0,0.0,0.0,0.0,0.0,0.0,0.0,0.0,0.0,0.0,0.0,0.0,0.0,0.0,0.0,0.0,0.0,0.0,0.0,0.0,0.0,0.0,0.0,0.0,0.0,0.0,0.0,0.0,0.0,0.0,-1.3255,-1.3679,-1.4269,-1.5033,-1.4763,-1.4002,-1.2769,-1.1183,-0.9769,-0.8651,0.0,0.0,0.0,0.0,0.0,0.0,0.0,0.0,0.0,0.0,0.0,0.0,0.0,0.0,0.0,0.0,0.0,0.0,0.0,0.0,0.0,0.0,0.0,0.0,0.0,0.0,0.0,0.0,0.0,0.0,0.0,0.0,0.0,0.0,0.0,0.0,0.0,0.0,0.0,0.0,0.0,0.0,0.0,0.0,0.0,0.0,0.0,0.0,0.0,0.0,0.0,0.0,0.0,0.0,0.0,0.0,0.0,0.0,0.0,0.0,0.0,0.0,0.0,0.0,0.0,0.0,0.0,0.0,0.0,0.0,0.0,0.0,0.0,0.0,0.0,0.0,0.0,0.0,0.0,0.0,0.0,0.0,0.0,0.0,0.0,0.0,0.0,0.0,0.0,0.0,0.0,0.0,0.0,0.0,0.0,0.0,0.0,0.0,0.0,0.0,0.0,0.0,-1.4522,-1.4754,-1.4955,-1.5219,-1.4635,-1.3749,-1.2751,-1.1036,-0.9586,-0.8535,0.0,0.0,0.0,0.0,0.0,0.0,0.0,0.0,0.0,0.0,0.0,0.0,0.0,0.0,0.0,0.0,0.0,0.0,0.0,0.0,0.0,0.0,0.0,0.0,0.0,0.0,0.0,0.0,0.0,0.0,0.0,0.0,0.0,0.0,0.0,0.0,0.0,0.0,0.0,0.0,0.0,0.0,0.0,0.0,0.0,0.0,0.0,0.0,0.0,0.0,0.0,0.0,0.0,0.0,0.0,0.0,0.0,0.0,0.0,0.0,-1.3675,0.0,0.0,0.0,0.0,0.0,0.0,0.0,0.0,0.0,0.0,0.0,0.0,0.0,0.0,0.0,0.0,0.0,0.0,0.0,0.0,0.0,0.0,0.0,0.0,0.0,0.0,0.0,0.0,0.0,0.0,0.0,0.0,0.0,0.0,0.0,0.0,0.0,0.0,0.0,0.0,0.0,-1.483,-1.4469,-1.4123,-1.4177,-1.287,-1.185,-1.1663,-0.999,-0.8945,-0.8845,-0.7498,0.0,0.0,0.0,0.0,0.0,0.0,0.0,0.0,0.0,0.0,0.0,0.0,0.0,0.0,0.0,0.0,0.0,0.0,0.0,0.0,0.0,0.0,0.0,0.0,0.0,0.0,0.0,0.0,0.0,0.0,0.0,0.0,0.0,0.0,0.0,0.0,0.0,0.0,0.0,0.0,0.0,0.0,0.0,0.0,0.0,0.0,0.0,0.0,0.0,0.0,0.0,0.0,0.0,0.0,0.0,0.0,0.0,0.0,0.0,0.0,-1.4847,0.0,0.0,0.0,0.0,0.0,0.0,0.0,0.0,0.0,0.0,0.0,0.0,0.0,0.0,0.0,0.0,0.0,0.0,0.0,0.0,0.0,0.0,0.0,0.0,0.0,0.0,0.0,0.0,0.0,0.0,0.0,0.0,0.0,0.0,0.0,0.0,0.0,0.0,0.0,0.0,-1.3244,-1.3057,-1.2874,-1.2898,-1.2015,-1.1394,-1.1288,-0.9804,-0.8832,-0.8841,-0.7569,0.0,0.0,0.0,0.0,0.0,0.0,0.0,0.0,0.0,0.0,0.0,0.0,0.0,0.0,0.0,0.0,0.0,0.0,0.0,0.0,0.0,0.0,0.0,0.0,0.0,0.0,0.0,0.0,0.0,0.0,0.0,0.0,0.0,0.0,0.0,0.0,0.0,0.0,0.0,0.0,0.0,0.0,0.0,0.0,0.0,0.0,0.0,0.0,0.0,0.0,0.0,0.0,0.0,-1.496,-1.5542,-1.5945,-1.5732,-1.5623,-1.5537,-1.5139,-1.4894,-1.4819,0.0,0.0,0.0,0.0,0.0,0.0,0.0,0.0,0.0,0.0,0.0,0.0,0.0,0.0,0.0,0.0,0.0,0.0,0.0,0.0,0.0,0.0,0.0,0.0,0.0,-1.1939,-1.1655,0.0,0.0,0.0,0.0,0.0,0.0,0.0,0.0,0.0,0.0,0.0,0.0,-1.1407,-1.1427,-1.1451,-1.1536,-1.1163,-1.0778,-1.0705,-0.9448,-0.8644,-0.8459,-0.749,-0.6966,0.0,0.0,0.0,0.0,0.0,0.0,0.0,0.0,0.0,0.0,0.0,0.0,0.0,0.0,0.0,0.0,0.0,0.0,0.0,0.0,0.0,0.0,0.0,0.0,0.0,0.0,0.0,0.0,0.0,0.0,0.0,0.0,-0.6885,-0.6902,0.0,0.0,0.0,0.0,0.0,0.0,0.0,0.0,0.0,0.0,0.0,0.0,0.0,-1.3385,-1.4069,-1.5271,-1.6045,-1.6339,-1.6458,-1.6497,-1.6508,-1.53,-1.47,-1.4682,-1.3624,0.0,-1.4163,-1.3102,0.0,0.0,0.0,0.0,0.0,0.0,0.0,0.0,0.0,0.0,0.0,0.0,0.0,0.0,0.0,0.0,0.0,0.0,0.0,0.0,0.0,0.0,-1.1849,-1.1758,-1.1656,-1.1636,0.0,-1.1579,-1.1298,-1.1424,-1.1169,0.0,0.0,0.0,0.0,0.0,0.0,0.0,-1.1338,-1.071,-1.0262,-1.0288,-0.9057,-0.8279,-0.8257,-0.8008,-0.7749,-0.759,-0.7276,-0.7112,-0.7112,-0.6993,0.0,0.0,0.0,0.0,0.0,0.0,0.0,0.0,0.0,0.0,0.0,0.0,0.0,0.0,0.0,0.0,0.0,0.0,0.0,0.0,0.0,0.0,0.0,0.0,0.0,0.0,0.0,0.0,0.0,-0.6956,-0.7048,-0.7048,-0.7048,-0.727,0.0,0.0,0.0,0.0,0.0,0.0,0.0,0.0,0.0,-1.3568,-1.4881,-1.579,-1.6263,-1.6777,-1.721,-1.7443,-1.646,-1.6023,-1.6156,-1.4573,-1.3875,-1.3759,-1.2418,-1.2126,-1.2501,-1.2481,-1.2465,-1.2244,0.0,0.0,0.0,0.0,-1.1063,-1.1212,-1.2123,-1.2534,0.0,0.0,0.0,0.0,0.0,0.0,0.0,0.0,0.0,0.0,0.0,0.0,0.0,-1.0936,-1.0489,-0.9923,-0.9737,-0.9593,-0.9882,0.0,-1.0548,-1.0111,-1.0084,0.0,0.0,0.0,0.0,-0.9325,-0.9448,-0.901,-0.8784,-0.8909,-0.8269,-0.7841,-0.7838,-0.7781,-0.765,-0.7512,-0.7434,-0.7322,-0.7241,-0.7255,-0.7166,0.0,0.0,0.0,0.0,0.0,0.0,0.0,0.0,0.0,0.0,0.0,0.0,0.0,0.0,0.0,0.0,0.0,0.0,0.0,0.0,0.0,0.0,0.0,0.0,0.0,0.0,0.0,0.0,-0.7173,-0.7282,-0.7207,-0.7566,-0.8099,0.0,0.0,0.0,0.0,0.0,0.0,-1.2543,-1.3945,-1.5016,-1.5766,-1.6814,-1.7582,-1.797,-1.7489,-1.7384,-1.7551,-1.5856,-1.5081,-1.5304,-1.3565,-1.2817,-1.2755,-1.124,-1.0663,-1.0761,-1.1518,-1.1659,-1.1353,-1.0288,-0.9941,-0.9944,-0.9937,-1.0076,-1.0397,-1.1611,-1.2117,-1.214,-1.2107,0.0,-1.1785,-1.0477,0.0,0.0,0.0,0.0,-0.9947,-0.9941,-0.9993,-1.0134,-1.0158,-0.9474,-0.874,-0.8535,-0.7809,-0.7855,0.0,-0.9749,-0.9091,-0.8958,0.0,0.0,0.0,0.0,-0.7784,-0.7851,-0.7882,-0.7875,-0.8024,-0.8038,-0.7939,-0.7836,-0.7836,-0.7828,-0.7668,-0.7655,-0.7629,-0.7455,-0.7461,-0.7356,-0.7204,0.0,0.0,0.0,0.0,0.0,0.0,0.0,0.0,0.0,0.0,0.0,0.0,0.0,0.0,0.0,0.0,0.0,0.0,0.0,0.0,0.0,0.0,0.0,0.0,0.0,0.0,0.0,0.0,0.0,-0.7394,-0.8866,0.0,0.0,0.0,0.0,-1.1796,-1.3265,-1.4322,-1.4861,-1.6272,-1.7231,-1.7822,-1.7915,-1.819,-1.8782,-1.7116,-1.6362,-1.6564,-1.4682,-1.3838,-1.3789,-1.2261,-1.1568,-1.1355,-1.0082,-0.9396,-0.9282,-0.9037,-0.9027,-0.9023,-0.8702,-0.8629,-0.8601,-0.8784,-0.8893,-0.8981,-0.9327,-0.9277,-0.915,-0.9496,-0.9649,-0.951,-0.9148,-0.8722,0.0,0.0,-0.857,-0.855,-0.8636,-0.8605,-0.8725,-0.9345,-0.9192,-0.8923,-0.892,-0.6406,-0.4966,0.0,-0.8093,-0.8072,-0.8052,0.0,-0.7787,-0.7966,-0.7977,-0.7885,-0.7614,-0.7828,-0.8028,-0.8038,-0.8038,-0.8038,-0.8038,-0.8038,-0.797,-0.7811,-0.7801,-0.7733,-0.7584,-0.7584,-0.7516,-0.7363,-0.736,0.0,0.0,0.0,0.0,0.0,0.0,0.0,0.0,0.0,0.0,0.0,0.0,0.0,0.0,0.0,0.0,0.0,0.0,0.0,0.0,0.0,0.0,0.0,0.0,0.0,0.0,0.0,0.0,-0.9236,-1.0658,0.0,-1.24,-1.3329,-1.4143,-1.4924,-1.5859,-1.6607,-1.6903,-1.7635,-1.774,-1.7085,-1.7218,-1.6984,-1.616,-1.5503,-1.5187,-1.5204,-1.3416,-1.2583,-1.2556,-1.0864,-0.9969,-0.992,-0.9367,-0.9154,-0.9144,-0.8902,-0.8928,-0.9054,-0.8826,-0.8759,-0.8788,-0.8786,-0.8947,-0.917,-0.9252,-0.9444,-0.9204,-0.7143,-0.6385,-0.6224,-0.6051,-0.5998,-0.5932,-0.5932,-0.5943,-0.5974,-0.5933,-0.5888,-0.5945,-0.6217,-0.6338,-0.6767,-0.8575,-0.8014,-0.6832,-0.5923,-0.5587,-0.5461,-0.5464,-0.5306,-0.5354,-0.5392,-0.5409,-0.5613,-0.6166,-0.6289,-0.6714,-0.7836,-0.8038,-0.8038,-0.8038,-0.8038,-0.8018,-0.7963,-0.796,-0.7828,-0.7629,-0.7674,-0.7591,-0.7434,-0.7248,-0.7258,0.0,0.0,0.0,0.0,0.0,0.0,0.0,0.0,0.0,0.0,0.0,0.0,0.0,0.0,0.0,0.0,0.0,0.0,0.0,0.0,0.0,0.0,0.0,0.0,0.0,0.0,-1.0349,-1.0384,-1.2274,-1.3841,-1.4505,-1.5472,-1.6317,-1.7058,-1.7702,-1.8123,-1.833,-1.8157,-1.7584,-1.6703,-1.6311,-1.5671,-1.4553,-1.4099,-1.3837,-1.3761,-1.2092,-1.121,-1.119,-1.0015,-0.9425,-0.9292,-0.9198,-0.9164,-0.9281,-0.9039,-0.9056,-0.9168,-0.894,-0.894,-0.894,-0.894,-0.8387,-0.7747,-0.912,-0.9622,-0.9114,-0.4635,-0.3163,-0.2922,-0.2933,-0.3023,-0.2981,-0.2981,-0.2999,-0.3017,-0.3017,-0.3012,-0.2997,-0.2956,-0.3083,-0.3775,-0.5554,-0.7435,-0.778,-0.3706,-0.2752,-0.2691,-0.2643,-0.2599,-0.2667,-0.265,-0.2628,-0.3522,-0.5957,-0.6232,-0.6714,-0.7836,-0.8038,-0.8038,-0.8038,-0.8038,-0.8021,-0.7977,-0.7977,-0.7938,-0.7729,-0.7243,-0.7095,-0.742,-0.7268,-0.7285,-0.737,0.0,0.0,0.0,0.0,0.0,0.0,0.0,0.0,0.0,0.0,0.0,0.0,0.0,0.0,0.0,0.0,0.0,0.0,0.0,0.0,0.0,0.0,0.0,-0.7983,-0.9625,-1.0806,-1.083,-1.3618,-1.5453,-1.5523,-1.707,-1.807,-1.807,-1.8492,-1.8824,-1.8824,-1.7658,-1.685,-1.6844,-1.5311,-1.4515,-1.4461,-1.2928,-1.2109,-1.2092,-1.0572,-0.9822,-0.9822,-0.9822,-0.9717,-0.9631,-0.9589,-0.9521,-0.9396,-0.9282,-0.9172,-0.9172,-0.883,-0.8716,-0.8823,-0.8826,-0.7003,-0.4828,-0.8332,-0.9471,-0.8418,-0.2027,-0.0,-0.0,-0.0,-0.0,-0.0,-0.0,-0.0,-0.0,-0.0,-0.0,-0.0,-0.0,-0.0,-0.0,-0.0,-0.4501,-0.6881,-0.1121,-0.0,-0.0,-0.0,-0.0,-0.0,-0.0,-0.0,0.0,-0.7232,-0.7989,-0.8041,-0.8052,-0.8045,-0.8041,-0.8045,-0.8038,-0.798,-0.7955,-0.7942,-0.7873,-0.7624,-0.6283,-0.6187,-0.7594,-0.7451,-0.738,-0.738,0.0,0.0,0.0,0.0,0.0,0.0,0.0,0.0,0.0,0.0,0.0,0.0,0.0,0.0,0.0,0.0,0.0,0.0,0.0,0.0,0.0,0.0,-1.0375,-1.0294,-1.1818,-1.3355,-1.4543,-1.6411,-1.765,-1.7681,-1.8236,-1.8684,-1.8684,-1.797,-1.7573,-1.7573,-1.6105,-1.4718,-1.3522,-1.3048,-1.2341,-1.116,-1.066,-1.0422,-1.0451,-1.0072,-0.9822,-0.9822,-0.9697,-0.9664,-0.9473,-0.9398,-0.9253,-0.9054,-0.9051,-0.8974,-0.8798,-0.6515,-0.5699,-0.6001,-0.8143,-0.5592,-0.1359,-0.2347,-0.2718,-0.2344,-0.0611,-0.0,-0.0,-0.0,-0.0,-0.0,-0.0,-0.0,-0.0,-0.0,-0.0,-0.0,-0.0,-0.0,-0.0,-0.0,-0.1255,-0.1908,-0.0336,-0.0,-0.0,-0.0,-0.0,-0.0,-0.0,-0.0,0.0,-0.4694,-0.6756,-0.8022,-0.823,-0.8066,-0.8085,-0.8197,-0.8001,-0.7858,-0.7824,-0.7726,-0.7165,-0.6072,-0.6685,-0.7221,-0.7461,-0.7509,-0.7536,0.0,0.0,0.0,0.0,0.0,0.0,0.0,0.0,0.0,0.0,0.0,0.0,0.0,0.0,0.0,0.0,0.0,0.0,0.0,0.0,0.0,0.0,-0.9441,-1.0695,-1.1535,-1.2814,-1.4153,-1.541,-1.6243,-1.6756,-1.687,-1.702,-1.711,-1.711,-1.6417,-1.602,-1.602,-1.448,-1.3172,-1.2213,-1.1495,-1.0778,-0.9822,-0.9822,-0.9822,-0.9822,-0.9822,-0.9822,-0.9822,-0.9697,-0.9694,0.0,-0.8048,-0.738,-0.729,-0.846,-0.8903,0.0,0.0,0.0,0.0,0.0,-0.2979,-0.0,-0.0,-0.0,-0.0,-0.0,-0.0,-0.0,-0.0,-0.0,-0.0,-0.0,-0.0,-0.0,-0.0,-0.0,-0.0,-0.0,-0.0,-0.0,-0.0,-0.0,-0.0,-0.0,0.0,0.0,-0.0,-0.0,-0.0,-0.0,-0.0,-0.0953,-0.3664,-0.6353,-0.8016,-0.8173,-0.8039,-0.8075,-0.8167,-0.795,0.0,0.0,0.0,-0.714,-0.6287,-0.7192,0.0,0.0,0.0,-0.7631,-0.7689,0.0,0.0,0.0,-0.7824,-0.7828,0.0,0.0,0.0,0.0,0.0,0.0,0.0,0.0,0.0,0.0,0.0,0.0,0.0,0.0,0.0,0.0,-0.9233,-1.0262,-1.182,-1.2975,-1.3849,-1.4397,-1.4296,-1.4372,-1.4584,-1.4594,-1.4589,-1.4589,-1.447,-1.4346,-1.4346,0.0,0.0,0.0,0.0,-0.9822,-0.9822,-0.9822,-0.9822,-0.9822,-0.9829,-0.9829,-0.9822,-0.9451,-0.9457,-0.9589,-0.6698,-0.5022,-0.4541,-0.7647,-0.8485,-0.7912,-0.7912,-0.4609,-0.0,-0.0,-0.0,-0.0,-0.0,0.0,0.0,-0.0,-0.0,-0.0,-0.0,-0.0,-0.0,-0.0,-0.0,-0.0,-0.0,-0.0,-0.0,-0.0,-0.0,-0.0,-0.0,-0.0,-0.0,-0.0,-0.0,-0.0,-0.0,-0.0,-0.0,-0.0,-0.0,-0.0909,-0.3237,-0.6163,-0.7979,-0.7975,0.0,0.0,-0.8065,-0.7909,-0.7664,-0.7452,-0.7426,-0.7451,-0.7451,-0.7563,-0.7624,-0.7624,-0.7624,-0.7685,-0.7811,-0.7828,-0.7906,-0.8038,-0.8038,-0.8038,0.0,0.0,0.0,0.0,0.0,0.0,0.0,0.0,0.0,0.0,0.0,0.0,0.0,0.0,0.0,-0.9015,-1.0478,-1.1593,-1.2132,-1.2367,-1.3067,-1.4415,-1.4538,-1.4553,-1.4599,-1.4543,-1.4621,-1.4621,-1.3423,-1.2706,-1.2706,-1.1106,0.0,-1.0301,-0.994,-0.9822,-0.9822,-0.9822,-0.9822,-0.9822,0.0,0.0,-0.9697,-0.6999,-0.7278,-0.9808,-0.9155,-0.5824,-0.1356,-0.6669,-0.6083,-0.1683,-0.1683,-0.1009,-0.0,-0.0,-0.0,-0.0,-0.0,-0.0,-0.0,-0.0,-0.0,-0.0,-0.0,-0.0,0.0,-0.0,-0.0,-0.0,-0.0,-0.0,-0.0,-0.0,-0.0,-0.0,-0.0,-0.0,-0.0,-0.0,-0.0,-0.0,-0.0,-0.0,-0.0,-0.0,-0.0,-0.0202,-0.0707,-0.4954,-0.7961,-0.7981,-0.7958,-0.8109,-0.8218,-0.797,-0.7801,-0.7677,-0.7746,-0.7733,-0.7733,-0.7756,-0.777,-0.777,-0.777,-0.7784,-0.7811,-0.7936,-0.8011,-0.8038,-0.8038,-0.8038,0.0,0.0,0.0,0.0,0.0,0.0,0.0,0.0,0.0,0.0,0.0,-0.3535,0.0,0.0,-0.8726,-0.9248,-1.0188,-1.097,-1.0933,-1.0944,-1.1655,-1.3177,-1.2693,-1.2213,-1.2213,-1.2183,-1.2162,-1.2162,-1.1443,-1.0962,-1.0962,-1.0283,-0.9822,-0.9822,-0.9822,-0.9822,-0.9822,-0.9822,-0.9836,-0.9741,-0.9794,-0.9801,-0.9774,-0.8041,-0.6434,-0.4938,-0.4932,-0.3071,-0.0224,-0.3256,-0.2693,-0.0,-0.0,-0.0,-0.0,-0.0,-0.0,-0.0,-0.0,-0.0,-0.0,-0.0,-0.0,-0.0,-0.0,-0.0,-0.0,-0.0,-0.0,-0.0,-0.0,-0.0,-0.0,-0.0,-0.0,-0.0,-0.0,-0.0,-0.0,-0.0,-0.0,-0.0,-0.0,-0.0,-0.0,-0.0,-0.0,-0.0,-0.0,-0.3533,-0.5989,-0.5948,-0.7214,-0.7999,-0.8167,-0.795,-0.778,-0.7709,-0.7773,-0.778,-0.7709,-0.7773,-0.7811,-0.7811,-0.7811,-0.7848,-0.7926,-0.8001,-0.8038,-0.8038,-0.8038,-0.8038,0.0,0.0,0.0,0.0,0.0,0.0,0.0,0.0,-0.0,-0.0,-0.0,-0.1421,-0.6317,-0.7472,-0.786,-0.845,-0.8702,-0.8906,-0.8811,-0.8814,-0.9293,-1.0605,-1.0211,-0.9832,-0.9832,-0.9825,-0.9822,-0.9822,-0.9822,-0.9822,-0.9822,-0.9822,-0.9822,-0.9822,-0.9822,-0.9822,-0.9822,-0.9214,-0.887,-0.8912,-0.9455,-0.9851,-0.9728,-0.8459,-0.506,-0.0,-0.0,-0.0,-0.0,-0.0,-0.0,-0.0,-0.0,-0.0,-0.0,-0.0,-0.0,-0.0,-0.0,-0.0,-0.0,-0.0,-0.0,-0.0,-0.0,-0.0,-0.0,-0.0,-0.0,-0.0,-0.0,-0.0,-0.0,-0.0,-0.0,-0.0,-0.0,-0.0,-0.0,-0.0,-0.0,-0.0,-0.0,-0.0,-0.0,-0.0,-0.0,-0.0,-0.0,-0.1917,-0.3226,-0.3224,-0.605,-0.7979,-0.7972,-0.794,-0.7807,-0.7692,-0.779,-0.7804,-0.7689,-0.7794,-0.7855,-0.7855,-0.7855,-0.7916,-0.8038,-0.8038,-0.8038,-0.8038,-0.8038,-0.8038,0.8898,0.7938,0.7723,0.8226,0.634,0.4309,0.0,0.0,-0.0,-0.0,-0.0,-0.0232,-0.0817,-0.3192,-0.5049,-0.5382,-0.5406,-0.5436,-0.5504,-0.5388,-0.5539,-0.5734,-0.8127,-0.9744,-0.9744,-0.9839,-0.9822,-0.9822,-0.9822,-0.9822,-0.9822,-0.9822,-0.9822,-0.9822,-0.9822,-0.9822,-0.9822,-0.6905,-0.5442,-0.5446,-0.8456,-0.9851,-0.9598,-0.371,-0.073,-0.0,-0.0,-0.0,-0.0,-0.0,-0.0,-0.0,-0.0,-0.0,-0.0,-0.0,-0.0,-0.0,-0.0,-0.0,-0.0,-0.0,-0.0,-0.0,-0.0,-0.0,-0.0,-0.0,-0.0,-0.0,-0.0,-0.0,-0.0,-0.0,-0.0,-0.0,-0.0,-0.0,-0.0,-0.0,-0.0,-0.0,-0.0,-0.0,-0.0,-0.0,-0.0,-0.0,-0.0,-0.0303,-0.0403,-0.0402,-0.4945,-0.8006,-0.7975,-0.7939,-0.8007,-0.7991,-0.8004,-0.8007,-0.7991,-0.8007,-0.8014,-0.8014,-0.8014,-0.8021,-0.8038,-0.8038,-0.8038,-0.8038,-0.8038,-0.8038,1.0829,1.0109,0.9427,0.0,0.8259,0.7555,0.7718,0.6707,0.4625,0.0822,-0.0,-0.0,-0.0,-0.0972,-0.1956,0.0,-0.211,-0.2001,-0.2013,-0.3655,-0.4936,-0.4854,-0.6108,-0.692,-0.6905,-0.6898,-0.6903,-0.6903,-0.6903,-0.6903,-0.6903,-0.6903,-0.6903,-0.6903,-0.6903,-0.7902,-0.9787,-0.8438,-0.5824,-0.21,-0.3461,-0.4083,-0.3958,-0.1235,-0.0,-0.0,-0.0,-0.0,-0.0,-0.0,-0.0,-0.0,-0.0,-0.0,-0.0,-0.0,-0.0,-0.0,-0.0,-0.0,-0.0,-0.0,-0.0,-0.0,-0.0,-0.0,-0.0,-0.0,-0.0,-0.0,-0.0,-0.0,-0.0,-0.0,-0.0,-0.0,-0.0,-0.0,-0.0,-0.0,-0.0,-0.0,-0.0,-0.0,-0.0,-0.0,-0.0,-0.0,-0.0,-0.0,-0.0,-0.0,-0.2013,-0.4634,-0.7769,-0.7965,-0.7952,-0.8038,-0.8038,-0.8038,-0.8038,-0.8038,-0.8038,-0.8038,-0.8038,-0.8038,-0.8038,-0.8038,-0.8038,-0.8038,-0.8038,-0.8038,1.2537,0.0,0.0,0.9553,0.9573,0.9934,0.9713,0.975,0.8461,0.3739,0.122,-0.0,-0.0,-0.0,-0.0,-0.0,-0.0,-0.0,-0.0,-0.2022,-0.3554,-0.359,-0.3609,-0.3597,-0.3535,-0.3489,-0.3586,-0.3586,-0.3586,-0.3586,-0.3586,-0.3586,-0.3586,-0.3586,-0.3586,-0.4703,-0.7074,-0.7076,-0.4703,-0.0,-0.0,-0.0,-0.0,-0.0,-0.0,-0.0,-0.0,-0.0,-0.0,-0.0,-0.0,-0.0,-0.0,-0.0,-0.0,-0.0,-0.0,-0.0,-0.0,-0.0,-0.0,-0.0,-0.0,-0.0,-0.0,-0.0,-0.0,-0.0,-0.0,-0.0,-0.0,-0.0,-0.0,-0.0,-0.0,-0.0,-0.0,-0.0,-0.0,-0.0,-0.0,-0.0555,-0.2196,-0.241,-0.2384,-0.2207,-0.1543,-0.0812,-0.0101,-0.0,-0.0,-0.0,-0.0,-0.1909,-0.6545,-0.7563,-0.7962,-0.8041,-0.8038,-0.8038,-0.8038,-0.8038,-0.8038,-0.8038,-0.8038,-0.8038,-0.8038,-0.8038,-0.8038,-0.8038,-0.8038,-0.8038,0.0,0.0,1.1732,1.0993,1.0966,1.0773,0.9652,0.9634,0.969,0.9493,0.443,-0.0,-0.0,-0.0,-0.0,-0.0,-0.0,-0.0,-0.0,-0.0126,-0.0127,-0.013,-0.013,-0.013,0.0,-0.0128,-0.0123,-0.0123,-0.0123,-0.0123,-0.0123,-0.0123,-0.0123,-0.0123,-0.0123,-0.0247,-0.0247,-0.0247,-0.0247,-0.0,-0.0,-0.0,-0.0,-0.0,-0.0,-0.0,-0.0,-0.0,-0.0,-0.0,-0.0,-0.0,-0.0,-0.0,-0.0,-0.0,-0.0,-0.0,-0.0,-0.0,-0.0,-0.0,-0.0,-0.0,-0.0,-0.0,-0.0,-0.0,-0.0,-0.0,-0.0,-0.0,-0.0,-0.0,-0.0,-0.0,-0.0,-0.0,-0.0,-0.0,-0.0,-0.1863,-0.7615,-0.8606,-0.8429,-0.784,-0.5552,-0.2975,-0.0304,-0.0,-0.0,-0.0,-0.0,-0.1105,-0.3915,-0.6545,-0.7962,-0.8041,-0.8038,-0.8038,-0.8038,-0.8038,-0.8038,-0.8038,-0.8038,-0.8038,-0.8038,-0.8038,-0.8038,-0.8038,-0.8038,-0.8038,1.4769,0.0,1.2084,1.2078,1.0862,0.959,0.9555,0.9591,0.9693,0.9747,0.8032,0.6231,0.551,0.5994,0.5751,0.3581,0.3305,0.325,0.3266,0.3118,0.224,0.0252,-0.0,0.0,0.0,0.0,0.0,-0.0,-0.0,-0.0,-0.0,-0.0,-0.0,-0.0,-0.0,-0.0,-0.0,-0.0,-0.0,-0.0,-0.0,-0.0,-0.0,-0.0,-0.0,-0.0,-0.0,-0.0,-0.0,-0.0,-0.0,-0.0,-0.0,-0.0,-0.0,-0.0,-0.0,-0.0,-0.0,-0.0,-0.0,-0.0,-0.0,-0.0,-0.0,-0.0,-0.0,-0.0,-0.0,-0.0,-0.0,-0.0,-0.0,-0.0,-0.0,-0.1113,-0.5012,-0.5859,-0.5251,-0.3032,-0.285,-0.365,-0.5591,-0.5964,-0.6391,-0.7837,-0.5702,-0.3641,-0.2818,-0.2614,-0.2614,-0.2614,-0.2612,-0.3715,-0.6442,-0.7463,-0.7962,-0.8041,-0.8038,-0.8038,-0.8038,-0.8038,-0.8038,-0.8038,-0.8038,-0.8038,-0.8038,-0.8038,-0.8038,-0.8038,-0.892,-0.9316,1.4062,1.3102,1.2069,1.2219,1.1061,0.9768,0.9411,0.9442,0.9544,0.9724,0.9856,0.9469,0.8221,0.881,0.8784,0.6714,0.6312,0.6337,0.646,0.6406,0.553,0.3373,0.1336,-0.0,0.0,0.0,0.0,-0.0,-0.0,-0.0,-0.0,-0.0,-0.0,-0.0,-0.0,-0.0,-0.0,-0.0,-0.0,-0.0,-0.0,-0.0,-0.0,-0.0,-0.0,-0.0,-0.0,-0.0,-0.0,-0.0,-0.0,-0.0,-0.0,-0.0,-0.0,-0.0,-0.0,-0.0,-0.0,-0.0,-0.0,-0.0,-0.0,-0.0,-0.0,-0.0,-0.0,-0.0,-0.0,-0.0,-0.0,-0.0,-0.0,-0.0,-0.0,-0.1656,-0.7636,-0.8689,-0.7936,-0.601,-0.5728,-0.5764,-0.6063,-0.5999,-0.6421,-0.7842,-0.6564,-0.5422,-0.5432,-0.5432,-0.5432,-0.5432,-0.5432,-0.6139,-0.7872,-0.7972,-0.7962,-0.8041,-0.8038,-0.8038,-0.8038,-0.8038,-0.8038,-0.8038,-0.8038,-0.8233,-0.8726,-0.8726,-0.892,-0.941,-1.0288,-1.0681,1.1602,1.1838,1.1865,1.1536,1.1331,1.0699,0.9016,0.8994,0.9498,0.9799,0.9583,0.9049,0.0,0.0,0.8957,0.8917,0.8914,0.9023,0.9377,0.9363,0.9245,0.0,0.0,0.0,0.0,0.0,0.0,0.0246,0.0,-0.0,-0.0,-0.0,-0.0,-0.0,-0.0,-0.0,-0.0,-0.0,-0.0,-0.0,-0.0,-0.0,-0.0,-0.0,-0.0,-0.0,-0.0,-0.0,-0.0,-0.0,-0.0,-0.0,-0.0,-0.0,-0.0,-0.0,-0.0,-0.0,-0.0,-0.0,-0.0,-0.0,-0.0,-0.0,-0.0,-0.0,-0.0,-0.0,-0.0,-0.0,-0.0,-0.0,-0.0,-0.0,-0.0222,-0.1998,-0.7451,-0.8372,-0.8101,-0.847,-0.822,-0.8157,-0.8741,-0.853,-0.8351,-0.8296,-0.8147,-0.8062,-0.7985,-0.7985,-0.7985,-0.7985,-0.7985,-0.7982,-0.7972,-0.7972,-0.7962,-0.8041,-0.8038,-0.8038,-0.8038,-0.8038,-0.8038,-0.8038,-0.8038,-0.8726,-0.9998,-1.0096,-1.0681,-1.1945,-1.1945,-1.2042,1.1208,1.1606,1.1868,1.1812,0.8844,0.5889,0.5636,0.743,0.9123,0.9638,0.5914,0.2996,0.0,0.0,0.0,0.8856,0.9154,0.0,0.9517,0.932,0.0,0.9091,0.0,0.573,0.3521,0.1332,0.0,0.0,0.1324,-0.0,-0.0,-0.0,-0.0,-0.0,-0.0,-0.0,-0.0,-0.0,-0.0,-0.0,-0.0,-0.0,-0.0,-0.0,-0.0,-0.0,-0.0,-0.0,-0.0,-0.0,-0.0,-0.0,-0.0,-0.0,-0.0,-0.0,-0.0,-0.0,-0.0,-0.0,-0.0,-0.0,-0.0,-0.0,-0.0,-0.0,-0.0,-0.0,-0.0,-0.0,-0.0,-0.0,-0.0,-0.0,-0.3405,-0.6496,-0.5766,-0.7096,-0.8411,-0.8455,-0.8357,-0.833,-0.858,-0.8496,-0.8442,-0.8292,-0.8238,-0.8174,-0.8065,-0.7952,-0.7952,-0.7952,-0.7952,-0.7952,-0.8048,-0.8048,-0.8045,-0.8038,-0.8038,-0.8038,-0.8038,-0.8038,-0.8038,-0.8038,-0.9019,-0.9706,-0.9998,-1.0974,-1.1556,-1.1945,-1.2909,-1.3392,0.7879,0.8201,0.8672,0.9904,0.7955,0.5161,0.2973,0.3793,0.5056,0.5402,0.2619,0.0,0.2,0.0,0.0,0.0,0.0,0.0,0.9306,0.911,0.8988,0.0,0.8943,0.0,0.656,0.4862,0.4196,0.0,0.1817,-0.0,-0.0,-0.0,-0.0,-0.0,-0.0,-0.0,-0.0,-0.0,-0.0,-0.0,-0.0,-0.0,-0.0,-0.0,-0.0,-0.0,0.0,-0.0,-0.0,-0.0,-0.0,-0.0,-0.0,-0.0,-0.0,-0.0,-0.0,-0.0,-0.0,-0.0,-0.0,-0.0,-0.0,-0.0,-0.0,-0.0,-0.0,-0.0,-0.0,-0.0,-0.0,-0.0,-0.0557,-0.2939,-0.6112,-0.81,-0.6531,-0.7305,-0.829,-0.8306,-0.8279,-0.8275,-0.8286,-0.8343,-0.834,-0.8191,-0.817,-0.8136,-0.8052,-0.8038,-0.8038,-0.8038,-0.8038,-0.8038,-0.8038,-0.8038,-0.8038,-0.8038,-0.8038,-0.8038,-0.8038,-0.8531,-0.8924,-0.8924,-1.0194,-1.1165,-1.1745,-1.2425,-1.3108,-1.3596,-1.437,-1.4752,0.337,0.4011,0.5099,0.7419,0.7723,0.6176,0.1114,-0.0,-0.0,-0.0,0.0,-0.0,-0.0,0.4088,0.7793,0.8881,0.0,0.8804,0.896,0.8845,0.8788,0.8813,0.8838,0.8921,0.8917,0.8935,0.7943,0.5608,0.2827,0.0861,-0.0,-0.0,-0.0,-0.0,-0.0,-0.0,-0.0,-0.0,-0.0,-0.0,-0.0,-0.0,-0.0,-0.0,-0.0,-0.0,0.0,0.0,-0.0,-0.0,-0.0,-0.0,-0.0,-0.0,-0.0,-0.0,-0.0,-0.0,-0.0,-0.0,-0.0,-0.0,-0.0,-0.0,-0.0,-0.0,-0.0,-0.0,-0.0,-0.0,-0.0,-0.0559,-0.2216,-0.688,-0.8009,-0.8138,-0.8277,-0.8217,-0.8061,-0.7975,-0.8147,-0.8197,-0.8062,-0.815,-0.8194,-0.8058,-0.8038,-0.8038,-0.8038,-0.8038,-0.8038,-0.8038,-0.8038,-0.8038,-0.8038,-0.8038,-0.8038,-0.8038,-0.8038,-0.8038,-0.8038,-0.9316,-0.9998,-0.9998,-1.1458,-1.2721,-1.3878,-1.407,-1.4752,-1.5832,-1.5832,-1.5832,0.0679,0.3925,0.7423,0.7852,0.6348,0.3836,0.0718,-0.0,0.0,0.0,-0.0,-0.0,-0.0,0.0831,0.3095,0.7831,0.0,0.0,0.0,0.0,0.8796,0.0,0.0,0.0,0.0,0.0,0.0,0.0,0.0,0.5696,0.0343,-0.0,-0.0,-0.0,-0.0,-0.0,-0.0,-0.0,-0.0,-0.0,-0.0,-0.0,-0.0,-0.0,-0.0,-0.0,-0.0,0.0,-0.0,-0.0,-0.0,-0.0,-0.0,-0.0,-0.0,-0.0,-0.0,-0.0,-0.0,-0.0,-0.0,-0.0,-0.0,-0.0,-0.0,-0.0,-0.0,-0.0,-0.0,-0.0,-0.0,-0.3298,-0.6888,-0.7824,-0.8161,-0.8332,-0.8489,-0.8465,-0.837,-0.8092,-0.8062,-0.8072,-0.8045,-0.8062,-0.8069,-0.8041,-0.8038,-0.8038,-0.8038,-0.8038,-0.8038,-0.8038,-0.8038,-0.8038,-0.8038,-0.8038,-0.8038,-0.8038,-0.8038,-0.8038,-0.8038,-0.9316,-0.9998,-0.9998,-1.2323,-1.368,-1.3878,-1.4949,-1.554,-1.5832,-1.5832,-1.5832,0.34,0.5766,0.7624,0.7963,0.7075,0.5763,0.4472,0.0,0.0,0.0,-0.0,-0.0,-0.0,-0.0,0.0,0.0,0.0,0.0,0.0,0.0,0.0,0.0,0.0,0.0,0.0,0.0,0.0,0.0,0.0,0.4768,0.5071,0.1845,-0.0,-0.0,-0.0,-0.0,-0.0,-0.0,-0.0,-0.0,-0.0,-0.0,-0.0101,-0.2881,-0.4133,-0.4097,-0.2732,0.0,-0.2113,-0.2113,-0.1309,-0.0,-0.0,-0.0,-0.0,-0.0,-0.0,-0.0,-0.0,-0.0,-0.0505,-0.3232,-0.225,-0.0,-0.0,-0.0,-0.0,-0.0,-0.0,-0.0672,-0.3449,-0.6079,-0.7976,-0.7976,-0.8043,-0.8163,-0.8269,-0.8258,-0.8208,-0.8069,-0.8038,-0.8038,-0.8038,-0.8038,-0.8038,-0.8038,-0.8038,-0.8038,-0.8038,-0.8627,-0.8726,-0.8038,-0.8038,-0.8038,-0.8038,-0.8038,-0.8038,-0.8038,-0.8627,-0.9019,-0.9019,-1.0965,-1.2037,-1.2037,-1.3878,-1.4854,-1.4854,-1.5534,-1.5832,-1.5832,-1.5832,-1.5832,0.5434,0.6804,0.7359,0.7758,0.7885,0.7955,0.7955,0.476,0.0,0.0,-0.0,-0.0,-0.0,0.0,-0.0,0.0,0.2023,0.0,0.0,0.0,0.0,0.0,0.0,0.0,0.0,0.0,0.0,0.0,0.0,0.0,0.7411,0.2817,-0.0,-0.0,-0.0,-0.0,-0.0,-0.0,-0.0,-0.0,-0.121,-0.1713,-0.1816,-0.5454,-0.7456,-0.7872,-0.578,0.0,0.0,-0.4824,-0.3618,-0.161,-0.0402,-0.0,-0.0,-0.0,-0.0,-0.0,-0.0,-0.0707,-0.2424,-0.6586,-0.4389,-0.0103,-0.0725,-0.127,-0.1626,-0.1092,-0.0994,-0.2004,-0.6808,-0.8066,-0.8037,-0.8059,-0.8051,-0.8079,-0.8045,-0.8065,-0.8079,-0.8045,-0.8038,-0.8038,-0.8038,-0.8038,-0.8038,-0.8038,-0.8237,-0.8432,-0.8432,-0.9608,-0.9998,-0.892,-0.8825,-0.8825,-0.8825,-0.8825,-0.8825,-0.8825,-0.9801,-1.0386,-1.0386,-1.2614,-1.3878,-1.3878,-1.5146,-1.5832,-1.5832,-1.5832,-1.5832,-1.5832,-1.5832,-1.5832,0.1919,0.4255,0.7771,0.729,0.7589,0.7983,0.7983,0.0,0.0,0.0957,-0.0,-0.0,-0.0,-0.0,-0.0,0.0,0.0,0.0516,0.0,0.0,0.0,0.0,0.0,0.0,0.0,0.0,0.0,0.0,0.0,0.0,0.0614,0.0304,-0.0,-0.0,-0.0,-0.0,-0.0,-0.0,-0.0,-0.0101,-0.4922,-0.7247,-0.7172,-0.5225,-0.5737,-0.8012,-0.7688,0.0,0.0,-0.7679,-0.7488,-0.6788,-0.1912,-0.0,-0.0,-0.0,-0.0,-0.0,-0.0,-0.3232,-0.7305,-0.7818,-0.4351,-0.0406,-0.288,-0.53,-0.6851,-0.4664,-0.4044,-0.4686,-0.7341,-0.8149,-0.8249,-0.8056,-0.8167,-0.8211,-0.8069,-0.815,-0.8208,-0.8065,-0.8038,-0.8038,-0.8038,-0.8038,-0.8038,-0.8038,-0.9019,-0.9805,-0.9805,-1.0974,-1.1653,-1.1556,-1.1556,-1.1556,-1.1556,-1.1556,-1.1556,-1.1556,-1.1653,-1.1755,-1.1755,-1.3102,-1.3878,-1.3878,-1.5146,-1.5832,-1.5832,-1.5832,-1.5832,-1.5832,-1.5832,-1.5832,0.4544,0.406,0.3475,0.4886,0.5251,0.5805,0.7627,0.0,0.6461,0.1122,-0.0,-0.0,-0.0,-0.0,-0.1089,0.0,0.0,0.0,0.0,0.0,0.0,0.0,0.0,0.0,0.0,0.0,0.0,0.0,0.0,0.0,-0.5144,-0.3309,-0.1707,-0.0101,-0.0,-0.1516,-0.4764,-0.4764,-0.4038,-0.2404,-0.4612,-0.6437,-0.7979,-0.6848,-0.6951,-0.7979,-0.7965,0.0,0.0,-0.7959,-0.7975,-0.7591,-0.3922,-0.1409,-0.0,-0.0,-0.0,-0.0505,-0.3739,-0.6178,-0.8022,-0.8002,-0.6564,-0.4744,-0.4156,-0.5853,-0.783,-0.6871,-0.5435,-0.482,-0.7596,-0.8322,-0.8223,-0.8012,-0.816,-0.8228,-0.8072,-0.8089,-0.8113,-0.8052,-0.8038,-0.8038,-0.8038,-0.8038,-0.8233,-0.9118,-0.9706,-1.0293,-1.1072,-1.2328,-1.3102,-1.3102,-1.2334,-1.1945,-1.1945,-1.1945,-1.1945,-1.1945,-1.2619,-1.3102,-1.3102,-1.4364,-1.5045,-1.5045,-1.5534,-1.5832,-1.5832,-1.5832,-1.5832,-1.5832,-1.5832,-1.5832,0.3605,0.2369,0.0378,0.1434,0.1665,0.2161,0.0,0.0,0.3509,-0.0274,-0.1098,-0.1107,-0.1137,-0.1155,-0.245,0.0,0.0,-0.7384,0.0,0.0,0.0,0.0,0.0,0.0,0.0,0.0,0.0,0.0,0.0,0.0,0.0,-0.6385,-0.4405,-0.2415,-0.1614,-0.3031,-0.6799,-0.7613,-0.7068,-0.5196,-0.5211,-0.6132,-0.7962,-0.7962,-0.7962,-0.7962,0.0,0.0,0.0,-0.8038,-0.7959,-0.7782,-0.5027,-0.2313,-0.0,-0.0,-0.0,-0.0808,-0.6178,-0.8019,-0.8009,-0.7982,-0.7975,-0.7666,-0.5727,-0.6502,-0.8047,-0.7988,-0.669,-0.5695,-0.7874,-0.8347,-0.8223,-0.815,-0.8157,-0.8174,-0.8062,-0.8038,-0.8038,-0.8038,-0.8038,-0.8137,-0.8531,-0.8627,-0.9019,-1.0386,-1.0872,-1.1453,-1.2425,-1.3686,-1.4459,-1.4459,-1.3596,-1.3011,-1.3011,-1.3011,-1.3011,-1.3011,-1.398,-1.4459,-1.4459,-1.5343,-1.5832,-1.5832,-1.5832,-1.5832,-1.5832,-1.5832,-1.5832,-1.5832,-1.5832,-1.5832,-0.3147,-0.1629,-0.0275,-0.2852,-0.3267,-0.3145,0.0,0.0,-0.3487,-0.3571,-0.3571,-0.3617,-0.3865,-0.3989,-0.3947,-0.4009,0.0,0.0,0.0,0.0,0.0,0.0,0.0,0.0,0.0,0.0,0.0,0.0,0.0,0.0,0.0,-0.8367,-0.8144,-0.7939,-0.5349,-0.3939,-0.4017,-0.6628,-0.7939,-0.7939,-0.7939,-0.7939,-0.8038,-0.8038,-0.8038,0.0,0.0,0.0,0.0,-0.8038,-0.7959,-0.7782,-0.5027,-0.2313,-0.0,-0.0,-0.0,-0.0808,-0.6178,-0.8009,-0.7989,-0.7975,-0.7959,-0.8038,-0.7939,-0.7955,-0.8006,-0.8051,-0.7988,-0.8017,-0.8448,-0.8265,-0.8082,-0.8235,-0.815,-0.8041,-0.8038,-0.8038,-0.8038,-0.8038,-0.8038,-0.8432,-0.9702,-0.9998,-1.0386,-1.1658,-1.3006,-1.3872,-1.3878,-1.4949,-1.5737,-1.5737,-1.5737,-1.573,-1.573,-1.573,-1.573,-1.573,-1.5737,-1.5737,-1.5737,-1.5825,-1.5832,-1.5832,-1.5832,-1.5832,-1.5832,-1.5832,-1.5832,-1.5832,-1.5832,-1.5832,-0.557,-0.5095,-0.4687,-0.5497,-0.5765,-0.5815,-0.5754,0.0,-0.6002,-0.5991,-0.6005,-0.6059,-0.6415,-0.6617,-0.6724,-0.6763,0.0,0.0,0.0,0.0,0.0,0.0,0.0,0.0,0.0,0.0,0.0,0.0,0.0,0.0,0.0,-0.8872,-0.8252,-0.8052,-0.7144,-0.6739,-0.6728,-0.7534,-0.8038,-0.8038,-0.8038,-0.8038,-0.8038,-0.8038,0.0,0.0,0.0,0.0,0.0,-0.8038,-0.7955,-0.7772,-0.5729,-0.2912,-0.0,-0.0,-0.2318,-0.5461,-0.5343,-0.6453,-0.7975,-0.7955,-0.8045,-0.8038,-0.8038,-0.8045,-0.7959,-0.8009,-0.8019,-0.8029,-0.817,-0.8262,-0.8303,-0.815,-0.8231,-0.8286,-0.8082,-0.8726,-0.941,-0.941,-1.0092,-1.0774,-1.1268,-1.1268,-1.175,-1.3102,-1.3584,-1.4166,-1.5051,-1.554,-1.5832,-1.5832,-1.5832,-1.5832,-1.5832,-1.5832,-1.5832,-1.5832,-1.5832,-1.5832,-1.5832,-1.5832,-1.5439,-1.4561,-1.5343,-1.5337,-1.4459,-1.5343,-1.5832,-1.5737,-1.4949,-1.4949,0.0,-0.7796,-0.772,-0.7446,-0.7432,0.0,0.0,0.0,-0.7004,-0.7054,-0.7128,-0.7305,-0.7557,-0.7806,-0.8144,-0.8661,-0.8795,0.0,0.0,0.0,0.0,0.0,0.0,0.0,0.0,0.0,0.0,0.0,0.0,0.0,0.0,-1.0353,-0.9565,-0.8873,-0.8247,-0.8038,-0.8038,-0.8038,-0.8038,-0.8038,-0.8038,-0.8038,-0.8038,-0.8038,0.0,0.0,0.0,0.0,0.0,-0.8038,-0.7952,-0.7872,-0.6845,-0.5024,-0.2916,-0.1908,-0.3623,-0.6364,-0.5737,-0.6648,-0.7975,-0.7959,-0.7952,-0.7952,-0.8041,-0.8038,-0.8038,-0.8038,-0.8038,-0.8055,-0.8113,-0.8221,-0.8282,-0.8157,-0.8624,-0.8969,-0.877,-0.9801,-1.0681,-1.0681,-1.1361,-1.2042,-1.2528,-1.2619,-1.3108,-1.4459,-1.4657,-1.4854,-1.573,-1.5832,-1.5832,-1.5832,-1.5832,-1.5832,-1.5832,-1.5832,-1.5832,-1.5832,-1.5343,-1.5045,-1.5045,-1.4561,-1.398,-1.3199,-1.4459,-1.4657,-1.3878,-1.4657,-1.5045,-1.5045,-1.3782,-1.359,0.0,-0.9702,0.0,0.0,0.0,0.0,0.0,0.0,0.0,-0.7285,-0.752,-0.7675,-0.7847,-0.7984,-0.8538,-0.9867,0.0,0.0,0.0,0.0,0.0,0.0,0.0,0.0,0.0,0.0,0.0,0.0,0.0,0.0,0.0,-1.2268,-1.159,-1.0384,-0.895,-0.8137,-0.8038,-0.8038,-0.8038,-0.8038,-0.8038,-0.8038,-0.8038,-0.8038,0.0,0.0,0.0,0.0,0.0,-0.8038,-0.7952,-0.7972,-0.7972,-0.7979,-0.7679,-0.5229,-0.4318,-0.462,-0.7153,-0.7979,-0.7985,-0.7872,-0.7869,-0.7965,-0.8045,-0.8038,-0.8038,-0.8038,-0.8038,-0.8072,-0.8218,-0.8254,-0.8185,-0.8424,-0.9345,-1.0109,-1.01,-1.117,-1.2042,-1.2042,-1.2139,-1.2528,-1.3782,-1.407,-1.4459,-1.5635,-1.5832,-1.5832,-1.5832,-1.5832,-1.5832,-1.5832,-1.5832,-1.5832,-1.5832,-1.573,-1.5635,-1.5635,-1.4459,-1.3776,-1.3776,-1.2522,-1.1848,-1.1755,-1.3006,-1.368,-1.3776,-1.3776,-1.3776,-1.368,-1.2431,-1.1848,-1.2293,0.0,-0.9637,-0.9448,-0.9019,-0.8729,0.0,0.0,-0.8661,-0.9566,0.0,-0.993,-1.0388,-1.0445,-1.0712,0.0,0.0,0.0,0.0,0.0,0.0,0.0,0.0,0.0,0.0,0.0,0.0,0.0,0.0,0.0,0.0,-1.2694,-1.1955,-1.148,-1.0214,-0.9,-0.8038,-0.8038,-0.8038,-0.8038,-0.8038,-0.8038,-0.8038,-0.8038,0.0,0.0,0.0,0.0,-0.8038,-0.8038,-0.8041,-0.8048,-0.8048,-0.7959,-0.7875,-0.726,-0.7054,-0.7153,-0.7769,-0.7975,-0.7772,-0.6439,-0.6936,-0.8045,-0.8041,-0.8038,-0.8038,-0.8038,-0.8038,-0.8048,-0.8082,-0.8844,-0.9678,-0.9594,-1.0631,-1.1652,-1.1492,-1.2522,-1.3392,-1.3392,-1.4172,-1.4956,-1.5337,-1.5343,-1.5439,-1.573,-1.5832,-1.5832,-1.5832,-1.5832,-1.5832,-1.5832,-1.5832,-1.5832,-1.5832,-1.4949,-1.4364,-1.4364,-1.3108,-1.2334,-1.2334,-1.2042,-1.1458,-1.0489,-1.0774,-1.1361,-1.2334,-1.2334,-1.2334,-1.2334,-1.1068,-1.0974,-1.3206,-1.228,-1.0895,-0.9979,-0.9867,-0.9907,-0.9671,0.0,0.0,0.0,0.0,0.0,0.0,0.0,0.0,0.0,0.0,0.0,0.0,0.0,0.0,0.0,0.0,0.0,0.0,0.0,0.0,0.0,0.0,0.0,0.0,-1.4236,-1.3535,-1.2868,-1.1589,-1.0266,-0.8905,-0.8329,-0.8038,-0.8038,-0.8038,-0.8038,-0.8038,-0.8038,-0.8038,0.0,0.0,0.0,-0.8038,-0.8038,-0.8038,-0.8038,-0.8038,-0.8045,-0.7959,-0.7959,-0.7959,-0.7959,-0.7959,-0.745,-0.6745,-0.6639,-0.7244,-0.7952,-0.8041,-0.8038,-0.8038,-0.8038,-0.8432,-0.892,-0.892,-0.997,-1.1005,-1.09,-1.1933,-1.2964,-1.284,-1.3878,-1.4752,-1.4752,-1.5337,-1.5832,-1.5832,-1.5832,-1.5832,-1.5832,-1.5832,-1.5832,-1.5832,-1.5832,-1.5832,-1.5832,-1.5832,-1.5832,-1.5832,-1.4076,-1.3199,-1.3872,-1.2134,-1.1072,-1.1072,-1.0485,-1.0386,-1.0877,-1.0293,-1.097,-1.2818,-1.1653,-1.1361,-1.1853,-1.0583,-1.0386,-1.3241,-1.324,-1.2408,-1.0659,-1.0886,-1.112,-0.9611,0.0,0.0,0.0,0.0,0.0,0.0,0.0,0.0,0.0,0.0,0.0,0.0,0.0,0.0,0.0,0.0,0.0,0.0,0.0,0.0,0.0,0.0,0.0,0.0,-1.5635,-1.5064,-1.4214,-1.2732,-1.1444,-1.064,-0.8909,-0.8137,-0.8333,-0.8137,-0.8038,-0.8038,-0.8038,-0.8038,0.0,0.0,0.0,-0.8038,-0.8038,-0.8038,-0.8038,-0.8038,-0.8038,-0.8038,-0.8038,-0.8038,-0.8038,-0.8041,-0.7033,-0.6027,-0.7559,-0.8168,-0.8261,-0.834,-0.8432,-0.8627,-0.8627,-0.9312,-0.9998,-1.0194,-1.1263,-1.2237,-1.2237,-1.3204,-1.4166,-1.4166,-1.5045,-1.5832,-1.5832,-1.5832,-1.5832,-1.5832,-1.5832,-1.5832,-1.5832,-1.5832,-1.5832,-1.5832,-1.5832,-1.5832,-1.5832,-1.5832,-1.5832,-1.5832,-1.3596,-1.2716,-1.3872,-1.1258,-0.9801,-0.9998,-0.9118,-0.9604,-1.1848,-1.0877,-1.1361,-1.3584,-1.1361,-1.0877,-1.1853,-1.0779,-1.0194,-1.3546,-1.34,-1.2883,-1.1829,-1.1723,-1.1786,-1.1781,0.0,0.0,0.0,0.0,0.0,0.0,0.0,0.0,0.0,0.0,0.0,0.0,0.0,0.0,0.0,0.0,0.0,0.0,0.0,0.0,0.0,0.0,0.0,0.0,-1.4752,-1.4561,-1.5445,-1.321,-1.2328,-1.3284,-0.9792,-0.8531,-0.9706,-0.8528,-0.8038,-0.8038,-0.8038,-0.8038,0.0,0.0,-0.8038,-0.8038,-0.8038,-0.8038,-0.8038,-0.8038,-0.8038,-0.8038,-0.8038,-0.8038,-0.8041,-0.7962,-0.7852,-0.764,-0.7865,-0.8748,-0.971,-0.9706,-1.0485,-1.1263,-1.1263,-1.0681,-1.0293,-1.1361,-1.2624,-1.3584,-1.3584,-1.4561,-1.5534,-1.5534,-1.5635,-1.5832,-1.5832,-1.5832,-1.5832,-1.5832,-1.5832,-1.5832,-1.5832,-1.5832,-1.5832,-1.5832,-1.5832,-1.5832,-1.5832,-1.5832,-1.5832,-1.5832,-1.4459,-1.3686,-1.3872,-1.0382,-0.8825,-0.9998,-1.0877,-1.1463,-1.1848,-1.175,-1.1848,-1.2237,-1.1848,-1.175,-1.1945,-1.1653,-1.1072,-1.336,-1.3313,-1.2829,-1.1218,-1.1246,-1.1607,-1.1227,0.0,0.0,0.0,0.0,0.0,0.0,0.0,0.0,0.0,0.0,0.0,0.0,0.0,0.0,0.0,0.0,0.0,0.0,0.0,0.0,0.0,0.0,0.0,0.0,0.0,-1.4166,-1.4752,-1.2237,-1.1458,-1.2818,-0.9604,-0.8627,-0.9998,-0.8627,-0.8038,-0.8038,-0.8038,-0.8038,-0.8038,0.0,-0.8038,-0.8038,-0.8038,-0.8038,-0.8038,-0.8038,-0.8038,-0.8038,-0.8038,-0.8038,-0.8041,-0.7952,-0.8439,-0.9122,-0.9034,-1.0006,-1.1072,-1.1072,-1.1458,-1.2042,-1.2818,-1.2522,-1.2231,-1.2813,-1.3974,-1.4949,-1.4949,-1.5337,-1.5832,-1.5832,-1.5832,-1.5832,-1.5832,-1.5832,-1.5832,-1.5832,-1.5832,-1.5832,-1.5832,-1.5832,-1.5832,-1.5832,-1.5832,-1.5832,-1.5832,-1.5832,-1.5832,-1.5832,-1.4657,-1.3584,-1.2909,-1.1068,-1.0386,-1.0974,-1.1556,-1.2237,-1.3006,-1.2237,-1.2237,-1.3011,-1.2237,-1.2237,-1.3011,-1.3011,-1.2231,-1.3033,-1.3106,-1.2595,-1.0597,0.0,-1.1588,-1.0508,0.0,0.0,0.0,0.0,0.0,0.0,0.0,0.0,0.0,0.0,0.0,0.0,0.0,0.0,0.0,0.0,0.0,0.0,0.0,0.0,0.0,0.0,0.0,0.0,0.0,-1.3102,-1.3392,-1.1161,-1.0583,-1.1848,-0.9899,-0.9316,-0.9998,-0.8627,-0.8038,-0.8038,-0.8038,-0.8038,-0.8038,-0.8038,-0.8038,-0.8038,-0.8038,-0.8038,-0.8038,-0.8038,-0.8038,-0.8038,-0.8038,-0.8237,-0.8432,-0.8432,-0.9312,-1.0485,-1.0485,-1.1361,-1.2334,-1.2334,-1.2624,-1.3011,-1.4076,-1.4364,-1.4364,-1.4364,-1.5045,-1.5832,-1.5832,-1.5832,-1.5832,-1.5832,-1.5832,-1.5832,-1.5832,-1.5832,-1.5832,-1.5832,-1.5832,-1.5832,-1.5832,-1.5832,-1.5832,-1.5832,-1.5832,-1.5832,-1.5832,-1.5832,-1.5832,-1.5832,-1.4949,-1.3878,-1.2915,-1.2528,-1.2334,-1.2334,-1.2624,-1.3301,-1.4364,-1.3301,-1.3301,-1.4364,-1.3301,-1.3204,-1.3878,-1.3878,-1.3006,-1.2849,-1.2856,-1.2477,-1.1051,-1.1927,0.0,-1.0787,-1.2035,0.0,-1.4402,0.0,0.0,0.0,0.0,0.0,0.0,0.0,0.0,0.0,0.0,0.0,0.0,0.0,0.0,0.0,0.0,0.0,0.0,0.0,0.0,0.0,0.0,0.0,-1.2042,-1.0681,-1.0583,-1.1848,-1.175,-1.1072,-0.9998,-0.8627,-0.8038,-0.8038,-0.8038,-0.8038,-0.8038,-0.8038,-0.8038,-0.8038,-0.8038,-0.8038,-0.8038,-0.8038,-0.8038,-0.8038,-0.8038,-0.8825,-0.9903,-0.9903,-1.0681,-1.1755,-1.1755,-1.2624,-1.3776,-1.3776,-1.4561,-1.5534,-1.5635,-1.5635,-1.5635,-1.5635,-1.573,-1.5832,-1.5832,-1.5832,-1.5832,-1.5832,-1.5832,-1.5832,-1.5832,-1.5832,-1.5832,-1.5832,-1.5832,-1.5832,-1.5832,-1.5832,-1.5832,-1.5832,-1.5832,-1.5832,-1.5832,-1.5832,-1.5832,-1.5832,-1.573,-1.5635,-1.554,-1.4364,-1.3776,-1.3776,-1.4854,-1.554,-1.5635,-1.5534,-1.5534,-1.5635,-1.554,-1.4949,-1.3878,-1.3878,-1.2517,-1.2472,-1.2605,-1.2589,-1.188,-1.2722,0.0,0.0,-1.1723,-1.2851,-1.3754,-1.4502,0.0,0.0,0.0,0.0,0.0,0.0,0.0,0.0,0.0,0.0,0.0,0.0,0.0,0.0,0.0,0.0,0.0,0.0,0.0,0.0,0.0,0.0,-1.0681,-0.941,-0.941,-1.0681,-1.0681,-1.0877,-1.1165,-0.9899,-0.9217,-0.9217,-0.8333,-0.8038,-0.8038,-0.8038,-0.8038,-0.8038,-0.8038,-0.8038,-0.8038,-0.8038,-0.8038,-0.8137,-0.8924,-0.9608,-1.0096,-1.0877,-1.2037,-1.3102,-1.3102,-1.3974,-1.5045,-1.5045,-1.5439,-1.5832,-1.5832,-1.5832,-1.5832,-1.5832,-1.5832,-1.5832,-1.5832,-1.5832,-1.5832,-1.5832,-1.5832,-1.5832,-1.5832,-1.5832,-1.5832,-1.5832,-1.5832,-1.5832,-1.5832,-1.5832,-1.5832,-1.5832,-1.5832,-1.5832,-1.5832,-1.5832,-1.5832,-1.5832,-1.5832,-1.5832,-1.5832,-1.5343,-1.5045,-1.5045,-1.5534,-1.5832,-1.5832,-1.5832,-1.5832,-1.5832,-1.5832,-1.554,-1.5045,-1.4262,-1.2909,-1.2305,-1.2668,-1.2988,-1.2739,0.0,0.0,-1.3003,-1.2994,-1.34,-1.4049,-1.4649,0.0,0.0,0.0,0.0,0.0,0.0,0.0,0.0,0.0,0.0,0.0,0.0,0.0,0.0,0.0,0.0,0.0,0.0,0.0,0.0,0.0,0.0,0.0,-0.8502,-0.8605,-0.9909,-1.036,-1.1263,-1.2522,-1.1263,-1.0391,-0.9998,-0.8627,-0.8014,-0.797,-0.8018,-0.8011,-0.797,-0.8021,-0.8038,-0.8038,-0.8432,-0.8627,-0.8825,-1.0096,-1.0872,-1.1356,-1.2231,-1.3397,-1.4459,-1.4459,-1.5051,-1.5832,-1.5832,-1.5832,-1.5832,-1.5832,-1.5832,-1.5832,-1.5832,-1.5832,-1.5832,-1.5832,-1.5832,-1.5832,-1.5832,-1.5832,-1.5832,-1.5832,-1.5832,-1.5832,-1.5832,-1.5832,-1.5832,-1.5832,-1.5832,-1.5832,-1.5832,-1.5832,-1.5832,-1.5832,-1.5832,-1.5832,-1.5832,-1.5832,-1.5832,-1.5832,-1.5832,-1.5832,-1.5832,-1.5832,-1.5832,-1.5832,-1.5832,-1.5832,-1.5832,-1.5832,-1.5629,-1.5146,-1.3878,-1.2522,-1.2305,-1.3025,-1.3745,0.0,0.0,0.0,-1.5846,-1.6047,-1.6049,-1.5561,0.0,0.0,0.0,0.0,0.0,0.0,0.0,0.0,0.0,0.0,0.0,0.0,0.0,0.0,0.0,0.0,0.0,0.0,0.0,0.0,0.0,0.0,0.0,0.0,-0.7957,-0.8547,-0.981,-1.1153,-1.2619,-1.3872,-1.2522,-1.1263,-0.9998,-0.8627,-0.7957,-0.7821,-0.797,-0.7953,-0.7821,-0.7974,-0.8035,-0.8131,-0.9505,-0.9993,-1.019,-1.1458,-1.2716,-1.3878,-1.3878,-1.4752,-1.5832,-1.5832,-1.5832,-1.5832,-1.5832,-1.5832,-1.5832,-1.5832,-1.5832,-1.5832,-1.5832,-1.5832,-1.5832,-1.5832,-1.5832,-1.5832,-1.5832,-1.5832,-1.5832,-1.5832,-1.5832,-1.5832,-1.5832,-1.5832,-1.5832,-1.5832,-1.5832,-1.5832,-1.5832,-1.5832,-1.5832,-1.5832,-1.5832,-1.5832,-1.5832,-1.5832,-1.5832,-1.5832,-1.5832,-1.5832,-1.5832,-1.5832,-1.5832,-1.5832,-1.5832,-1.5832,-1.5832,-1.5832,-1.5146,-1.3872,-1.2528,-1.1268,-1.4232,-1.4522,0.0,0.0,0.0,0.0,0.0,-1.7213,0.0,0.0,0.0,0.0,0.0,0.0,0.0,0.0,0.0,0.0,0.0,0.0,0.0,0.0,0.0,0.0,0.0,0.0,0.0,0.0,0.0,0.0,0.0,0.0,0.0,0.0,-0.7706,-0.874,-1.0822,-1.1258,-1.2213,-1.3508,-1.2273,-1.15,-1.1268,-0.9019,-0.7957,-0.7814,-0.7858,-0.8333,-0.9244,-1.0149,-1.0378,-1.0251,-1.0627,-1.0905,-1.122,-1.2463,-1.3339,-1.407,-1.4949,-1.5439,-1.5832,-1.5832,-1.5832,-1.5832,-1.5832,-1.5832,-1.5832,-1.5832,-1.5832,-1.5832,-1.5832,-1.5832,-1.5832,-1.5832,-1.5832,-1.5832,-1.5832,-1.5832,-1.5832,-1.5832,-1.5832,-1.5832,-1.5832,-1.5832,-1.5832,-1.5832,-1.5832,-1.5832,-1.5832,-1.5832,-1.5832,-1.5832,-1.5832,-1.5832,-1.5832,-1.5832,-1.5832,-1.5832,-1.5832,-1.5832,-1.5832,-1.5832,-1.5832,-1.5832,-1.5832,-1.5832,-1.5832,-1.5832,-1.5635,-1.5146,-1.2915,-1.1653,-1.5119,0.0,0.0,0.0,0.0,0.0,0.0,0.0,0.0,0.0,0.0,0.0,0.0,0.0,0.0,0.0,0.0,0.0,0.0,0.0,0.0,0.0,0.0,0.0,0.0,0.0,0.0,0.0,0.0,0.0,0.0,0.0,0.0,0.0,-0.821,-0.9225,-1.1237,-1.0774,-1.1246,-1.2592,-1.1371,-1.0787,-1.092,-0.8886,-0.8056,-0.8379,-0.8781,-0.9537,-1.035,-1.1096,-1.1296,-1.1186,-1.1739,-1.2133,-1.246,-1.3796,-1.4514,-1.4752,-1.5534,-1.5832,-1.5832,-1.5832,-1.5832,-1.5832,-1.5832,-1.5832,-1.5832,-1.5832,-1.5832,-1.5832,-1.5832,-1.5832,-1.5832,-1.5832,-1.5832,-1.5832,-1.5832,-1.5832,-1.5832,-1.5832,-1.5832,-1.5832,-1.5832,-1.5832,-1.5832,-1.5832,-1.5832,-1.5832,-1.5832,-1.5832,-1.5832,-1.5832,-1.5832,-1.5832,-1.5832,-1.5832,-1.5832,-1.5832,-1.5832,-1.5832,-1.5832,-1.5832,-1.5832,-1.5832,-1.5832,-1.5832,-1.5832,-1.5832,-1.5832,-1.573,-1.3113,-1.1945,-1.5598,0.0,0.0,0.0,0.0,0.0,0.0,0.0,0.0,0.0,0.0,0.0,0.0,0.0,0.0,0.0,0.0,0.0,0.0,0.0,0.0,0.0,0.0,0.0,0.0,0.0,0.0,0.0,0.0,0.0,0.0,0.0,0.0,-0.9311,-0.9296,-0.9848,-1.1003,-1.0022,-1.003,0.0,-1.0048,-0.941,-0.925,-0.8292,-0.8368,-0.9309,-1.0495,-1.1045,-1.1207,-1.1324,-1.141,-1.1501,-1.2923,-1.3507,-1.3764,-1.5168,-1.5785,-1.5832,-1.5832,-1.5832,-1.5832,-1.5832,-1.5832,-1.5832,-1.5832,-1.5832,-1.5832,-1.5832,-1.5832,-1.5832,-1.5832,-1.5832,-1.5832,-1.5832,-1.5832,-1.5832,-1.5832,-1.5832,-1.5832,-1.5832,-1.5832,-1.5832,-1.5832,-1.5832,-1.5832,-1.5832,-1.5832,-1.5832,-1.5832,-1.5832,-1.5832,-1.5832,-1.5832,-1.5832,-1.5832,-1.5832,-1.5832,-1.5832,-1.5832,-1.5832,-1.5832,-1.5832,-1.5832,-1.5832,-1.573,-1.5635,-1.5635,-1.5534,-1.5439,-1.5343,-1.2915,-1.1755,0.0,-1.7986,0.0,0.0,0.0,0.0,0.0,0.0,0.0,0.0,0.0,0.0,0.0,0.0,0.0,0.0,0.0,0.0,0.0,0.0,0.0,0.0,0.0,0.0,0.0,0.0,0.0,0.0,0.0,0.0,0.0,0.0,0.0,-1.0251,-0.942,-0.9513,-1.0681,-0.9596,-0.9255,0.0,-0.9302,-0.8746,-0.7966,-0.7722,-0.8206,-0.9302,-1.14,-1.2277,-1.2157,-1.3261,-1.3673,-1.3484,-1.3812,-1.4285,-1.4689,-1.5033,-1.5438,-1.5832,-1.5832,-1.5832,-1.5832,-1.5832,-1.5832,-1.5832,-1.5832,-1.5832,-1.5832,-1.5832,-1.5832,-1.5832,-1.5832,-1.5832,-1.5832,-1.5832,-1.5832,-1.5832,-1.5832,-1.5832,-1.5832,-1.5832,-1.5832,-1.5832,-1.5832,-1.5832,-1.5832,-1.5832,-1.5832,-1.5832,-1.5832,-1.5832,-1.5832,-1.5832,-1.5832,-1.5832,-1.5832,-1.5832,-1.5832,-1.5832,-1.5832,-1.5832,-1.5832,-1.5832,-1.5832,-1.5832,-1.4854,-1.4268,-1.4268,-1.3204,-1.2721,-1.2721,-1.117,-1.0386,0.0,0.0,0.0,0.0,0.0,0.0,0.0,0.0,0.0,0.0,0.0,0.0,0.0,0.0,0.0,0.0,0.0,0.0,0.0,0.0,0.0,0.0,0.0,0.0,0.0,0.0,0.0,0.0,0.0,0.0,0.0,-1.2452,-1.2048,-1.1472,-1.0269,-1.0009,-1.0611,-0.8882,-0.8055,-0.8139,-0.8139,-0.8192,-0.8288,-0.8818,-0.9651,-1.0772,-1.2626,-1.3341,-1.3215,-1.3985,-1.4222,-1.4102,-1.4242,-1.4569,-1.4983,-1.5117,-1.5451,-1.5832,-1.5832,-1.5832,-1.5832,-1.5832,-1.5832,-1.5832,-1.5832,-1.5832,-1.5832,-1.5832,-1.5832,-1.5832,-1.5832,-1.5832,-1.5832,-1.5832,-1.5832,-1.5832,-1.5832,-1.5832,-1.5832,-1.5832,-1.5832,-1.5832,-1.5832,-1.5832,-1.5832,-1.5832,-1.5832,-1.5832,-1.5832,-1.5832,-1.5832,-1.5832,-1.5832,-1.5832,-1.5832,-1.5242,-1.4854,-1.4854,-1.4854,-1.4561,-1.398,-1.4561,-1.5146,-1.5825,-1.3884,-1.3295,-1.3878,-1.2522,-1.1945,-1.1853,-1.0583,-0.9998,0.0,0.0,0.0,0.0,0.0,0.0,0.0,0.0,0.0,0.0,0.0,0.0,0.0,0.0,0.0,0.0,0.0,0.0,0.0,0.0,0.0,0.0,0.0,0.0,0.0,0.0,0.0,0.0,0.0,0.0,-1.2674,-1.3555,-1.3626,-1.2523,-1.1278,-1.059,-1.0555,-0.8257,-0.7129,-0.7102,-0.725,-0.7926,-0.9143,-1.0382,-1.1445,-1.2328,-1.3561,-1.4088,-1.4088,-1.4088,-1.4088,-1.4108,-1.4514,-1.4878,-1.5267,-1.5742,-1.6047,-1.6303,-1.6452,-1.6473,-1.6473,-1.6473,-1.6292,-1.6109,-1.6109,-1.6015,-1.5832,-1.5832,-1.5832,-1.5832,-1.5832,-1.5832,-1.5832,-1.5832,-1.5832,-1.5832,-1.5832,-1.5832,-1.5832,-1.5832,-1.5832,-1.5832,-1.5832,-1.5832,-1.5832,-1.5832,-1.5832,-1.5832,-1.5832,-1.5832,-1.5832,-1.5832,-1.5832,-1.573,-1.5534,-1.4555,-1.3776,-1.3584,-1.3584,-1.3102,-1.195,-1.2716,-1.3878,-1.5051,-1.2818,-1.2134,-1.3199,-1.1843,-1.1263,-1.1165,-1.0194,-0.9608,0.0,0.0,0.0,0.0,0.0,0.0,0.0,0.0,0.0,0.0,0.0,0.0,0.0,0.0,0.0,0.0,0.0,0.0,0.0,0.0,0.0,0.0,0.0,0.0,0.0,0.0,0.0,0.0,0.0,0.0,-1.3906,-1.3997,-1.3884,-1.3454,-1.1623,-1.052,-1.0243,-0.8198,-0.7078,-0.6956,-0.7651,-0.8643,-0.9794,-1.1183,-1.1977,-1.2328,-1.3561,-1.4088,-1.4088,-1.4088,-1.4088,-1.4173,-1.518,-1.572,-1.6122,-1.7486,-1.8185,-1.8441,-1.8835,-1.9039,-1.9039,-1.9039,-1.8319,-1.7412,-1.7412,-1.6669,-1.5832,-1.5832,-1.5832,-1.5832,-1.5832,-1.5832,-1.5832,-1.5832,-1.5832,-1.5832,-1.5832,-1.5832,-1.5832,-1.5832,-1.5832,-1.5832,-1.5832,-1.5832,-1.5832,-1.5832,-1.5832,-1.5832,-1.5832,-1.5832,-1.5832,-1.5832,-1.5832,-1.5343,-1.4268,-1.3974,-1.3392,-1.2237,-1.2139,-1.2042,-1.195,-1.0974,-1.1165,-1.2431,-1.0974,-1.0391,-1.0485,-0.9213,-0.8531,-0.8531,-0.8333,-0.8233,-2.0569,0.0,0.0,0.0,0.0,0.0,0.0,0.0,0.0,0.0,0.0,0.0,0.0,0.0,0.0,0.0,0.0,0.0,0.0,0.0,0.0,0.0,0.0,0.0,0.0,0.0,0.0,0.0,0.0,-1.3908,-1.4082,-1.4088,-1.3762,-1.2937,-1.1286,-1.0124,-0.9363,-0.7743,-0.7112,-0.7628,-0.804,-0.9136,-1.0836,-1.1433,-1.2204,-1.3067,-1.3756,-1.4088,-1.4173,-1.4734,-1.4977,-1.5137,-1.6191,-1.6925,-1.7509,-1.8185,-1.877,-1.9183,-1.9439,-1.9497,-1.9497,-1.9497,-1.9131,-1.8596,-1.787,-1.7318,-1.6756,-1.6015,-1.5832,-1.5832,-1.5832,-1.5832,-1.5832,-1.5832,-1.5832,-1.5832,-1.5832,-1.5832,-1.5832,-1.5832,-1.5832,-1.5832,-1.5832,-1.5832,-1.5832,-1.5832,-1.5832,-1.5832,-1.5832,-1.5832,-1.5832,-1.5832,-1.5146,-1.4555,-1.3974,-1.2522,-1.1453,-1.0877,-1.0877,-1.0485,-0.9702,-0.9899,-0.9899,-0.9702,-0.9118,-0.9217,-0.9998,-0.8627,-0.8038,-0.8038,-0.8038,-0.8038,0.0,0.0,0.0,0.0,0.0,0.0,0.0,0.0,0.0,0.0,0.0,0.0,0.0,0.0,0.0,0.0,0.0,0.0,0.0,0.0,0.0,0.0,0.0,0.0,0.0,0.0,0.0,0.0,0.0,-1.3634,-1.3854,-1.3605,-1.3054,-1.204,-1.0663,-0.9419,-0.8546,-0.7514,-0.7371,-0.8175,-0.8608,-0.9697,-1.137,-1.1678,-1.2578,-1.3939,-1.3924,-1.4176,-1.4573,-1.5379,-1.5861,-1.6191,-1.7334,-1.8085,-1.8575,-1.893,-1.9488,-1.9998,-2.0197,-2.0266,-2.0274,-2.0369,-2.0223,-1.9761,-1.8864,-1.8234,-1.7591,-1.6936,-1.6473,-1.6292,-1.6292,-1.6292,-1.6197,-1.5927,-1.5832,-1.5832,-1.5832,-1.5832,-1.5832,-1.5832,-1.5832,-1.5832,-1.5832,-1.5832,-1.5832,-1.5832,-1.5832,-1.5832,-1.5832,-1.5534,-1.5343,-1.5343,-1.4172,-1.3295,-1.2904,-1.1161,-0.9903,-0.9509,-0.9509,-0.9019,-0.8038,-0.892,-0.9019,-0.8041,-0.8038,-0.8531,-0.9509,-0.8531,-0.8038,-0.8038,-0.8038,-0.8038,0.0,0.0,0.0,0.0,0.0,0.0,0.0,0.0,0.0,0.0,0.0,0.0,0.0,0.0,0.0,0.0,0.0,0.0,0.0,0.0,0.0,0.0,0.0,0.0,0.0,0.0,0.0,0.0,0.0,-1.324,-1.3253,-1.2357,-1.1671,-1.1259,-0.9455,-0.8329,-0.8078,-0.7986,-0.7982,-0.8057,-0.9795,-1.0749,-1.0911,-1.217,-1.346,-1.4691,-1.3925,-1.4378,-1.5621,-1.5696,-1.6273,-1.7334,-1.847,-1.8904,-1.9145,-2.0533,-2.1047,-2.1202,-2.2087,-2.2368,-2.2436,-2.2824,-2.2129,-2.1203,-2.1114,-1.9488,-1.7963,-1.9039,-1.8495,-1.7598,-1.7598,-1.7598,-1.7318,-1.6109,-1.5832,-1.5832,-1.5832,-1.5832,-1.5832,-1.5832,-1.5832,-1.5832,-1.5832,-1.5832,-1.5832,-1.5832,-1.5832,-1.5832,-1.5832,-1.4752,-1.3974,-1.3974,-1.2813,-1.1556,-1.0293,-1.0096,-0.941,-0.8137,-0.8137,-0.8038,-0.8038,-0.8038,-0.8038,-0.8038,-0.8038,-0.8038,-0.8137,-0.8038,-0.8038,-0.8038,-0.8038,-0.8038,0.0,0.0,0.0,0.0,0.0,0.0,0.0,0.0,0.0,0.0,0.0,0.0,0.0,0.0,0.0,0.0,0.0,0.0,0.0,0.0,0.0,0.0,0.0,0.0,0.0,0.0,0.0,0.0,0.0,0.0,-1.32,-1.2234,-1.1289,-1.0391,-0.8974,-0.8141,-0.788,-0.7672,-0.8273,-0.9774,-1.029,-1.0998,-1.1774,-1.291,-1.3732,-1.4418,-1.4759,-1.5552,-1.6764,-1.7496,-1.806,-1.847,-1.9599,-2.0172,-2.0438,-2.1012,-2.1416,-2.1699,-2.2002,-2.2285,-2.2539,-2.2685,-2.264,-2.2306,-2.1569,-2.0666,-1.9761,-1.868,-1.8048,-1.7505,-1.6662,-1.648,-1.6386,-1.592,-1.5832,-1.5832,-1.5832,-1.5832,-1.5832,-1.5832,-1.5832,-1.5832,-1.5832,-1.5832,-1.5832,-1.5832,-1.5832,-1.5534,-1.4657,-1.4166,-1.3584,-1.2721,-1.1458,-1.0485,-0.9998,-0.9217,-0.8528,-0.8038,-0.8038,-0.8038,-0.8038,-0.8038,-0.8038,-0.8038,-0.8038,-0.8038,-0.8038,-0.8038,-0.8038,-0.8038,-0.8038,-0.8038,-2.2253,0.0,0.0,0.0,0.0,0.0,0.0,0.0,0.0,0.0,0.0,0.0,0.0,0.0,0.0,0.0,0.0,0.0,0.0,0.0,0.0,0.0,0.0,0.0,0.0,0.0,0.0,0.0,0.0,0.0,-1.2893,-1.1636,-1.0206,-0.8772,-0.7882,-0.7504,-0.761,-0.7847,-0.8763,-1.0525,-1.1178,-1.1886,-1.2659,-1.3693,-1.4574,-1.5266,-1.5855,-1.6707,-1.7712,-1.8434,-1.9076,-1.9599,-2.0323,-2.0752,-2.1016,-2.1016,-2.1191,-2.1465,-2.1621,-2.1846,-2.2109,-2.2256,-2.249,-2.2562,-2.1876,-2.1103,-2.0231,-1.919,-1.8319,-1.7505,-1.6669,-1.6109,-1.5832,-1.5832,-1.5832,-1.5832,-1.5832,-1.5832,-1.5832,-1.5832,-1.5832,-1.5832,-1.5832,-1.5439,-1.5146,-1.5146,-1.4758,-1.4178,-1.3295,-1.2909,-1.2231,-1.1361,-1.0096,-0.9316,-0.9316,-0.8531,-0.8038,-0.8038,-0.8038,-0.8038,-0.8038,-0.8038,-0.8038,-0.8038,-0.8038,-0.8038,-0.8038,-0.8038,-0.8038,-0.8038,-0.8038,-0.8038,0.0,0.0,0.0,0.0,0.0,0.0,0.0,0.0,0.0,0.0,0.0,0.0,0.0,0.0,0.0,0.0,0.0,0.0,0.0,0.0,0.0,0.0,0.0,0.0,0.0,0.0,0.0,0.0,0.0,-1.3237,-1.2378,-1.0415,-0.838,-0.6328,-0.6105,-0.6459,-0.7331,-0.85,-0.9405,-1.002,-1.2472,-1.3558,-1.3406,-1.4654,-1.5934,-1.7162,-1.7234,-1.7613,-1.8326,-1.8353,-1.9226,-2.0566,-2.0566,-2.0566,-2.0566,-2.0566,-2.0566,-2.0625,-2.1064,-2.1221,-2.1309,-2.1728,-2.1875,-2.1963,-2.2279,-2.0716,-1.9196,-2.0722,-1.9488,-1.7684,-1.7692,-1.6763,-1.5832,-1.5832,-1.5832,-1.5832,-1.5832,-1.5832,-1.5832,-1.5832,-1.5832,-1.5825,-1.573,-1.4752,-1.3872,-1.3878,-1.2716,-1.1848,-1.1848,-1.0779,-0.9998,-0.9899,-0.8825,-0.8038,-0.8038,-0.8038,-0.8038,-0.8038,-0.8038,-0.8038,-0.8038,-0.8038,-0.8038,-0.8038,-0.8038,-0.8038,-0.8038,-0.8038,-0.8038,-0.8038,-0.8038,-0.8038,-2.4337,0.0,0.0,0.0,0.0,0.0,0.0,0.0,0.0,0.0,0.0,0.0,0.0,0.0,0.0,0.0,0.0,0.0,0.0,0.0,0.0,0.0,0.0,0.0,0.0,0.0,0.0,0.0,-1.3448,-1.2592,-1.2298,-1.0324,-0.824,-0.6167,-0.5942,-0.6649,-0.8217,-0.8349,-0.9628,-1.1955,-1.2748,-1.3454,-1.4223,-1.5618,-1.6412,-1.6808,-1.7464,-1.8056,-1.859,-1.9201,-1.9937,-2.0566,-2.0566,-2.0566,-2.0566,-2.0566,-2.0566,-2.0586,-2.0703,-2.0967,-2.125,-2.1377,-2.1631,-2.1729,-2.1044,-2.049,-1.9939,-1.8694,-1.8026,-1.7505,-1.6574,-1.6015,-1.5832,-1.5832,-1.5832,-1.5832,-1.5832,-1.5832,-1.5832,-1.5832,-1.5832,-1.5534,-1.4561,-1.4166,-1.3584,-1.2624,-1.2139,-1.156,-1.0681,-1.0194,-0.9608,-0.8627,-0.8233,-0.8038,-0.8038,-0.8038,-0.8038,-0.8038,-0.8038,-0.8038,-0.8038,-0.8038,-0.8038,-0.8038,-0.8038,-0.8038,-0.8038,-0.8038,-0.8038,-0.8038,-0.8038,-0.8038,-2.5358,-2.5664,-2.5734,0.0,0.0,0.0,-2.4146,-2.3886,0.0,0.0,0.0,0.0,0.0,0.0,0.0,0.0,0.0,0.0,0.0,0.0,0.0,0.0,0.0,0.0,0.0,0.0,0.0,-1.4665,-1.352,-1.2358,-1.1099,-0.9374,-0.7859,-0.6611,-0.6388,-0.7098,-0.897,-0.9226,-1.0432,-1.2579,-1.4007,-1.504,-1.5802,-1.7494,-1.8247,-1.8315,-1.8824,-1.91,-1.9213,-1.9726,-2.0098,-2.0312,-2.0498,-2.0566,-2.0566,-2.0566,-2.0566,-2.0566,-2.0566,-2.0732,-2.0957,-2.0957,-2.0793,-2.0608,-2.0081,-1.9431,-1.8547,-1.752,-1.7047,-1.6763,-1.6015,-1.5832,-1.5832,-1.5832,-1.5832,-1.5832,-1.5832,-1.5832,-1.5832,-1.5832,-1.5337,-1.4752,-1.407,-1.3006,-1.2037,-1.1263,-1.0583,-0.9998,-0.9213,-0.9118,-0.8821,-0.8038,-0.8038,-0.8233,-0.8825,-0.8825,-0.9019,-0.9604,-0.9114,-0.8825,-0.8825,-0.8336,-0.8038,-0.8038,-0.8038,-0.8038,-0.8038,-0.8038,-0.8038,-0.8038,-0.8038,-0.8038,-2.6245,-2.6533,-2.6533,-2.6533,-2.5804,0.0,-2.4411,-2.3674,-2.2981,0.0,0.0,0.0,0.0,0.0,0.0,0.0,0.0,0.0,0.0,0.0,0.0,0.0,0.0,0.0,0.0,-1.6679,-1.5593,-1.387,-1.3622,-1.2338,-0.9599,-0.8412,-0.7699,-0.7453,-0.725,-0.8,-0.9591,-1.0601,-1.1661,-1.2844,-1.5864,-1.7417,-1.7745,-1.9684,-2.059,-2.059,-2.059,-2.038,-1.9965,-2.0018,-1.9961,-1.9951,-2.0342,-2.0518,-2.0566,-2.0566,-2.0537,-2.0498,-2.0547,-2.0537,-2.0498,-2.0469,-1.9766,-1.902,-1.9119,-1.7737,-1.6238,-1.6802,-1.6408,-1.5832,-1.5832,-1.5805,-1.5792,-1.5818,-1.5805,-1.5792,-1.5818,-1.573,-1.5635,-1.5635,-1.4657,-1.3782,-1.3488,-1.1551,-0.9899,-0.9805,-0.8726,-0.8038,-0.8038,-0.8038,-0.8038,-0.8038,-0.8137,-0.8726,-0.9903,-0.9998,-1.0485,-1.1653,-1.0485,-0.9805,-0.9805,-0.8627,-0.8038,-0.8038,-0.8038,-0.8038,-0.8038,-0.8038,-0.8038,-0.8038,-0.8038,-0.8038,-2.6465,-2.6533,0.0,0.0,0.0,0.0,-2.5016,-2.5343,-2.5512,0.0,0.0,0.0,0.0,0.0,0.0,0.0,0.0,0.0,0.0,0.0,0.0,0.0,0.0,0.0,0.0,-1.5823,-1.4513,-1.4141,-1.3167,-1.199,-1.0565,-1.0183,-0.9453,-0.8411,-0.8801,-0.9479,-1.0321,-1.1727,-1.3397,-1.5392,-1.7001,-1.8341,-1.9456,-2.0228,-2.059,-2.059,-2.059,-2.0582,-2.0499,-2.0809,-2.0516,-1.9922,-2.001,-2.0254,-2.0566,-2.0566,-2.0342,-2.0088,-2.0439,-2.0332,-1.9946,-1.9487,-1.9195,-1.8647,-1.7,-1.6308,-1.6066,-1.584,-1.5785,-1.5832,-1.5832,-1.5658,-1.5538,-1.5772,-1.5651,-1.5545,-1.5778,-1.4949,-1.4262,-1.4262,-1.407,-1.3199,-1.1161,-1.0386,-0.9608,-0.8528,-0.8137,-0.8038,-0.8038,-0.8038,-0.8038,-0.8038,-0.892,-0.9706,-0.9998,-0.9998,-1.0096,-1.0391,-0.9118,-0.8432,-0.8432,-0.8137,-0.8038,-0.8038,-0.8038,-0.8038,-0.8038,-0.8038,-0.8038,-0.8038,-0.8038,-0.8038,0.0,0.0,0.0,-2.6533,0.0,0.0,0.0,-2.535,-2.5293,0.0,0.0,0.0,0.0,0.0,0.0,0.0,0.0,0.0,0.0,0.0,0.0,0.0,0.0,0.0,0.0,-1.5132,-1.3954,-1.3273,-1.2216,-1.1316,-1.0858,-1.0183,-0.9984,-1.019,-1.0264,-1.1002,-1.2546,-1.3545,-1.4911,-1.6595,-1.8327,-1.9624,-2.0465,-2.1431,-2.1865,-2.1865,-2.1865,-2.1604,-2.125,-2.144,-2.1059,-2.0252,-2.0474,-2.0546,-2.0566,-2.0566,-2.0283,-1.998,-2.041,-2.0283,-1.9829,-1.9233,-1.8638,-1.7827,-1.6191,-1.5515,-1.528,-1.523,-1.5391,-1.5645,-1.5792,-1.5718,-1.5651,-1.5792,-1.5718,-1.5651,-1.5798,-1.5337,-1.4465,-1.3204,-1.2909,-1.2231,-1.0391,-0.941,-0.9019,-0.9019,-0.8432,-0.8432,-0.9801,-0.941,-0.9217,-0.9899,-1.0583,-1.1263,-1.1843,-1.194,-1.194,-1.194,-1.0676,-0.9706,-0.9019,-0.8333,-0.8038,-0.8038,-0.8038,-0.8038,-0.8038,-0.8038,-0.8038,-0.8038,-0.8038,-0.8038,0.0,0.0,0.0,0.0,0.0,-2.5259,0.0,0.0,0.0,0.0,0.0,0.0,0.0,0.0,0.0,0.0,0.0,0.0,0.0,0.0,0.0,0.0,0.0,0.0,0.0,-1.5057,-1.4089,-1.298,-1.2029,-1.1502,-1.1668,-1.0578,-1.0719,-1.2284,-1.2069,-1.2941,-1.4937,-1.5605,-1.6493,-1.7604,-1.9517,-2.0658,-2.1116,-2.229,-2.2874,-2.2975,-2.2975,-2.2664,-2.2137,-2.2137,-2.1763,-2.1118,-2.1072,-2.0907,-2.0557,-2.0469,-2.0166,-1.9853,-2.0293,-2.0156,-1.9647,-1.8882,-1.7747,-1.6535,-1.5695,-1.4993,-1.4596,-1.495,-1.5217,-1.5464,-1.5752,-1.5792,-1.5745,-1.5745,-1.5745,-1.5745,-1.5745,-1.5596,-1.4854,-1.2721,-1.2042,-1.1365,-0.9899,-0.8924,-0.8726,-0.9801,-0.9118,-0.9118,-1.1268,-1.0386,-1.0096,-1.1361,-1.175,-1.2431,-1.3776,-1.368,-1.3488,-1.3488,-1.2037,-1.0681,-0.9706,-0.8531,-0.8038,-0.8038,-0.8038,-0.8137,-0.8432,-0.8432,-0.8237,-0.8038,-0.8038,-0.8038,0.0,0.0,0.0,0.0,-2.6008,0.0,0.0,0.0,-2.6245,-2.6321,0.0,0.0,0.0,0.0,0.0,0.0,0.0,0.0,0.0,0.0,0.0,0.0,0.0,0.0,0.0,0.0,-1.5666,-1.4927,-1.4294,-1.4184,-1.4665,-1.3757,-1.3536,-1.4336,-1.529,-1.577,-1.5827,-1.7478,-1.8639,-1.9344,-2.0214,-2.0932,-2.1469,-2.1587,-2.1945,-2.2397,-2.2397,-2.2627,-2.2944,-2.2944,-2.3004,-2.2808,-2.128,-2.0632,-2.0518,-2.0127,-1.9727,-1.9424,-1.9844,-1.9707,-1.9187,-1.7916,-1.6124,-1.446,-1.464,-1.4576,-1.4636,-1.519,-1.5371,-1.5464,-1.5752,-1.5638,-1.5444,-1.5444,-1.5444,-1.5444,-1.5444,-1.4779,-1.407,-1.368,-1.2721,-1.1165,-0.8627,-0.9118,-0.9801,-0.9998,-0.9899,-0.9899,-1.0194,-0.9019,-0.8726,-1.0096,-1.1268,-1.2431,-1.3776,-1.2818,-1.2139,-1.2139,-0.9801,-0.8333,-0.8233,-0.8038,-0.8038,-0.8038,-0.8038,-0.8627,-0.9805,-0.9805,-0.9118,-0.8038,-0.8038,-0.8038,0.0,0.0,0.0,0.0,0.0,0.0,-2.6327,0.0,-2.6533,0.0,0.0,0.0,0.0,0.0,0.0,0.0,-2.5024,0.0,0.0,0.0,0.0,0.0,0.0,0.0,0.0,0.0,0.0,0.0,0.0,-1.5178,-1.518,-1.4807,-1.4947,-1.5765,-1.6478,-1.7136,-1.7687,-1.8691,-1.9372,-1.9728,-2.0741,-2.114,-2.1071,-2.1703,-2.2094,-2.2309,-2.2309,-2.2623,-2.3078,-2.3078,-2.2684,-2.2046,-2.1523,-2.1375,-2.1354,-2.0582,-2.0019,-1.9678,-1.9853,-1.9805,-1.9362,-1.7809,-1.5876,-1.4142,-1.4436,-1.4402,-1.4389,-1.4977,-1.5144,-1.5211,-1.5504,-1.5611,-1.5651,-1.5651,-1.5651,-1.5651,-1.5651,-1.5259,-1.4752,-1.407,-1.3494,-1.2425,-1.0578,-1.0779,-1.1361,-1.2134,-1.097,-1.0583,-1.2037,-1.048,-0.9702,-1.0974,-1.1556,-1.2431,-1.3776,-1.3392,-1.3102,-1.3102,-1.1258,-1.0288,-1.0288,-1.0288,-1.0288,-1.0288,-1.0288,-1.0583,-1.1072,-1.1072,-1.0779,-1.0288,-1.0288,-1.0288,-2.6025,0.0,0.0,0.0,0.0,0.0,0.0,0.0,0.0,0.0,0.0,0.0,0.0,0.0,0.0,0.0,0.0,-2.4062,0.0,0.0,0.0,0.0,0.0,0.0,0.0,0.0,0.0,-1.6393,-1.6358,-1.6276,-1.6112,-1.5974,-1.6401,-1.7316,-1.7911,-1.8593,-1.9279,-1.966,-1.9871,-1.9811,-2.0669,-2.0874,-2.0492,-2.1298,-2.1745,-2.187,-2.202,-2.2397,-2.2865,-2.3015,-2.2488,-2.1629,-2.1788,-2.1865,-2.1699,-2.0755,-2.0185,-1.9893,-1.9785,-1.942,-1.8801,-1.7291,-1.5636,-1.4142,-1.4436,-1.4369,-1.4329,-1.4917,-1.5084,-1.515,-1.5438,-1.5671,-1.5805,-1.5732,-1.5772,-1.5805,-1.5732,-1.5772,-1.5534,-1.4561,-1.4459,-1.4076,-1.3108,-1.2721,-1.2818,-1.3776,-1.194,-1.1361,-1.3584,-1.1648,-1.0583,-1.2231,-1.2431,-1.3011,-1.4268,-1.407,-1.3782,-1.3392,-1.2431,-1.1945,-1.1945,-1.1945,-1.1945,-1.1945,-1.1945,-1.2042,-1.2431,-1.2431,-1.2624,-1.2915,-1.2237,-1.198,0.0,0.0,0.0,-2.6189,0.0,0.0,0.0,0.0,-2.5753,0.0,0.0,0.0,0.0,0.0,-2.6293,-2.5682,0.0,0.0,0.0,0.0,0.0,0.0,0.0,0.0,0.0,0.0,0.0,-1.9268,-1.835,-1.8036,-1.8492,-1.8056,-1.8218,-1.9166,-2.0274,-2.0629,-2.0169,-2.0477,-2.0376,-1.9798,-1.9823,-1.9823,-1.9823,-1.9849,-2.0227,-2.0806,-2.128,-2.1832,-2.2385,-2.2912,-2.2948,-2.258,-2.2071,-2.1729,-2.1314,-2.0297,-1.9922,-1.9853,-1.9443,-1.8179,-1.6673,-1.5993,-1.4977,-1.4142,-1.4436,-1.4509,-1.4629,-1.5217,-1.5384,-1.5451,-1.5738,-1.5818,-1.5758,-1.5478,-1.5625,-1.5752,-1.5471,-1.5631,-1.5825,-1.573,-1.573,-1.573,-1.5635,-1.4657,-1.3872,-1.3872,-1.2716,-1.2334,-1.368,-1.1648,-1.097,-1.3584,-1.3878,-1.4364,-1.5635,-1.4657,-1.3397,-1.2042,-1.1945,-1.1945,-1.1945,-1.1945,-1.1945,-1.1945,-1.1945,-1.2528,-1.3878,-1.3878,-1.4459,-1.5635,-1.3108,-1.2061,0.0,0.0,-2.4531,-2.5624,0.0,0.0,0.0,0.0,0.0,0.0,0.0,0.0,0.0,0.0,-2.6535,-2.4918,-2.454,-2.3886,0.0,0.0,0.0,0.0,0.0,0.0,0.0,0.0,0.0,-1.937,-1.8726,-1.8699,0.0,-1.9325,-1.9504,-2.015,-2.1065,-2.1127,-2.0238,-2.089,-2.074,-1.9811,-2.0258,-2.0245,-1.9811,-2.0258,-2.0527,-2.0756,-2.1255,-2.1794,-2.2347,-2.2912,-2.2407,-2.1346,-2.1375,-2.0834,-2.0066,-2.0279,-2.0342,-2.0245,-1.939,-1.7596,-1.5663,-1.5673,-1.4977,-1.4142,-1.4436,-1.4522,-1.4603,-1.4997,-1.5251,-1.5418,-1.5518,-1.5685,-1.5805,-1.5705,-1.5758,-1.5805,-1.5705,-1.5758,-1.5832,-1.5832,-1.5832,-1.5832,-1.5832,-1.5439,-1.5146,-1.5146,-1.407,-1.3392,-1.3878,-1.2328,-1.1556,-1.2522,-1.2624,-1.3102,-1.4459,-1.4949,-1.4949,-1.4465,-1.4465,-1.4465,-1.4465,-1.4465,-1.4465,-1.4465,-1.4465,-1.4663,-1.5146,-1.5146,-1.5343,-1.5737,-1.486,-1.452,-2.4469,-2.4268,0.0,-2.5109,-2.5071,0.0,-2.5965,0.0,0.0,0.0,0.0,0.0,0.0,0.0,0.0,-2.4676,-2.4591,-2.4178,0.0,-2.2851,0.0,0.0,0.0,0.0,0.0,0.0,-1.9969,-1.938,-1.916,-1.9362,0.0,0.0,-2.0631,-2.1323,-2.1972,-2.1886,-2.0943,-2.1287,-2.1029,-2.0112,-2.0348,-2.0194,-1.9798,-2.0258,-2.0412,-2.0388,-2.0953,-2.1506,-2.2071,-2.2611,-2.1945,-2.0635,-2.1051,-2.0392,-1.9375,-2.0078,-2.0091,-1.9559,-1.8257,-1.6613,-1.5116,-1.5112,-1.465,-1.4122,-1.4309,-1.4509,-1.4716,-1.491,-1.5251,-1.5551,-1.5551,-1.5691,-1.5832,-1.5832,-1.5832,-1.5832,-1.5832,-1.5832,-1.5832,-1.5832,-1.5832,-1.5832,-1.5832,-1.5832,-1.5832,-1.5832,-1.4752,-1.407,-1.4561,-1.3397,-1.2818,-1.3204,-1.3307,-1.359,-1.4459,-1.5337,-1.5832,-1.5832,-1.5832,-1.5832,-1.5832,-1.5832,-1.5925,-1.6139,-1.5932,-1.5932,-1.6139,-1.5932,-1.5832,-1.5832,-1.5832,-1.5832]},{"header":{"parameterUnit":"m.s-1","parameterCategory":1,"la1":30.6,"la2":29.2853,"lo1":-89.7004,"lo2":-87.6739,"dy":0.0162,"dx":0.0183,"nx":112,"ny":82,"refTime":"2023-08-07T12:00:00:Z","depth":0,"parameterNumber":3,"parameterNumberName":"V-component_of_WINDS"},"data":[0.0,0.0,0.0,0.0,0.0,0.0,0.0,0.0,0.0,0.0,0.0,0.0,0.0,0.0,0.0,0.0,0.0,0.0,0.0,0.0,0.0,0.0,0.0,0.0,0.0,0.0,0.0,0.0,0.0,0.0,0.0,0.0,0.0,0.0,0.0,0.0,0.0,0.0,0.0,0.0,0.0,0.0,0.0,0.0,0.0,0.0,0.0,0.0,0.0,0.0,0.0,0.0,0.0,0.0,0.0,0.0,0.0,0.0,0.0,0.0,0.0,0.0,0.0,0.0,0.0,0.0,0.0,0.0,0.0,0.0,0.0,0.0,0.0,0.0,0.0,0.0,0.0,0.0,0.0,0.0,0.0,0.0,0.0,0.0,0.0,0.0,0.0,0.0,0.0,0.0,-3.9547,-3.8936,-3.939,-3.9861,-4.0139,-4.0788,-4.0747,-3.9742,0.0,0.0,0.0,0.0,0.0,0.0,0.0,0.0,0.0,0.0,0.0,0.0,0.0,0.0,0.0,0.0,0.0,0.0,0.0,0.0,0.0,0.0,0.0,0.0,0.0,0.0,0.0,0.0,0.0,0.0,0.0,0.0,0.0,0.0,0.0,0.0,0.0,0.0,0.0,0.0,0.0,0.0,0.0,0.0,0.0,0.0,0.0,0.0,0.0,0.0,0.0,0.0,0.0,0.0,0.0,0.0,0.0,0.0,0.0,0.0,0.0,0.0,0.0,0.0,0.0,0.0,0.0,0.0,0.0,0.0,0.0,0.0,0.0,0.0,0.0,0.0,0.0,0.0,0.0,0.0,0.0,0.0,0.0,0.0,0.0,0.0,0.0,0.0,0.0,0.0,0.0,0.0,0.0,0.0,0.0,0.0,0.0,0.0,0.0,0.0,0.0,0.0,0.0,0.0,-3.8558,-3.9154,-3.9909,-4.037,-4.0422,-4.0537,-4.0841,-4.1393,0.0,0.0,0.0,0.0,0.0,0.0,0.0,0.0,0.0,0.0,0.0,0.0,0.0,0.0,0.0,0.0,0.0,0.0,0.0,0.0,0.0,0.0,0.0,0.0,0.0,0.0,0.0,0.0,0.0,0.0,0.0,0.0,0.0,0.0,0.0,0.0,0.0,0.0,0.0,0.0,0.0,0.0,0.0,0.0,0.0,0.0,0.0,0.0,0.0,0.0,0.0,0.0,0.0,0.0,0.0,0.0,0.0,0.0,0.0,0.0,0.0,0.0,0.0,0.0,0.0,0.0,0.0,0.0,0.0,0.0,0.0,0.0,0.0,0.0,0.0,0.0,0.0,0.0,0.0,0.0,0.0,0.0,0.0,0.0,0.0,0.0,0.0,0.0,0.0,0.0,0.0,0.0,0.0,0.0,0.0,0.0,0.0,0.0,0.0,0.0,0.0,0.0,0.0,-3.8969,-3.8804,-3.9057,-3.9421,-3.9632,-3.9632,-3.9632,-4.0065,-4.1027,-4.1104,0.0,0.0,0.0,0.0,0.0,0.0,0.0,0.0,0.0,0.0,0.0,0.0,0.0,0.0,0.0,0.0,0.0,0.0,0.0,0.0,0.0,0.0,0.0,0.0,0.0,0.0,0.0,0.0,0.0,0.0,0.0,0.0,0.0,0.0,0.0,0.0,0.0,0.0,0.0,0.0,0.0,0.0,0.0,0.0,0.0,0.0,0.0,0.0,0.0,0.0,0.0,0.0,0.0,0.0,0.0,0.0,0.0,0.0,0.0,0.0,0.0,0.0,0.0,0.0,0.0,0.0,0.0,0.0,0.0,0.0,0.0,0.0,0.0,0.0,0.0,0.0,0.0,0.0,0.0,0.0,0.0,0.0,0.0,0.0,0.0,0.0,0.0,0.0,0.0,0.0,0.0,0.0,0.0,0.0,0.0,0.0,0.0,0.0,0.0,0.0,0.0,0.0,-3.9602,-3.9229,-3.8556,-3.8652,-3.8728,-3.8593,-3.8402,-3.8929,-4.0412,-4.0123,0.0,0.0,0.0,0.0,0.0,0.0,0.0,0.0,0.0,0.0,0.0,0.0,0.0,0.0,0.0,0.0,0.0,0.0,0.0,0.0,0.0,0.0,0.0,0.0,0.0,0.0,0.0,0.0,0.0,0.0,0.0,0.0,0.0,0.0,0.0,0.0,0.0,0.0,0.0,0.0,0.0,0.0,0.0,0.0,0.0,0.0,0.0,0.0,0.0,0.0,0.0,0.0,0.0,0.0,0.0,0.0,0.0,0.0,0.0,0.0,0.0,0.0,0.0,0.0,0.0,0.0,0.0,0.0,0.0,0.0,0.0,0.0,0.0,0.0,0.0,0.0,0.0,0.0,0.0,0.0,0.0,0.0,0.0,0.0,0.0,0.0,0.0,0.0,0.0,0.0,0.0,0.0,0.0,0.0,0.0,0.0,0.0,0.0,0.0,0.0,0.0,0.0,-3.9071,-3.9337,-3.744,-3.7945,-3.8243,-3.7735,-3.6953,-3.763,-4.0335,-3.9046,0.0,0.0,0.0,0.0,0.0,0.0,0.0,0.0,0.0,0.0,0.0,0.0,0.0,0.0,0.0,0.0,0.0,0.0,0.0,0.0,0.0,0.0,0.0,0.0,0.0,0.0,0.0,0.0,0.0,0.0,0.0,0.0,0.0,0.0,0.0,0.0,0.0,0.0,0.0,0.0,0.0,0.0,0.0,0.0,0.0,0.0,0.0,0.0,0.0,0.0,0.0,0.0,0.0,0.0,0.0,0.0,0.0,0.0,0.0,0.0,0.0,0.0,0.0,0.0,0.0,0.0,0.0,0.0,0.0,0.0,0.0,0.0,0.0,0.0,0.0,0.0,0.0,0.0,0.0,0.0,0.0,0.0,0.0,0.0,0.0,0.0,0.0,0.0,0.0,0.0,0.0,0.0,0.0,0.0,0.0,0.0,0.0,0.0,0.0,0.0,0.0,0.0,-3.8556,-3.8855,0.0,-3.7885,-3.7878,-3.7332,-3.6992,-3.7642,-3.9627,0.0,0.0,0.0,0.0,0.0,0.0,0.0,0.0,0.0,0.0,0.0,0.0,0.0,0.0,0.0,0.0,0.0,0.0,0.0,0.0,0.0,0.0,0.0,0.0,0.0,0.0,0.0,0.0,0.0,0.0,0.0,0.0,0.0,0.0,0.0,0.0,0.0,0.0,0.0,0.0,0.0,0.0,0.0,0.0,0.0,0.0,0.0,0.0,0.0,0.0,0.0,0.0,0.0,0.0,0.0,0.0,0.0,0.0,0.0,0.0,0.0,0.0,0.0,0.0,0.0,0.0,0.0,0.0,0.0,0.0,0.0,0.0,0.0,0.0,0.0,0.0,0.0,0.0,0.0,0.0,0.0,0.0,0.0,0.0,0.0,0.0,0.0,0.0,0.0,0.0,0.0,0.0,0.0,0.0,0.0,0.0,0.0,0.0,0.0,0.0,0.0,0.0,-3.7561,-3.8372,-3.8704,0.0,-3.7932,-3.769,-3.7521,-3.6769,-3.7166,-3.9165,0.0,0.0,0.0,0.0,0.0,0.0,0.0,0.0,0.0,0.0,0.0,0.0,0.0,0.0,0.0,0.0,0.0,0.0,0.0,0.0,0.0,0.0,0.0,0.0,0.0,0.0,0.0,0.0,0.0,0.0,0.0,0.0,0.0,0.0,0.0,0.0,0.0,0.0,0.0,0.0,0.0,0.0,0.0,0.0,0.0,0.0,0.0,0.0,0.0,0.0,0.0,0.0,0.0,0.0,0.0,0.0,0.0,0.0,0.0,0.0,0.0,0.0,0.0,0.0,0.0,0.0,0.0,0.0,0.0,0.0,0.0,0.0,0.0,0.0,0.0,0.0,0.0,0.0,0.0,0.0,0.0,0.0,0.0,0.0,0.0,0.0,0.0,0.0,0.0,0.0,0.0,0.0,0.0,0.0,0.0,0.0,0.0,0.0,0.0,0.0,0.0,0.0,-3.7832,-3.8606,-3.9036,-3.8756,-3.801,-3.7757,-3.8346,-3.6107,-3.5951,0.0,0.0,0.0,0.0,0.0,0.0,0.0,0.0,0.0,0.0,0.0,0.0,0.0,0.0,0.0,0.0,0.0,0.0,0.0,0.0,0.0,0.0,0.0,0.0,0.0,0.0,0.0,0.0,0.0,0.0,0.0,0.0,0.0,0.0,0.0,0.0,0.0,0.0,0.0,0.0,0.0,0.0,0.0,0.0,0.0,0.0,0.0,0.0,0.0,0.0,0.0,0.0,0.0,0.0,0.0,0.0,0.0,0.0,0.0,0.0,0.0,0.0,0.0,0.0,0.0,0.0,0.0,0.0,0.0,0.0,0.0,0.0,0.0,0.0,0.0,0.0,0.0,0.0,0.0,0.0,0.0,0.0,0.0,0.0,0.0,0.0,0.0,0.0,0.0,0.0,0.0,0.0,0.0,0.0,0.0,0.0,0.0,0.0,0.0,0.0,0.0,0.0,0.0,-3.8681,-3.9984,-4.0733,-4.0428,-3.9662,-3.9121,-3.8917,-3.7343,-3.7083,-3.8839,0.0,0.0,0.0,0.0,0.0,0.0,0.0,0.0,0.0,0.0,0.0,0.0,0.0,0.0,0.0,0.0,0.0,0.0,0.0,0.0,0.0,0.0,0.0,0.0,0.0,0.0,0.0,0.0,0.0,0.0,0.0,0.0,0.0,0.0,0.0,0.0,0.0,0.0,0.0,0.0,0.0,0.0,0.0,0.0,0.0,0.0,0.0,0.0,0.0,0.0,0.0,0.0,0.0,0.0,0.0,0.0,0.0,0.0,0.0,0.0,0.0,0.0,0.0,0.0,0.0,0.0,0.0,0.0,0.0,0.0,0.0,0.0,0.0,0.0,0.0,0.0,0.0,0.0,0.0,0.0,0.0,0.0,0.0,0.0,0.0,0.0,0.0,0.0,0.0,0.0,0.0,0.0,0.0,0.0,0.0,0.0,0.0,0.0,0.0,0.0,0.0,0.0,-3.933,-4.0589,-4.144,-4.1585,-4.0561,-3.9817,-3.9593,-3.8059,-3.7438,-3.8233,0.0,0.0,0.0,0.0,0.0,0.0,0.0,0.0,0.0,0.0,0.0,0.0,0.0,0.0,0.0,0.0,0.0,0.0,0.0,0.0,0.0,0.0,0.0,0.0,0.0,0.0,0.0,0.0,0.0,0.0,0.0,0.0,0.0,0.0,0.0,0.0,0.0,0.0,0.0,0.0,0.0,0.0,0.0,0.0,0.0,0.0,0.0,0.0,0.0,0.0,0.0,0.0,0.0,0.0,0.0,0.0,0.0,0.0,0.0,0.0,0.0,0.0,0.0,0.0,0.0,0.0,0.0,0.0,0.0,0.0,0.0,0.0,0.0,0.0,0.0,0.0,0.0,0.0,0.0,0.0,0.0,0.0,0.0,0.0,0.0,0.0,0.0,0.0,0.0,0.0,0.0,0.0,0.0,0.0,0.0,0.0,0.0,0.0,0.0,0.0,0.0,0.0,-3.99,-4.0813,-4.1654,-4.239,-4.1043,-4.0215,-4.044,-3.8488,-3.7404,-3.7718,0.0,0.0,0.0,0.0,0.0,0.0,0.0,0.0,0.0,0.0,0.0,0.0,0.0,0.0,0.0,0.0,0.0,0.0,0.0,0.0,0.0,0.0,0.0,0.0,0.0,0.0,0.0,0.0,0.0,0.0,0.0,0.0,0.0,0.0,0.0,0.0,0.0,0.0,0.0,0.0,0.0,0.0,0.0,0.0,0.0,0.0,0.0,0.0,0.0,0.0,0.0,0.0,0.0,0.0,0.0,0.0,0.0,0.0,0.0,0.0,-3.9434,0.0,0.0,0.0,0.0,0.0,0.0,0.0,0.0,0.0,0.0,0.0,0.0,0.0,0.0,0.0,0.0,0.0,0.0,0.0,0.0,0.0,0.0,0.0,0.0,0.0,0.0,0.0,0.0,0.0,0.0,0.0,0.0,0.0,0.0,0.0,0.0,0.0,0.0,0.0,0.0,0.0,-4.0744,-4.2321,-4.3466,-4.3633,-4.2427,-4.1668,-4.1701,-3.97,-3.8746,-3.949,-3.8575,0.0,0.0,0.0,0.0,0.0,0.0,0.0,0.0,0.0,0.0,0.0,0.0,0.0,0.0,0.0,0.0,0.0,0.0,0.0,0.0,0.0,0.0,0.0,0.0,0.0,0.0,0.0,0.0,0.0,0.0,0.0,0.0,0.0,0.0,0.0,0.0,0.0,0.0,0.0,0.0,0.0,0.0,0.0,0.0,0.0,0.0,0.0,0.0,0.0,0.0,0.0,0.0,0.0,0.0,0.0,0.0,0.0,0.0,0.0,0.0,-4.1071,0.0,0.0,0.0,0.0,0.0,0.0,0.0,0.0,0.0,0.0,0.0,0.0,0.0,0.0,0.0,0.0,0.0,0.0,0.0,0.0,0.0,0.0,0.0,0.0,0.0,0.0,0.0,0.0,0.0,0.0,0.0,0.0,0.0,0.0,0.0,0.0,0.0,0.0,0.0,0.0,-4.2004,-4.3044,-4.3812,-4.4252,-4.3326,-4.2523,-4.2127,-4.045,-3.9433,-3.9471,-3.8939,0.0,0.0,0.0,0.0,0.0,0.0,0.0,0.0,0.0,0.0,0.0,0.0,0.0,0.0,0.0,0.0,0.0,0.0,0.0,0.0,0.0,0.0,0.0,0.0,0.0,0.0,0.0,0.0,0.0,0.0,0.0,0.0,0.0,0.0,0.0,0.0,0.0,0.0,0.0,0.0,0.0,0.0,0.0,0.0,0.0,0.0,0.0,0.0,0.0,0.0,0.0,0.0,0.0,-4.028,-4.0227,-4.1537,-4.2077,-4.2347,-4.2399,-4.275,-4.265,-4.2138,0.0,0.0,0.0,0.0,0.0,0.0,0.0,0.0,0.0,0.0,0.0,0.0,0.0,0.0,0.0,0.0,0.0,0.0,0.0,0.0,0.0,0.0,0.0,0.0,0.0,-4.2333,-4.2027,0.0,0.0,0.0,0.0,0.0,0.0,0.0,0.0,0.0,0.0,0.0,0.0,-4.2944,-4.3404,-4.3882,-4.4607,-4.3956,-4.3227,-4.2541,-4.1336,-4.0234,-3.9375,-3.9451,-3.9508,0.0,0.0,0.0,0.0,0.0,0.0,0.0,0.0,0.0,0.0,0.0,0.0,0.0,0.0,0.0,0.0,0.0,0.0,0.0,0.0,0.0,0.0,0.0,0.0,0.0,0.0,0.0,0.0,0.0,0.0,0.0,0.0,-3.9046,-3.9142,0.0,0.0,0.0,0.0,0.0,0.0,0.0,0.0,0.0,0.0,0.0,0.0,0.0,-4.0296,-4.2353,-4.1394,-4.0995,-4.1215,-4.2323,-4.2977,-4.3287,-4.606,-4.7341,-4.7285,-4.5993,0.0,-4.3268,-4.3193,0.0,0.0,0.0,0.0,0.0,0.0,0.0,0.0,0.0,0.0,0.0,0.0,0.0,0.0,0.0,0.0,0.0,0.0,0.0,0.0,0.0,0.0,-4.4221,-4.4266,-4.4272,-4.4197,0.0,-4.2838,-4.1801,-4.1544,-4.0966,0.0,0.0,0.0,0.0,0.0,0.0,0.0,-4.2316,-4.3767,-4.4897,-4.5011,-4.4518,-4.4132,-4.4017,-4.3209,-4.2324,-4.1459,-4.0742,-4.0335,-4.0335,-3.9662,0.0,0.0,0.0,0.0,0.0,0.0,0.0,0.0,0.0,0.0,0.0,0.0,0.0,0.0,0.0,0.0,0.0,0.0,0.0,0.0,0.0,0.0,0.0,0.0,0.0,0.0,0.0,0.0,0.0,-3.945,-3.9969,-3.9969,-3.9969,-3.9711,0.0,0.0,0.0,0.0,0.0,0.0,0.0,0.0,0.0,-4.4378,-4.2613,-4.2514,-4.438,-4.6728,-4.6965,-4.5146,-4.5845,-4.6207,-4.6264,-4.7666,-4.8788,-4.9612,-4.8897,-4.8185,-4.7483,-4.6579,-4.6118,-4.6097,0.0,0.0,0.0,0.0,-4.5209,-4.4971,-4.6876,-4.8464,0.0,0.0,0.0,0.0,0.0,0.0,0.0,0.0,0.0,0.0,0.0,0.0,0.0,-4.6445,-4.6828,-4.7191,-4.6811,-4.6122,-4.5042,0.0,-4.2701,-4.2525,-4.2411,0.0,0.0,0.0,0.0,-4.3404,-4.3977,-4.4288,-4.4672,-4.5304,-4.5167,-4.5045,-4.5026,-4.4699,-4.3948,-4.2604,-4.2162,-4.1527,-4.055,-4.0627,-4.0642,0.0,0.0,0.0,0.0,0.0,0.0,0.0,0.0,0.0,0.0,0.0,0.0,0.0,0.0,0.0,0.0,0.0,0.0,0.0,0.0,0.0,0.0,0.0,0.0,0.0,0.0,0.0,0.0,-4.0681,-4.1296,-4.0873,-4.1325,-4.1184,0.0,0.0,0.0,0.0,0.0,0.0,-4.3033,-4.3565,-4.4879,-4.712,-4.5883,-4.5804,-4.7119,-5.1155,-5.1954,-4.9562,-4.9536,-4.9328,-4.8911,-4.8915,-4.9561,-5.0685,-5.0702,-5.0707,-5.0627,-4.9398,-4.8561,-4.8213,-5.0007,-4.8862,-4.6287,-4.6748,-4.6899,-4.7388,-5.0799,-5.1965,-5.1559,-4.9015,0.0,-5.2082,-4.9289,0.0,0.0,0.0,0.0,-4.7824,-4.8324,-4.8573,-4.8723,-4.8837,-4.9313,-4.9567,-4.9028,-4.8615,-4.7578,0.0,-4.4431,-4.4192,-4.3541,0.0,0.0,0.0,0.0,-4.4143,-4.5103,-4.4701,-4.4662,-4.5509,-4.5586,-4.5603,-4.5601,-4.5601,-4.4968,-4.3489,-4.3412,-4.2722,-4.1226,-4.178,-4.172,-4.0854,0.0,0.0,0.0,0.0,0.0,0.0,0.0,0.0,0.0,0.0,0.0,0.0,0.0,0.0,0.0,0.0,0.0,0.0,0.0,0.0,0.0,0.0,0.0,0.0,0.0,0.0,0.0,0.0,0.0,-4.1931,-4.358,0.0,0.0,0.0,0.0,-4.29,-4.3388,-4.4408,-4.6081,-4.6596,-4.7665,-4.9299,-4.9556,-4.9976,-5.057,-5.2289,-5.3103,-5.2938,-5.2943,-5.21,-5.0576,-5.0586,-5.0609,-5.0697,-5.0687,-5.0699,-5.07,-5.0606,-5.0548,-5.0529,-5.0644,-4.9567,-4.8164,-4.9817,-5.0433,-5.0933,-5.4282,-5.544,-5.5421,-5.5264,-5.4722,-5.3933,-5.2549,-5.076,0.0,0.0,-4.8606,-4.849,-5.0259,-4.9432,-4.8856,-5.1681,-5.1471,-5.0606,-5.0587,-4.9489,-4.8261,0.0,-4.6488,-4.5778,-4.5663,0.0,-4.4162,-4.4607,-4.524,-4.5295,-4.4311,-4.4968,-4.5528,-4.5586,-4.5586,-4.5586,-4.5586,-4.5586,-4.5201,-4.4297,-4.4239,-4.3855,-4.3008,-4.3008,-4.2624,-4.1758,-4.1739,0.0,0.0,0.0,0.0,0.0,0.0,0.0,0.0,0.0,0.0,0.0,0.0,0.0,0.0,0.0,0.0,0.0,0.0,0.0,0.0,0.0,0.0,0.0,0.0,0.0,0.0,0.0,0.0,-4.3922,-4.4824,0.0,-4.3603,-4.4288,-4.4854,-4.493,-4.6057,-4.7224,-4.8403,-4.9118,-5.0096,-5.1436,-5.2215,-5.2661,-5.2858,-5.3624,-5.4303,-5.4825,-5.4828,-5.4504,-5.3848,-5.1663,-5.1286,-5.225,-5.1161,-5.1914,-5.3918,-5.3918,-5.2647,-5.0702,-5.0702,-5.0317,-4.9837,-5.0471,-5.2069,-5.4072,-5.5286,-5.5689,-5.5749,-5.6149,-5.6044,-5.5708,-5.5255,-5.3689,-5.2065,-5.2065,-5.2162,-5.2434,-5.3107,-5.2699,-5.2182,-5.2524,-5.2568,-5.2279,-5.1241,-5.06,-5.0201,-5.0041,-4.9038,-4.7932,-4.7047,-4.6574,-4.6096,-4.5561,-4.5697,-4.5711,-4.5305,-4.5465,-4.5602,-4.5601,-4.5586,-4.5586,-4.5586,-4.5586,-4.547,-4.5163,-4.5143,-4.4393,-4.2722,-4.2972,-4.2511,-4.1111,-4.1104,-4.1162,0.0,0.0,0.0,0.0,0.0,0.0,0.0,0.0,0.0,0.0,0.0,0.0,0.0,0.0,0.0,0.0,0.0,0.0,0.0,0.0,0.0,0.0,0.0,0.0,0.0,0.0,-4.5738,-4.543,-4.621,-4.6356,-4.5313,-4.6579,-4.7387,-4.7187,-4.8636,-4.9793,-5.0362,-5.1274,-5.2175,-5.2976,-5.3772,-5.4206,-5.4314,-5.4515,-5.4985,-5.5708,-5.5694,-5.5719,-5.5624,-5.3385,-5.2778,-5.3377,-5.1509,-5.1972,-5.4013,-5.4014,-5.2704,-5.0701,-5.0702,-5.0702,-5.0702,-5.0702,-5.2953,-5.601,-5.6,-5.5996,-5.5962,-5.5784,-5.5711,-5.5763,-5.5958,-5.5367,-5.4606,-5.4606,-5.4938,-5.5269,-5.5269,-5.5172,-5.4899,-5.4138,-5.4287,-5.3989,-5.1754,-5.128,-5.1288,-5.139,-5.0413,-4.9282,-4.8404,-4.7605,-4.6975,-4.6663,-4.6273,-4.6037,-4.6022,-4.5789,-4.5602,-4.5601,-4.5586,-4.5586,-4.5586,-4.5586,-4.549,-4.524,-4.524,-4.4453,-4.2744,-4.3285,-4.2973,-4.155,-4.1219,-4.1316,-4.1797,0.0,0.0,0.0,0.0,0.0,0.0,0.0,0.0,0.0,0.0,0.0,0.0,0.0,0.0,0.0,0.0,0.0,0.0,0.0,0.0,0.0,0.0,0.0,-4.4703,-4.6275,-4.7277,-4.6449,-4.7886,-4.8639,-4.7776,-4.8882,-4.9646,-4.9646,-5.1154,-5.2073,-5.2073,-5.3159,-5.3851,-5.3832,-5.4288,-5.4648,-5.4925,-5.4905,-5.5191,-5.5694,-5.5685,-5.5703,-5.5703,-5.5703,-5.5107,-5.3932,-5.1736,-5.0755,-5.0699,-5.07,-5.072,-5.072,-5.0721,-5.0721,-5.0683,-5.0702,-5.3193,-5.6611,-5.6597,-5.6596,-5.6327,-5.463,-5.4004,-5.4043,-5.4687,-5.5683,-5.6601,-5.6601,-5.6601,-5.6601,-5.6601,-5.6601,-5.6601,-5.6601,-5.6601,-5.5664,-5.2226,-5.1444,-5.1397,-5.1394,-5.0488,-4.9707,-4.9707,-4.7871,-4.6797,-4.793,-4.7168,0.0,-4.6314,-4.5892,-4.5605,-4.5663,-4.5624,-4.5605,-4.5624,-4.5586,-4.5259,-4.4549,-4.4472,-4.4088,-4.3239,-4.4007,-4.402,-4.3066,-4.2258,-4.1854,-4.1854,0.0,0.0,0.0,0.0,0.0,0.0,0.0,0.0,0.0,0.0,0.0,0.0,0.0,0.0,0.0,0.0,0.0,0.0,0.0,0.0,0.0,0.0,-4.8293,-4.843,-4.9226,-4.9843,-4.9896,-5.0136,-5.019,-4.993,-5.079,-5.1334,-5.1334,-5.256,-5.3291,-5.3291,-5.3936,-5.4452,-5.4741,-5.4876,-5.5099,-5.547,-5.5489,-5.5554,-5.5708,-5.5698,-5.5703,-5.5703,-5.5705,-5.5513,-5.5129,-5.3299,-5.1817,-5.0702,-5.0682,-5.0894,-5.1203,-5.1208,-5.1011,-5.0701,-5.0698,-5.3203,-5.6605,-5.6592,-5.6595,-5.6514,-5.6032,-5.418,-5.2383,-5.3808,-5.5351,-5.6601,-5.6601,-5.6601,-5.6601,-5.6601,-5.6601,-5.6601,-5.6601,-5.6601,-5.5996,-5.3769,-5.229,-5.141,-5.1405,-5.0683,-4.998,-4.9746,-4.918,-4.9141,-5.0293,-5.0195,0.0,-4.662,-4.5892,-4.6084,-4.7277,-4.6334,-4.5855,-4.649,-4.5374,-4.4566,-4.4374,-4.3816,-4.3397,-4.3208,-4.3434,-4.315,-4.2316,-4.2585,-4.2739,0.0,0.0,0.0,0.0,0.0,0.0,0.0,0.0,0.0,0.0,0.0,0.0,0.0,0.0,0.0,0.0,0.0,0.0,0.0,0.0,0.0,0.0,-4.914,-5.086,-5.1497,-5.1395,-5.1468,-5.2023,-5.1912,-5.1955,-5.2308,-5.2772,-5.3051,-5.3051,-5.3699,-5.4083,-5.4083,-5.4516,-5.4867,-5.5088,-5.5262,-5.5446,-5.5703,-5.5703,-5.5703,-5.5703,-5.5703,-5.5703,-5.5703,-5.5705,-5.5686,0.0,-5.4665,-5.3359,-5.1873,-5.124,-5.1145,0.0,0.0,0.0,0.0,0.0,-5.2454,-5.4629,-5.6094,-5.5644,-5.4531,-5.5273,-5.3652,-5.1582,-5.2598,-5.3613,-5.4414,-5.4414,-5.5469,-5.6601,-5.6601,-5.6601,-5.6601,-5.6601,-5.623,-5.5488,-5.3984,-5.2461,-5.1406,-5.1406,0.0,0.0,-5.0449,-4.9629,-4.9219,-4.9883,-4.957,-4.8545,-4.6555,-4.593,-4.6046,-4.695,-4.618,-4.5797,-4.6317,-4.5086,0.0,0.0,0.0,-4.2668,-4.2704,-4.2977,0.0,0.0,0.0,-4.3278,-4.3605,0.0,0.0,0.0,-4.4374,-4.4393,0.0,0.0,0.0,0.0,0.0,0.0,0.0,0.0,0.0,0.0,0.0,0.0,0.0,0.0,0.0,0.0,-5.1702,-5.3418,-5.3875,-5.3025,-5.2602,-5.3264,-5.3352,-5.3635,-5.4428,-5.4465,-5.4446,-5.4446,-5.4478,-5.4491,-5.4491,0.0,0.0,0.0,0.0,-5.5703,-5.5703,-5.5703,-5.5703,-5.5703,-5.5742,-5.5742,-5.5703,-5.5728,-5.5766,-5.5803,-5.5555,-5.4652,-5.3244,-5.194,-5.1394,-5.1406,-5.1406,-5.1395,-5.1406,-5.1406,-5.1406,-5.1836,-5.4941,0.0,0.0,-5.3203,-5.293,-5.1992,-5.1992,-5.1719,-5.1484,-5.1875,-5.4219,-5.6601,-5.6601,-5.6523,-5.6445,-5.6445,-5.5664,-5.4609,-5.3516,-5.2285,-5.1406,-5.1406,-5.1406,-5.1406,-5.1406,-4.957,-4.8086,-4.8008,-4.7031,-4.63,-4.6293,-4.6035,-4.5834,-4.5815,0.0,0.0,-4.574,-4.4855,-4.4025,-4.3368,-4.2659,-4.2258,-4.2258,-4.2893,-4.3239,-4.3239,-4.3239,-4.3585,-4.4297,-4.4393,-4.4836,-4.5586,-4.5586,-4.5586,0.0,0.0,0.0,0.0,0.0,0.0,0.0,0.0,0.0,0.0,0.0,0.0,0.0,0.0,0.0,-5.1125,-5.2679,-5.3964,-5.4726,-5.4653,-5.443,-5.427,-5.4258,-5.4314,-5.4484,-5.4277,-5.4094,-5.4094,-5.4343,-5.4495,-5.4495,-5.5202,0.0,-5.5577,-5.5662,-5.5703,-5.5703,-5.5703,-5.5703,-5.5703,0.0,0.0,-5.5705,-5.599,-5.623,-5.634,-5.4708,-5.3178,-5.1799,-5.1523,-5.1399,-5.1398,-5.1398,-5.1396,-5.1406,-5.1406,-5.1406,-5.1504,-5.2168,-5.1953,-5.1465,-5.1797,-5.3574,-5.5586,-5.5586,-5.3633,0.0,-5.4805,-5.6074,-5.6601,-5.6601,-5.6074,-5.5547,-5.5547,-5.5215,-5.4707,-5.4004,-5.2558,-5.1406,-5.1406,-5.1406,-5.1406,-5.1406,-4.9902,-4.8555,-4.8066,-4.7031,-4.6308,-4.6303,-4.6161,-4.6333,-4.7062,-4.6313,-4.599,-4.6605,-4.5201,-4.4239,-4.4102,-4.3932,-4.3855,-4.3855,-4.3989,-4.4066,-4.4066,-4.4066,-4.4143,-4.4297,-4.5009,-4.5432,-4.5586,-4.5586,-4.5586,0.0,0.0,0.0,0.0,0.0,0.0,0.0,0.0,0.0,0.0,0.0,-4.7564,0.0,0.0,-5.1453,-5.3127,-5.4306,-5.515,-5.5595,-5.5653,-5.5428,-5.4886,-5.4979,-5.5088,-5.5088,-5.4955,-5.4859,-5.4859,-5.5014,-5.5112,-5.5112,-5.5481,-5.5703,-5.5703,-5.5703,-5.5703,-5.5703,-5.5703,-5.578,-5.5955,-5.6263,-5.6302,-5.6148,-5.6323,-5.647,-5.6444,-5.368,-5.2077,-5.1406,-5.1401,-5.1394,-5.1406,-5.1406,-5.1406,-5.1406,-5.1406,-5.1406,-5.1406,-5.1406,-5.1406,-5.1406,-5.1406,-5.2578,-5.416,-5.5039,-5.4687,-5.4375,-5.6113,-5.6601,-5.6601,-5.6601,-5.6289,-5.584,-5.539,-5.4863,-5.4258,-5.3516,-5.2324,-5.1406,-5.1406,-5.1406,-5.1269,-5.0879,-4.9746,-4.8808,-4.8496,-4.7226,-4.6308,-4.6308,-4.6174,-4.6274,-4.6752,-4.6198,-4.595,-4.6317,-4.5086,-4.4124,-4.372,-4.4085,-4.4124,-4.372,-4.4085,-4.4297,-4.4297,-4.4297,-4.4509,-4.4951,-4.5374,-4.5586,-4.5586,-4.5586,-4.5586,0.0,0.0,0.0,0.0,0.0,0.0,0.0,0.0,-4.75,-4.8379,-4.916,-5.0097,-5.1449,-5.234,-5.3389,-5.49,-5.5731,-5.6233,-5.6425,-5.6445,-5.6289,-5.5858,-5.5772,-5.5761,-5.5761,-5.5722,-5.5703,-5.5703,-5.5703,-5.5703,-5.5703,-5.5703,-5.5703,-5.5703,-5.5703,-5.5703,-5.5703,-5.5807,-5.6001,-5.6271,-5.6499,-5.659,-5.6612,-5.6598,-5.6414,-5.5918,-5.2773,-5.1406,-5.1406,-5.1406,-5.1406,-5.1406,-5.1406,-5.1406,-5.1406,-5.1406,-5.1406,-5.1406,-5.1406,-5.1406,-5.1406,-5.1406,-5.1562,-5.2012,-5.3418,-5.5137,-5.6601,-5.6601,-5.6601,-5.6601,-5.6601,-5.6601,-5.6367,-5.5449,-5.4473,-5.3516,-5.2637,-5.1894,-5.1406,-5.1406,-5.1406,-5.1191,-5.0547,-4.957,-4.8848,-4.8672,-4.7305,-4.6308,-4.6308,-4.621,-4.6137,-4.6098,-4.5951,-4.5834,-4.5796,-4.5028,-4.4278,-4.3624,-4.4182,-4.4259,-4.3605,-4.4201,-4.4547,-4.4547,-4.4547,-4.4893,-4.5586,-4.5586,-4.5586,-4.5586,-4.5586,-4.5586,-4.4231,-4.4453,-4.5541,-4.8507,-4.8159,-4.8049,0.0,0.0,-5.0898,-5.1777,-5.2637,-5.3281,-5.347,-5.4125,-5.4944,-5.5894,-5.6146,-5.6457,-5.7157,-5.7266,-5.7527,-5.8214,-5.6923,-5.5974,-5.5974,-5.5799,-5.5703,-5.5703,-5.5703,-5.5703,-5.5703,-5.5703,-5.5703,-5.5703,-5.5703,-5.5703,-5.5703,-5.6238,-5.6516,-5.6555,-5.6579,-5.659,-5.6594,-5.6597,-5.5757,-5.418,-5.2246,-5.1406,-5.1406,-5.1406,-5.1406,-5.1406,-5.1406,-5.1406,-5.1406,-5.1406,-5.1406,-5.1406,-5.1406,-5.1406,-5.1406,-5.1406,-5.2129,-5.3047,-5.3223,-5.4844,-5.6601,-5.6601,-5.6601,-5.6601,-5.6601,-5.6601,-5.6328,-5.5215,-5.3867,-5.2617,-5.1738,-5.1465,-5.1406,-5.1406,-5.1406,-5.1367,-5.1289,-4.9941,-4.8633,-4.7851,-4.6914,-4.6308,-4.6308,-4.6288,-4.6229,-4.6111,-4.6083,-4.5988,-4.5815,-4.5603,-4.5413,-4.5316,-4.5393,-4.5413,-4.5316,-4.5413,-4.5451,-4.5451,-4.5451,-4.549,-4.5586,-4.5586,-4.5586,-4.5586,-4.5586,-4.5586,-4.5105,-4.6072,-4.7392,0.0,-4.9353,-5.0552,-5.2423,-5.272,-5.2864,-5.3822,-5.4707,-5.5332,-5.543,-5.5675,-5.6001,0.0,-5.6855,-5.7309,-5.7641,-5.7697,-5.7876,-5.8412,-5.8117,-5.7397,-5.6238,-5.618,-5.6218,-5.6218,-5.6218,-5.6218,-5.6218,-5.6218,-5.6218,-5.6218,-5.6218,-5.6225,-5.6225,-5.6463,-5.6596,-5.6602,-5.6593,-5.6611,-5.66,-5.6607,-5.5098,-5.2441,-5.1719,-5.1406,-5.1406,-5.1406,-5.1016,-5.0488,-5.1133,-5.1113,-5.0762,-5.123,-5.1406,-5.1406,-5.1406,-5.1406,-5.1406,-5.1406,-5.1738,-5.2402,-5.3789,-5.4844,-5.5742,-5.6406,-5.623,-5.5801,-5.5644,-5.5351,-5.4844,-5.3848,-5.3144,-5.2461,-5.1582,-5.1406,-5.1406,-5.1406,-5.1406,-5.125,-5.0781,-5.0117,-4.9199,-4.7812,-4.6855,-4.6308,-4.6308,-4.6308,-4.625,-4.6113,-4.6108,-4.6017,-4.5811,-4.5757,-4.568,-4.5586,-4.5586,-4.5586,-4.5586,-4.5586,-4.5586,-4.5586,-4.5586,-4.5586,-4.5586,-4.5586,-4.5586,-4.5586,-4.5586,-4.5586,-4.5208,0.0,0.0,-4.8024,-4.9831,-5.171,-5.2408,-5.3255,-5.4187,-5.5205,-5.5924,-5.6445,-5.6582,-5.6601,-5.6601,-5.6601,-5.7129,-5.7637,-5.7871,-5.7894,-5.8114,-5.8699,-5.9011,-5.8816,-5.7802,-5.7042,-5.6605,-5.6605,-5.6605,-5.6605,-5.6605,-5.6605,-5.6605,-5.6605,-5.6605,-5.6602,-5.6591,-5.661,-5.6602,-5.6601,-5.6601,-5.6601,-5.6582,-5.5957,-5.4375,-5.209,-5.1601,-5.1406,-5.1406,-5.1406,-5.0918,-5.0195,-5.0566,-5.0449,-5.0137,-5.0723,-5.1133,-5.1406,-5.1406,-5.1406,-5.1406,-5.1406,-5.1406,-5.1758,-5.3691,-5.4453,-5.4863,-5.5859,-5.5683,-5.5,-5.4141,-5.3867,-5.3535,-5.2578,-5.2539,-5.2402,-5.1308,-5.1074,-5.0996,-5.0762,-5.0898,-5.0876,-5.0304,-5.0176,-4.963,-4.8133,-4.7123,-4.6497,-4.6328,-4.6308,-4.6269,-4.6172,-4.6113,-4.6035,-4.5844,-4.5806,-4.5738,-4.5605,-4.5586,-4.5586,-4.5586,-4.5586,-4.5586,-4.5586,-4.5586,-4.5586,-4.5586,-4.5586,-4.5586,-4.5586,-4.5586,-4.5586,0.0,0.0,-4.5363,-4.8095,-4.9463,-5.0684,-5.2717,-5.3951,-5.4953,-5.5978,-5.6291,-5.6445,-5.6582,-5.6601,-5.6601,-5.6601,-5.6621,-5.6933,-5.7773,-5.789,-5.8418,-5.9785,-5.9511,-5.9804,0.0,-5.8535,-5.6601,-5.6601,-5.6601,-5.6601,-5.6601,-5.6601,-5.6601,-5.6601,-5.6601,-5.6601,-5.6601,-5.6601,-5.6601,-5.6601,-5.6601,-5.6601,-5.6523,-5.4316,-5.3535,-5.3828,-5.2129,-5.1406,-5.1406,-5.1406,-5.1387,-5.1191,-4.9609,-4.9277,-4.9726,-4.9746,-5.0449,-5.1406,-5.1406,-5.1406,-5.1406,-5.1406,-5.1406,-5.1562,-5.248,-5.3359,-5.416,-5.4785,-5.4922,-5.4394,-5.2109,-5.2363,-5.293,-5.1719,-5.209,-5.2246,-5.0586,-5.0234,-4.998,-4.9141,-4.9668,-5.0219,-5.0207,-5.0086,-4.97,-4.8808,-4.7804,-4.6957,-4.6386,-4.6308,-4.6308,-4.6289,-4.6172,-4.6041,-4.5907,-4.5844,-4.5738,-4.5605,-4.5586,-4.5586,-4.5586,-4.5586,-4.5586,-4.5586,-4.5586,-4.5586,-4.5586,-4.5586,-4.5586,-4.5586,-4.5586,-4.5586,-4.259,0.0,-4.5897,-4.7996,-4.9506,-5.112,-5.3509,-5.4395,-5.4972,-5.5994,-5.5397,-5.4685,-5.4723,-5.4731,-5.4718,-5.4629,-5.6035,-5.7232,-5.7524,-5.7102,-5.7007,-5.7675,-5.7578,0.0,0.0,0.0,0.0,-5.6601,-5.6601,-5.6601,-5.6601,-5.6601,-5.6601,-5.6601,-5.6601,-5.6601,-5.6601,-5.6601,-5.5449,-5.3144,-5.3144,-5.3144,-5.3125,-5.2363,-5.2109,-5.2246,-5.1641,-5.1406,-5.1406,-5.1406,-5.1406,-5.1113,-4.8281,-4.7988,-4.918,-4.918,-4.916,-4.9277,-5.0254,-5.0605,-5.0683,-5.123,-5.1406,-5.1562,-5.2441,-5.2891,-5.3301,-5.4082,-5.3887,-5.3262,-5.2461,-5.2129,-5.1894,-5.1504,-5.1211,-5.1003,-5.0886,-5.0442,-4.9959,-4.9575,-5.0192,-5.0611,-5.004,-5.039,-5.024,-4.8789,-4.7294,-4.6263,-4.6066,-4.6039,-4.6039,-4.6039,-4.6,-4.5924,-4.5838,-4.5822,-4.5738,-4.5605,-4.5586,-4.5586,-4.5586,-4.5586,-4.5586,-4.5586,-4.5586,-4.5586,-4.5586,-4.5586,-4.5586,-4.5586,-4.5362,-4.5282,-4.2644,-4.4233,-4.584,-4.7678,-4.8881,-5.0251,-5.2701,-5.3549,-5.4126,-5.5145,-5.4507,-5.3703,-5.3414,-5.336,-5.3205,-5.2778,-5.4342,-5.5617,-5.5622,-5.5156,-5.4917,-5.5151,-5.5667,-5.5273,0.0,0.0,0.0,-5.6601,-5.6601,-5.6601,-5.6601,-5.6601,-5.6035,-5.4785,-5.4746,-5.4746,-5.4746,-5.4746,-5.3613,-5.1406,-5.1406,-5.1406,-5.1406,-5.1406,-5.1074,-5.0527,-5.0703,-5.0781,-5.082,-5.123,-5.1406,-5.1055,-4.7637,-4.6973,-4.7969,-4.7969,-4.7734,-4.7598,-4.8945,-4.9551,-4.9824,-5.0332,-5.0723,-5.1074,-5.1641,-5.2226,-5.2754,-5.3008,-5.2891,-5.2637,-5.2324,-5.1816,-5.1328,-5.1035,-5.0801,-5.0578,-5.0342,-4.9913,-4.9406,-4.8949,-4.9317,-4.9627,-4.9375,-4.9757,-4.9606,-4.8155,-4.6709,-4.5813,-4.5891,-4.5891,-4.5891,-4.5891,-4.5891,-4.586,-4.5813,-4.5796,-4.5738,-4.5605,-4.5586,-4.5586,-4.5586,-4.5586,-4.5586,-4.5586,-4.5586,-4.5531,-4.5419,-4.5419,-4.5362,-4.5243,-4.5011,-4.4919,-4.3681,-4.4568,-4.5066,-4.7144,-4.7656,-4.8262,-5.049,-5.1664,-5.2527,-5.3524,-5.3663,-5.3359,0.0,0.0,-5.2127,-5.1222,-5.1876,-5.2512,-5.2509,-5.2432,-5.2433,0.0,0.0,0.0,0.0,0.0,0.0,-5.6347,0.0,-5.6601,-5.6601,-5.6601,-5.5,-5.1504,-5.1406,-5.1406,-5.1406,-5.123,-5.123,-5.1406,-5.1406,-5.1406,-5.1387,-5.1211,-5.0273,-4.8808,-4.9316,-4.9531,-4.9609,-5.0683,-5.1133,-5.082,-4.7578,-4.6308,-4.6308,-4.6308,-4.6308,-4.6445,-4.7539,-4.832,-4.8848,-4.8887,-4.9492,-5.0195,-5.0195,-5.1348,-5.2461,-5.1621,-5.1992,-5.2441,-5.1601,-5.1406,-5.1191,-5.0391,-5.0781,-5.0859,-4.9125,-4.8719,-4.8409,-4.7433,-4.7219,-4.7468,-4.8337,-4.8375,-4.797,-4.7048,-4.6201,-4.572,-4.5873,-4.5873,-4.5873,-4.5873,-4.5873,-4.5853,-4.5796,-4.5796,-4.5738,-4.5605,-4.5586,-4.5586,-4.5586,-4.5586,-4.5586,-4.5586,-4.5586,-4.5419,-4.5096,-4.5074,-4.4919,-4.458,-4.458,-4.4553,-4.334,-4.4084,-4.4681,-4.6512,-4.7146,-4.796,-5.0448,-5.1241,-5.1741,-5.2641,-5.191,-5.081,0.0,0.0,0.0,-5.0875,-5.2588,0.0,-5.3972,-5.2856,0.0,-5.2222,0.0,-5.2324,-5.3713,-5.5511,0.0,0.0,-5.514,-5.6601,-5.6601,-5.6601,-5.5,-5.1504,-5.1406,-5.1406,-5.1406,-4.8867,-4.8887,-5.1406,-5.1406,-5.1406,-5.1308,-4.8769,-4.7363,-4.6973,-4.7109,-4.7168,-4.7187,-4.748,-4.7598,-4.7519,-4.6641,-4.6308,-4.6308,-4.6308,-4.6308,-4.6348,-4.6621,-4.7266,-4.8047,-4.8691,-4.9492,-5.0195,-5.0195,-5.0918,-5.1699,-5.1465,-5.1562,-5.168,-5.1465,-5.1406,-5.1191,-5.0391,-5.0275,-5.0187,-4.9647,-4.8941,-4.8316,-4.7952,-4.7394,-4.724,-4.8048,-4.8182,-4.7875,-4.7028,-4.6721,-4.6355,-4.574,-4.568,-4.568,-4.568,-4.568,-4.568,-4.5643,-4.5643,-4.5624,-4.5586,-4.5586,-4.5586,-4.5586,-4.5586,-4.5586,-4.5586,-4.5342,-4.518,-4.5096,-4.4849,-4.4682,-4.458,-4.429,-4.4146,-4.3571,-4.4246,-4.4614,-4.5617,-4.6294,-4.712,-4.86,-4.9582,-5.0215,-5.0336,-4.997,0.0,-4.822,0.0,0.0,0.0,0.0,0.0,-5.2779,-5.1664,-5.0971,0.0,-5.1376,0.0,-5.2482,-5.4216,-5.484,0.0,-5.5497,-5.6601,-5.6601,-5.5156,-5.3418,-5.1465,-5.1406,-5.0683,-4.918,-4.7266,-4.7266,-4.916,-4.916,-4.9941,-5.1289,-4.7851,-4.6562,-4.7012,0.0,-4.6308,-4.6308,-4.6308,-4.6308,-4.6308,-4.6308,-4.6308,-4.6308,-4.6308,-4.6308,-4.6308,-4.6308,-4.6621,-4.7109,-4.7598,-4.8613,-4.9629,-4.9629,-5.0469,-5.1406,-5.1406,-5.1406,-5.1406,-5.1406,-5.1406,-5.1091,-4.9835,-4.9782,-4.9735,-4.8783,-4.816,-4.7624,-4.7105,-4.6951,-4.6932,-4.699,-4.7317,-4.7298,-4.6451,-4.6336,-4.6144,-4.5663,-4.5586,-4.5586,-4.5586,-4.5586,-4.5586,-4.5586,-4.5586,-4.5586,-4.5586,-4.5586,-4.5586,-4.5586,-4.5476,-4.5381,-4.5381,-4.5052,-4.4781,-4.4612,-4.4428,-4.4252,-4.4125,-4.3899,-4.3772,-4.4051,-4.4723,-4.4749,-4.4938,-4.5541,-4.6131,-4.6393,-4.7617,-4.8496,-4.7754,0.0,-4.8418,-4.7402,-4.7931,-4.8519,-4.851,0.0,-4.9933,-5.0818,-5.0164,-4.9837,-5.0625,-5.1434,-5.1915,-5.1896,-5.2685,-5.395,-5.5695,-5.6296,-5.64,-5.5937,-5.3047,-5.1191,-5.0742,-5.0723,-4.9297,-4.6328,-4.6308,-4.6308,-4.6308,-4.6308,-4.7851,-5.0625,-4.7891,-4.7051,-4.7715,0.0,0.0,-4.6308,-4.6308,-4.6308,-4.6308,-4.6308,-4.6308,-4.6308,-4.6308,-4.6308,-4.6308,-4.6308,-4.6308,-4.6308,-4.6308,-4.7402,-4.875,-4.8867,-5.0,-5.1269,-5.1367,-5.1406,-5.1387,-5.1269,-5.1227,-5.0752,-4.8952,-4.9176,-4.9294,-4.7547,-4.72,-4.691,-4.5815,-4.6201,-4.649,-4.572,-4.622,-4.6471,-4.5701,-4.5586,-4.5586,-4.5586,-4.5586,-4.5586,-4.5586,-4.5586,-4.5586,-4.5586,-4.5586,-4.5586,-4.5586,-4.5586,-4.5586,-4.5586,-4.5282,-4.5096,-4.5096,-4.4707,-4.4364,-4.4016,-4.3955,-4.3772,-4.3497,-4.3497,-4.3497,-4.4428,-4.4868,-4.4958,-4.5697,-4.5891,-4.6169,-4.7006,-4.7441,0.0,0.0,-4.7715,-4.7519,-4.6504,-4.761,-4.8847,-4.9442,0.0,0.0,0.0,0.0,-5.0529,0.0,0.0,0.0,0.0,0.0,0.0,0.0,0.0,-5.5352,-5.246,-5.1738,-5.0098,-4.7266,-4.7187,-4.6894,-4.6308,-4.6308,-4.6308,-4.6308,-4.6308,-4.6601,-4.7207,-4.8066,-4.7773,-4.6582,-4.6387,0.0,-4.6308,-4.6308,-4.6308,-4.6308,-4.6308,-4.6308,-4.6308,-4.6308,-4.6308,-4.6308,-4.6308,-4.6308,-4.6308,-4.6308,-4.6992,-4.7969,-4.8672,-4.9609,-5.0547,-5.1211,-5.1406,-5.125,-5.0586,-5.0322,-4.9799,-4.8039,-4.8121,-4.8488,-4.8144,-4.8009,-4.7471,-4.5893,-4.572,-4.5778,-4.5624,-4.572,-4.5759,-4.5605,-4.5586,-4.5586,-4.5586,-4.5586,-4.5586,-4.5586,-4.5586,-4.5586,-4.5586,-4.5586,-4.5586,-4.5586,-4.5586,-4.5586,-4.5586,-4.5282,-4.5096,-4.5096,-4.4436,-4.4058,-4.4016,-4.3726,-4.3582,-4.3497,-4.3497,-4.3497,-4.444,-4.455,-4.4369,-4.5163,-4.531,-4.5299,-4.5405,0.0,0.0,0.0,-4.5937,-4.623,-4.6211,-4.7207,0.0,0.0,0.0,0.0,0.0,0.0,0.0,0.0,0.0,0.0,0.0,0.0,0.0,0.0,0.0,-5.3165,-5.1489,-4.9712,-4.7988,-4.6348,-4.6308,-4.6308,-4.6308,-4.6308,-4.6308,-4.6308,-4.6308,-4.6308,-4.6328,-4.7099,-4.7241,-4.6833,-4.6326,0.0,-4.6084,-4.6084,-4.6134,-4.6191,-4.6191,-4.623,-4.6308,-4.6308,-4.6308,-4.6308,-4.6308,-4.6308,-4.6286,-4.6215,-4.684,-4.7676,-4.8105,-4.9141,-5.0273,-5.0664,-5.1074,-5.1304,-5.0918,-5.0416,-4.9656,-4.8311,-4.7428,-4.6892,-4.6894,-4.6836,-4.6547,-4.5759,-4.5586,-4.5586,-4.5586,-4.5586,-4.5586,-4.5586,-4.5586,-4.5586,-4.5586,-4.5438,-4.5419,-4.5586,-4.5586,-4.5586,-4.5586,-4.5586,-4.5586,-4.5586,-4.5438,-4.5342,-4.5342,-4.4811,-4.4535,-4.4535,-4.4016,-4.3758,-4.3758,-4.3563,-4.3497,-4.3497,-4.3497,-4.3497,-4.4257,-4.4206,-4.3978,-4.4564,-4.472,-4.4549,-4.3993,-4.4355,0.0,0.0,-4.4238,-4.498,-4.5859,0.0,-4.7344,0.0,-4.8767,0.0,0.0,0.0,0.0,0.0,0.0,0.0,0.0,0.0,0.0,0.0,0.0,0.0,-5.0336,-4.7768,-4.6308,-4.6308,-4.6308,-4.6308,-4.6308,-4.6308,-4.6308,-4.6308,-4.6195,-4.6179,-4.6214,-4.6084,-4.6417,-4.7041,-4.6242,0.0,0.0,-4.5899,-4.5971,-4.6105,-4.6092,-4.6172,-4.6308,-4.6308,-4.6308,-4.6308,-4.6308,-4.6284,-4.6245,-4.6134,-4.6649,-4.7344,-4.7475,-4.8499,-4.968,-5.0047,-5.0596,-5.1015,-5.0855,-5.0216,-4.935,-4.8158,-4.6852,-4.5817,-4.5624,-4.574,-4.5817,-4.5624,-4.5586,-4.5586,-4.5586,-4.5586,-4.5586,-4.5586,-4.555,-4.5495,-4.5495,-4.5201,-4.5096,-4.5362,-4.54,-4.54,-4.54,-4.54,-4.54,-4.54,-4.514,-4.4988,-4.4988,-4.4354,-4.4016,-4.4016,-4.3679,-4.3497,-4.3497,-4.3497,-4.3497,-4.3497,-4.3497,-4.3497,-4.3942,-4.419,-4.4641,-4.4762,-4.4752,-4.4703,-4.4703,0.0,0.0,-4.3857,-4.3769,-4.4082,-4.4961,-4.5176,-4.5781,0.0,0.0,-4.7263,0.0,0.0,0.0,0.0,0.0,0.0,0.0,0.0,0.0,0.0,0.0,0.0,-4.691,-4.6464,-4.6308,-4.6308,-4.6308,-4.6308,-4.6308,-4.6308,-4.6308,-4.6289,-4.5869,-4.5758,-4.5928,-4.5856,-4.5893,-4.6026,-4.5943,0.0,0.0,-4.5885,-4.5976,-4.6104,-4.6093,-4.6172,-4.6308,-4.6308,-4.6308,-4.6308,-4.6308,-4.6215,-4.6124,-4.61,-4.6241,-4.6522,-4.708,-4.7439,-4.799,-4.9566,-4.9993,-4.9799,-4.9122,-4.8698,-4.8007,-4.6277,-4.6317,-4.6567,-4.5759,-4.622,-4.6547,-4.574,-4.5586,-4.5586,-4.5586,-4.5586,-4.5586,-4.5586,-4.5342,-4.5159,-4.5159,-4.4849,-4.4657,-4.4682,-4.4682,-4.4682,-4.4682,-4.4682,-4.4682,-4.4682,-4.4657,-4.465,-4.465,-4.4233,-4.4016,-4.4016,-4.3679,-4.3497,-4.3497,-4.3497,-4.3497,-4.3497,-4.3497,-4.3497,-4.4161,-4.4189,-4.416,-4.4616,-4.3552,-4.2654,-4.3814,0.0,-4.2599,-4.2856,-4.293,-4.3183,-4.4062,-4.4648,-4.5377,0.0,0.0,0.0,0.0,0.0,0.0,0.0,0.0,0.0,0.0,0.0,0.0,0.0,0.0,0.0,-4.6042,-4.5877,-4.6003,-4.6289,-4.6308,-4.6303,-4.6298,-4.6298,-4.6152,-4.5874,-4.5803,-4.58,-4.5834,-4.5819,-4.5823,-4.5834,-4.5757,0.0,0.0,-4.5719,-4.5815,-4.5979,-4.5985,-4.6111,-4.6308,-4.6308,-4.6308,-4.6286,-4.6216,-4.6151,-4.6084,-4.5969,-4.5979,-4.6104,-4.6337,-4.6823,-4.7424,-4.8125,-4.8643,-4.8943,-4.8649,-4.8431,-4.7853,-4.6026,-4.6278,-4.6663,-4.5778,-4.5874,-4.6009,-4.5663,-4.5586,-4.5586,-4.5586,-4.5586,-4.5531,-4.5322,-4.518,-4.503,-4.4825,-4.4455,-4.4233,-4.4233,-4.4474,-4.458,-4.458,-4.458,-4.458,-4.458,-4.4373,-4.4233,-4.4233,-4.3881,-4.3693,-4.3693,-4.3563,-4.3497,-4.3497,-4.3497,-4.3497,-4.3497,-4.3497,-4.3497,-4.3386,-4.3392,-4.326,-4.3805,-4.237,-4.1232,0.0,0.0,-4.114,-4.1796,-4.1939,-4.2271,-4.3403,-4.4106,-4.4874,0.0,0.0,-4.5973,0.0,0.0,0.0,0.0,0.0,0.0,0.0,0.0,0.0,0.0,0.0,0.0,0.0,-4.6162,-4.5745,-4.6089,-4.6222,-4.6248,-4.6182,-4.6114,-4.5924,-4.5603,-4.5739,-4.5802,-4.5738,-4.5738,-4.5738,-4.5738,0.0,0.0,0.0,-4.5586,-4.5719,-4.5888,-4.5897,-4.6055,-4.6308,-4.6308,-4.6308,-4.6282,-4.6151,-4.6065,-4.6007,-4.5853,-4.5815,-4.5808,-4.5815,-4.6264,-4.6833,-4.7101,-4.7599,-4.8121,-4.8347,-4.7951,-4.7239,-4.622,-4.6259,-4.6355,-4.572,-4.5586,-4.5586,-4.5586,-4.5586,-4.5568,-4.5476,-4.5438,-4.5342,-4.4988,-4.4853,-4.4688,-4.4428,-4.4076,-4.3849,-4.3849,-4.4125,-4.428,-4.428,-4.428,-4.428,-4.428,-4.4004,-4.3849,-4.3849,-4.3631,-4.3497,-4.3497,-4.3497,-4.3497,-4.3497,-4.3497,-4.3497,-4.3497,-4.3497,-4.3497,-4.113,-4.1472,-4.203,-4.211,-4.1512,-4.111,0.0,0.0,-4.0887,-4.0821,-4.0821,-4.1346,-4.3089,-4.3411,-4.4003,-4.5821,0.0,0.0,0.0,0.0,0.0,0.0,0.0,0.0,0.0,0.0,0.0,0.0,0.0,0.0,0.0,-4.7451,-4.5607,-4.5603,-4.6057,-4.618,-4.5918,-4.5713,-4.5603,-4.5603,-4.5603,-4.5603,-4.5586,-4.5586,-4.5586,0.0,0.0,0.0,0.0,-4.5586,-4.5719,-4.5888,-4.5897,-4.6055,-4.6308,-4.6308,-4.6308,-4.6282,-4.6151,-4.6007,-4.5892,-4.5815,-4.5719,-4.5586,-4.5603,-4.5699,-4.5988,-4.6852,-4.7101,-4.7274,-4.7913,-4.6874,-4.5836,-4.6701,-4.622,-4.5605,-4.5586,-4.5586,-4.5586,-4.5586,-4.5586,-4.5495,-4.5161,-4.5096,-4.4988,-4.4676,-4.4261,-4.3998,-4.4016,-4.3726,-4.3532,-4.3532,-4.3532,-4.3513,-4.3513,-4.3513,-4.3513,-4.3513,-4.3532,-4.3532,-4.3532,-4.3479,-4.3497,-4.3497,-4.3497,-4.3497,-4.3497,-4.3497,-4.3497,-4.3497,-4.3497,-4.3497,-3.963,-4.0048,-4.0354,-4.0389,-3.976,-3.9496,-4.0945,0.0,-4.0159,-4.0694,-4.0791,-4.1158,-4.229,-4.299,-4.3685,-4.4588,0.0,0.0,0.0,0.0,0.0,0.0,0.0,0.0,0.0,0.0,0.0,0.0,0.0,0.0,0.0,-4.9683,-4.8026,-4.5663,-4.5754,-4.5776,-4.5699,-4.5632,-4.5586,-4.5586,-4.5586,-4.5586,-4.5586,-4.5586,0.0,0.0,0.0,0.0,0.0,-4.5586,-4.5699,-4.583,-4.5835,-4.5962,-4.6152,-4.6152,-4.6153,-4.6143,-4.5999,-4.5916,-4.5815,-4.5699,-4.5624,-4.5586,-4.5586,-4.5624,-4.5719,-4.6007,-4.6065,-4.6123,-4.6336,-4.6855,-4.7086,-4.622,-4.6682,-4.699,-4.5836,-4.5419,-4.5243,-4.5243,-4.5055,-4.4877,-4.4776,-4.4776,-4.4631,-4.4233,-4.4087,-4.3924,-4.3712,-4.3582,-4.3497,-4.3497,-4.3497,-4.3497,-4.3497,-4.3497,-4.3497,-4.3497,-4.3497,-4.3497,-4.3497,-4.3497,-4.3597,-4.3836,-4.3631,-4.3612,-4.3849,-4.3631,-4.3497,-4.3532,-4.3726,-4.3726,0.0,-3.8316,-3.881,-3.9221,-3.8687,0.0,0.0,0.0,-3.9719,-4.0523,-4.0947,-4.1431,-4.2319,-4.3167,-4.3939,-4.4557,-4.5247,0.0,0.0,0.0,0.0,0.0,0.0,0.0,0.0,0.0,0.0,0.0,0.0,0.0,0.0,-4.9236,-4.7543,-4.5649,-4.5608,-4.5586,-4.5586,-4.5586,-4.5586,-4.5586,-4.5586,-4.5586,-4.5586,-4.5586,0.0,0.0,0.0,0.0,0.0,-4.5586,-4.568,-4.5813,-4.58,-4.5878,-4.6021,-4.6015,-4.6029,-4.6007,-4.5893,-4.5849,-4.5815,-4.5719,-4.568,-4.568,-4.5605,-4.5586,-4.5586,-4.5586,-4.5586,-4.5682,-4.6009,-4.6624,-4.6971,-4.6259,-4.6532,-4.6685,-4.5649,-4.514,-4.4919,-4.4919,-4.4732,-4.4553,-4.4419,-4.4373,-4.4252,-4.3849,-4.3804,-4.3758,-4.3513,-4.3497,-4.3497,-4.3497,-4.3497,-4.3497,-4.3497,-4.3497,-4.3497,-4.3497,-4.3631,-4.3693,-4.3693,-4.3836,-4.4004,-4.4204,-4.3849,-4.3804,-4.4016,-4.3804,-4.3693,-4.3693,-4.4046,-4.4106,0.0,-3.6526,0.0,0.0,0.0,0.0,0.0,0.0,0.0,-4.0284,-4.1075,-4.192,-4.2862,-4.3611,-4.4441,-4.5445,0.0,0.0,0.0,0.0,0.0,0.0,0.0,0.0,0.0,0.0,0.0,0.0,0.0,0.0,0.0,-4.6596,-4.4815,-4.543,-4.5515,-4.5568,-4.5586,-4.5586,-4.5586,-4.5586,-4.5586,-4.5586,-4.5586,-4.5586,0.0,0.0,0.0,0.0,0.0,-4.5586,-4.568,-4.5796,-4.5796,-4.5834,-4.5885,-4.5894,-4.5891,-4.5881,-4.5812,-4.5834,-4.5873,-4.5813,-4.5794,-4.5757,-4.5624,-4.5586,-4.5586,-4.5586,-4.5586,-4.5778,-4.6605,-4.6222,-4.5837,-4.6588,-4.5934,-4.5132,-4.5094,-4.48,-4.4553,-4.4553,-4.4527,-4.4419,-4.4046,-4.3955,-4.3849,-4.3548,-4.3497,-4.3497,-4.3497,-4.3497,-4.3497,-4.3497,-4.3497,-4.3497,-4.3497,-4.3513,-4.3548,-4.3548,-4.3849,-4.4028,-4.4028,-4.4401,-4.4606,-4.465,-4.4261,-4.4058,-4.4028,-4.4028,-4.4028,-4.4058,-4.4447,-4.4606,-3.6213,0.0,-3.6281,-3.6532,-3.7565,-3.8575,0.0,0.0,-3.9891,-3.9844,0.0,-4.058,-4.2056,-4.2284,-4.2962,0.0,0.0,0.0,0.0,0.0,0.0,0.0,0.0,0.0,0.0,0.0,0.0,0.0,0.0,0.0,0.0,-4.4271,-4.3849,-4.3995,-4.4687,-4.5246,-4.5586,-4.5586,-4.5586,-4.5586,-4.5586,-4.5586,-4.5586,-4.5586,0.0,0.0,0.0,0.0,-4.5586,-4.5586,-4.5605,-4.5643,-4.5643,-4.5719,-4.5832,-4.5835,-4.5827,-4.5812,-4.5811,-4.5815,-4.583,-4.5819,-4.5727,-4.5624,-4.5605,-4.5586,-4.5586,-4.5586,-4.5586,-4.5643,-4.5836,-4.6033,-4.6025,-4.5623,-4.5593,-4.5464,-4.484,-4.4401,-4.4146,-4.4146,-4.3943,-4.3744,-4.3612,-4.3631,-4.3597,-4.3513,-4.3497,-4.3497,-4.3497,-4.3497,-4.3497,-4.3497,-4.3497,-4.3497,-4.3497,-4.3726,-4.3881,-4.3881,-4.4252,-4.4474,-4.4474,-4.4553,-4.4707,-4.4985,-4.4877,-4.4732,-4.4474,-4.4474,-4.4474,-4.4474,-4.4806,-4.4849,-3.6783,-3.6176,-3.5637,-3.629,-3.7149,-3.7967,-3.8431,0.0,0.0,0.0,0.0,0.0,0.0,0.0,0.0,0.0,0.0,0.0,0.0,0.0,0.0,0.0,0.0,0.0,0.0,0.0,0.0,0.0,0.0,0.0,0.0,-4.3491,-4.3591,-4.3793,-4.4411,-4.4916,-4.5285,-4.5494,-4.5586,-4.5586,-4.5586,-4.5586,-4.5586,-4.5586,-4.5586,0.0,0.0,0.0,-4.5586,-4.5586,-4.5586,-4.5586,-4.5586,-4.5624,-4.5719,-4.5719,-4.5719,-4.5719,-4.5719,-4.5745,-4.5815,-4.5791,-4.5738,-4.568,-4.5605,-4.5586,-4.5586,-4.5586,-4.5495,-4.5362,-4.5362,-4.5442,-4.5404,-4.4967,-4.4926,-4.4843,-4.4412,-4.4016,-4.3772,-4.3772,-4.3612,-4.3497,-4.3497,-4.3497,-4.3497,-4.3497,-4.3497,-4.3497,-4.3497,-4.3497,-4.3497,-4.3497,-4.3497,-4.3497,-4.3497,-4.3974,-4.4204,-4.3998,-4.4508,-4.4825,-4.4825,-4.4966,-4.4988,-4.4872,-4.503,-4.483,-4.4337,-4.4657,-4.4732,-4.4624,-4.4943,-4.4988,-3.7393,-3.6376,-3.5532,-3.6869,-3.7047,-3.7242,-3.8546,0.0,0.0,0.0,0.0,0.0,0.0,0.0,0.0,0.0,0.0,0.0,0.0,0.0,0.0,0.0,0.0,0.0,0.0,0.0,0.0,0.0,0.0,0.0,0.0,-4.3548,-4.3749,-4.4073,-4.4402,-4.4651,-4.4748,-4.5304,-4.5568,-4.5513,-4.5568,-4.5586,-4.5586,-4.5586,-4.5586,0.0,0.0,0.0,-4.5586,-4.5586,-4.5586,-4.5586,-4.5586,-4.5586,-4.5586,-4.5586,-4.5586,-4.5586,-4.5605,-4.5692,-4.5777,-4.5786,-4.5741,-4.5685,-4.5551,-4.5495,-4.5438,-4.5438,-4.5263,-4.5096,-4.5052,-4.4757,-4.4501,-4.4501,-4.4223,-4.3924,-4.3924,-4.3693,-4.3497,-4.3497,-4.3497,-4.3497,-4.3497,-4.3497,-4.3497,-4.3497,-4.3497,-4.3497,-4.3497,-4.3497,-4.3497,-4.3497,-4.3497,-4.3497,-4.3497,-4.4125,-4.4346,-4.3998,-4.4738,-4.514,-4.5096,-4.5322,-4.5182,-4.4606,-4.4872,-4.4732,-4.4087,-4.4732,-4.4872,-4.4624,-4.4896,-4.5052,-3.747,-3.6817,-3.638,-3.7515,-3.7753,-3.7958,-3.8838,0.0,0.0,0.0,0.0,0.0,0.0,0.0,0.0,0.0,0.0,0.0,0.0,0.0,0.0,0.0,0.0,0.0,0.0,0.0,0.0,0.0,0.0,0.0,0.0,-4.3772,-4.3836,-4.3615,-4.4242,-4.4455,-4.4138,-4.5101,-4.5476,-4.518,-4.5457,-4.5586,-4.5586,-4.5586,-4.5586,0.0,0.0,-4.5586,-4.5586,-4.5586,-4.5586,-4.5586,-4.5586,-4.5586,-4.5586,-4.5586,-4.5586,-4.5605,-4.5738,-4.5697,-4.5654,-4.5774,-4.5534,-4.5199,-4.518,-4.4966,-4.4757,-4.4757,-4.4919,-4.503,-4.4732,-4.4392,-4.4087,-4.4087,-4.3836,-4.3563,-4.3563,-4.3548,-4.3497,-4.3497,-4.3497,-4.3497,-4.3497,-4.3497,-4.3497,-4.3497,-4.3497,-4.3497,-4.3497,-4.3497,-4.3497,-4.3497,-4.3497,-4.3497,-4.3497,-4.3849,-4.4076,-4.3998,-4.4969,-4.54,-4.5096,-4.4872,-4.4726,-4.4606,-4.4631,-4.4606,-4.4501,-4.4606,-4.4631,-4.458,-4.4657,-4.4825,-3.6707,-3.6578,-3.6482,-3.7274,-3.7368,-3.738,-3.7903,0.0,0.0,0.0,0.0,0.0,0.0,0.0,0.0,0.0,0.0,0.0,0.0,0.0,0.0,0.0,0.0,0.0,0.0,0.0,0.0,0.0,0.0,0.0,0.0,0.0,-4.3924,-4.3772,-4.4501,-4.4707,-4.4337,-4.5182,-4.5438,-4.5096,-4.5438,-4.5586,-4.5586,-4.5586,-4.5586,-4.5586,0.0,-4.5586,-4.5586,-4.5586,-4.5586,-4.5586,-4.5586,-4.5586,-4.5586,-4.5586,-4.5586,-4.5605,-4.568,-4.5533,-4.5341,-4.5419,-4.5135,-4.4825,-4.4825,-4.4707,-4.4553,-4.4337,-4.4401,-4.4482,-4.4318,-4.3986,-4.3726,-4.3726,-4.3612,-4.3497,-4.3497,-4.3497,-4.3497,-4.3497,-4.3497,-4.3497,-4.3497,-4.3497,-4.3497,-4.3497,-4.3497,-4.3497,-4.3497,-4.3497,-4.3497,-4.3497,-4.3497,-4.3497,-4.3497,-4.3804,-4.4087,-4.429,-4.4806,-4.4988,-4.4849,-4.4682,-4.4501,-4.4261,-4.4501,-4.4501,-4.428,-4.4501,-4.4501,-4.428,-4.428,-4.4482,-3.5807,-3.6009,-3.6067,-3.6358,0.0,-3.6752,-3.7257,0.0,0.0,0.0,0.0,0.0,0.0,0.0,0.0,0.0,0.0,0.0,0.0,0.0,0.0,0.0,0.0,0.0,0.0,0.0,0.0,0.0,0.0,0.0,0.0,0.0,-4.4233,-4.4146,-4.4762,-4.4943,-4.4606,-4.5118,-4.5282,-4.5096,-4.5438,-4.5586,-4.5586,-4.5586,-4.5586,-4.5586,-4.5586,-4.5586,-4.5586,-4.5586,-4.5586,-4.5586,-4.5586,-4.5586,-4.5586,-4.5586,-4.555,-4.5495,-4.5495,-4.5263,-4.4966,-4.4966,-4.4732,-4.4474,-4.4474,-4.4392,-4.428,-4.3974,-4.3881,-4.3881,-4.3881,-4.3693,-4.3497,-4.3497,-4.3497,-4.3497,-4.3497,-4.3497,-4.3497,-4.3497,-4.3497,-4.3497,-4.3497,-4.3497,-4.3497,-4.3497,-4.3497,-4.3497,-4.3497,-4.3497,-4.3497,-4.3497,-4.3497,-4.3497,-4.3497,-4.3726,-4.4016,-4.4308,-4.4419,-4.4474,-4.4474,-4.4392,-4.4194,-4.3881,-4.4194,-4.4194,-4.3881,-4.4194,-4.4223,-4.4016,-4.4016,-4.4261,-3.5064,-3.5082,-3.499,-3.4524,-3.5388,0.0,-3.793,-3.788,0.0,-3.957,0.0,0.0,0.0,0.0,0.0,0.0,0.0,0.0,0.0,0.0,0.0,0.0,0.0,0.0,0.0,0.0,0.0,0.0,0.0,0.0,0.0,0.0,0.0,-4.4553,-4.4919,-4.4943,-4.4606,-4.4631,-4.4825,-4.5096,-4.5438,-4.5586,-4.5586,-4.5586,-4.5586,-4.5586,-4.5586,-4.5586,-4.5586,-4.5586,-4.5586,-4.5586,-4.5586,-4.5586,-4.5586,-4.5586,-4.54,-4.5137,-4.5137,-4.4919,-4.465,-4.465,-4.4392,-4.4028,-4.4028,-4.3836,-4.3563,-4.3548,-4.3548,-4.3548,-4.3548,-4.3513,-4.3497,-4.3497,-4.3497,-4.3497,-4.3497,-4.3497,-4.3497,-4.3497,-4.3497,-4.3497,-4.3497,-4.3497,-4.3497,-4.3497,-4.3497,-4.3497,-4.3497,-4.3497,-4.3497,-4.3497,-4.3497,-4.3497,-4.3497,-4.3513,-4.3548,-4.3582,-4.3881,-4.4028,-4.4028,-4.3758,-4.3582,-4.3548,-4.3563,-4.3563,-4.3548,-4.3582,-4.3726,-4.4016,-4.4016,-4.4382,-3.4266,-3.4633,-3.4825,-3.402,-3.4486,0.0,0.0,-3.718,-3.7859,-3.8309,-3.9845,0.0,0.0,0.0,0.0,0.0,0.0,0.0,0.0,0.0,0.0,0.0,0.0,0.0,0.0,0.0,0.0,0.0,0.0,0.0,0.0,0.0,0.0,-4.4919,-4.5243,-4.5243,-4.4919,-4.4919,-4.4872,-4.4781,-4.5118,-4.5302,-4.5302,-4.5513,-4.5586,-4.5586,-4.5586,-4.5586,-4.5586,-4.5586,-4.5586,-4.5586,-4.5586,-4.5586,-4.5568,-4.5381,-4.5201,-4.5074,-4.4872,-4.4535,-4.4233,-4.4233,-4.3986,-4.3693,-4.3693,-4.3597,-4.3497,-4.3497,-4.3497,-4.3497,-4.3497,-4.3497,-4.3497,-4.3497,-4.3497,-4.3497,-4.3497,-4.3497,-4.3497,-4.3497,-4.3497,-4.3497,-4.3497,-4.3497,-4.3497,-4.3497,-4.3497,-4.3497,-4.3497,-4.3497,-4.3497,-4.3497,-4.3497,-4.3497,-4.3497,-4.3497,-4.3497,-4.3497,-4.3631,-4.3693,-4.3693,-4.3563,-4.3497,-4.3497,-4.3497,-4.3497,-4.3497,-4.3497,-4.3582,-4.3693,-4.3893,-4.429,-3.3807,-3.411,-3.4282,-3.3625,0.0,0.0,-3.4778,-3.5946,-3.7066,-3.7577,-3.9708,0.0,0.0,0.0,0.0,0.0,0.0,0.0,0.0,0.0,0.0,0.0,0.0,0.0,0.0,0.0,0.0,0.0,0.0,0.0,0.0,0.0,0.0,0.0,-4.5323,-4.5323,-4.4696,-4.4874,-4.4757,-4.4401,-4.4757,-4.5007,-4.5096,-4.5438,-4.5451,-4.5201,-4.547,-4.5432,-4.5201,-4.549,-4.5586,-4.5586,-4.5495,-4.5438,-4.54,-4.5074,-4.4853,-4.4713,-4.4482,-4.4165,-4.3849,-4.3849,-4.3712,-4.3497,-4.3497,-4.3497,-4.3497,-4.3497,-4.3497,-4.3497,-4.3497,-4.3497,-4.3497,-4.3497,-4.3497,-4.3497,-4.3497,-4.3497,-4.3497,-4.3497,-4.3497,-4.3497,-4.3497,-4.3497,-4.3497,-4.3497,-4.3497,-4.3497,-4.3497,-4.3497,-4.3497,-4.3497,-4.3497,-4.3497,-4.3497,-4.3497,-4.3497,-4.3497,-4.3497,-4.3497,-4.3497,-4.3497,-4.3497,-4.3497,-4.3497,-4.3497,-4.3497,-4.3497,-4.3529,-4.3679,-4.4016,-4.4401,-3.3807,-3.3494,-3.3184,0.0,0.0,0.0,-3.3599,-3.4217,-3.542,-3.7569,0.0,0.0,0.0,0.0,0.0,0.0,0.0,0.0,0.0,0.0,0.0,0.0,0.0,0.0,0.0,0.0,0.0,0.0,0.0,0.0,0.0,0.0,0.0,0.0,-4.5124,-4.5016,-4.3798,-4.4321,-4.4373,-4.3998,-4.4401,-4.4757,-4.5096,-4.5438,-4.5124,-4.4355,-4.5201,-4.5105,-4.4355,-4.522,-4.5566,-4.553,-4.5203,-4.5077,-4.5033,-4.4707,-4.4346,-4.4016,-4.4016,-4.3772,-4.3497,-4.3497,-4.3497,-4.3497,-4.3497,-4.3497,-4.3497,-4.3497,-4.3497,-4.3497,-4.3497,-4.3497,-4.3497,-4.3497,-4.3497,-4.3497,-4.3497,-4.3497,-4.3497,-4.3497,-4.3497,-4.3497,-4.3497,-4.3497,-4.3497,-4.3497,-4.3497,-4.3497,-4.3497,-4.3497,-4.3497,-4.3497,-4.3497,-4.3497,-4.3497,-4.3497,-4.3497,-4.3497,-4.3497,-4.3497,-4.3497,-4.3497,-4.3497,-4.3497,-4.3497,-4.3497,-4.3497,-4.3497,-4.3679,-4.3998,-4.4419,-4.4776,-3.3127,-3.2809,0.0,0.0,0.0,0.0,0.0,-3.4149,0.0,0.0,0.0,0.0,0.0,0.0,0.0,0.0,0.0,0.0,0.0,0.0,0.0,0.0,0.0,0.0,0.0,0.0,0.0,0.0,0.0,0.0,0.0,0.0,0.0,0.0,-4.3701,-4.3446,-4.2612,-4.2761,-4.2945,-4.317,-4.3517,-4.4071,-4.4776,-4.5342,-4.5124,-4.4316,-4.4566,-4.442,-4.396,-4.3961,-4.3646,-4.3114,-4.3023,-4.3336,-4.378,-4.3463,-4.3631,-4.3955,-4.3726,-4.3597,-4.3497,-4.3497,-4.3497,-4.3497,-4.3497,-4.3497,-4.3497,-4.3497,-4.3497,-4.3497,-4.3497,-4.3497,-4.3497,-4.3497,-4.3497,-4.3497,-4.3497,-4.3497,-4.3497,-4.3497,-4.3497,-4.3497,-4.3497,-4.3497,-4.3497,-4.3497,-4.3497,-4.3497,-4.3497,-4.3497,-4.3497,-4.3497,-4.3497,-4.3497,-4.3497,-4.3497,-4.3497,-4.3497,-4.3497,-4.3497,-4.3497,-4.3497,-4.3497,-4.3497,-4.3497,-4.3497,-4.3497,-4.3497,-4.3548,-4.3679,-4.4308,-4.4657,-3.2796,0.0,0.0,0.0,0.0,0.0,0.0,0.0,0.0,0.0,0.0,0.0,0.0,0.0,0.0,0.0,0.0,0.0,0.0,0.0,0.0,0.0,0.0,0.0,0.0,0.0,0.0,0.0,0.0,0.0,0.0,0.0,0.0,0.0,-4.2734,-4.2487,-4.1574,-4.204,-4.234,-4.251,-4.2812,-4.3265,-4.3796,-4.4672,-4.4551,-4.3616,-4.3159,-4.3018,-4.3111,-4.2905,-4.2529,-4.2114,-4.2328,-4.2664,-4.3098,-4.31,-4.3378,-4.3772,-4.3563,-4.3497,-4.3497,-4.3497,-4.3497,-4.3497,-4.3497,-4.3497,-4.3497,-4.3497,-4.3497,-4.3497,-4.3497,-4.3497,-4.3497,-4.3497,-4.3497,-4.3497,-4.3497,-4.3497,-4.3497,-4.3497,-4.3497,-4.3497,-4.3497,-4.3497,-4.3497,-4.3497,-4.3497,-4.3497,-4.3497,-4.3497,-4.3497,-4.3497,-4.3497,-4.3497,-4.3497,-4.3497,-4.3497,-4.3497,-4.3497,-4.3497,-4.3497,-4.3497,-4.3497,-4.3497,-4.3497,-4.3497,-4.3497,-4.3497,-4.3497,-4.3513,-4.427,-4.458,-3.2701,0.0,0.0,0.0,0.0,0.0,0.0,0.0,0.0,0.0,0.0,0.0,0.0,0.0,0.0,0.0,0.0,0.0,0.0,0.0,0.0,0.0,0.0,0.0,0.0,0.0,0.0,0.0,0.0,0.0,0.0,0.0,0.0,-4.1147,-4.1931,-4.1825,-4.0707,-4.1743,-4.2183,0.0,-4.2259,-4.2446,-4.2601,-4.3673,-4.3559,-4.2428,-4.1325,-4.1222,-4.1825,-4.1895,-4.1851,-4.1826,-4.2268,-4.2515,-4.2679,-4.3133,-4.3369,-4.3497,-4.3497,-4.3497,-4.3497,-4.3497,-4.3497,-4.3497,-4.3497,-4.3497,-4.3497,-4.3497,-4.3497,-4.3497,-4.3497,-4.3497,-4.3497,-4.3497,-4.3497,-4.3497,-4.3497,-4.3497,-4.3497,-4.3497,-4.3497,-4.3497,-4.3497,-4.3497,-4.3497,-4.3497,-4.3497,-4.3497,-4.3497,-4.3497,-4.3497,-4.3497,-4.3497,-4.3497,-4.3497,-4.3497,-4.3497,-4.3497,-4.3497,-4.3497,-4.3497,-4.3497,-4.3497,-4.3497,-4.3513,-4.3548,-4.3548,-4.3563,-4.3597,-4.3631,-4.4308,-4.465,0.0,-3.2281,0.0,0.0,0.0,0.0,0.0,0.0,0.0,0.0,0.0,0.0,0.0,0.0,0.0,0.0,0.0,0.0,0.0,0.0,0.0,0.0,0.0,0.0,0.0,0.0,0.0,0.0,0.0,0.0,0.0,0.0,0.0,-3.9996,-4.0401,-4.0399,-3.9863,-4.0359,-4.09,0.0,-4.1529,-4.2049,-4.2979,-4.3242,-4.2715,-4.1529,-4.076,-4.0157,-3.9765,-4.0214,-3.9993,-3.9438,-3.9552,-4.0338,-4.148,-4.1585,-4.2415,-4.3497,-4.3497,-4.3497,-4.3497,-4.3497,-4.3497,-4.3497,-4.3497,-4.3497,-4.3497,-4.3497,-4.3497,-4.3497,-4.3497,-4.3497,-4.3497,-4.3497,-4.3497,-4.3497,-4.3497,-4.3497,-4.3497,-4.3497,-4.3497,-4.3497,-4.3497,-4.3497,-4.3497,-4.3497,-4.3497,-4.3497,-4.3497,-4.3497,-4.3497,-4.3497,-4.3497,-4.3497,-4.3497,-4.3497,-4.3497,-4.3497,-4.3497,-4.3497,-4.3497,-4.3497,-4.3497,-4.3497,-4.3758,-4.3912,-4.3912,-4.4223,-4.4364,-4.4364,-4.48,-4.4988,0.0,0.0,0.0,0.0,0.0,0.0,0.0,0.0,0.0,0.0,0.0,0.0,0.0,0.0,0.0,0.0,0.0,0.0,0.0,0.0,0.0,0.0,0.0,0.0,0.0,0.0,0.0,0.0,0.0,0.0,0.0,-3.9796,-3.9717,-3.9358,-3.9709,-3.9775,-3.9599,-4.0062,-4.0496,-4.0917,-4.0917,-4.1185,-4.1664,-4.1934,-4.139,-4.0203,-3.9742,-3.9301,-3.8931,-3.9222,-3.9074,-3.8744,-3.9129,-4.0029,-4.1167,-4.1534,-4.2451,-4.3497,-4.3497,-4.3497,-4.3497,-4.3497,-4.3497,-4.3497,-4.3497,-4.3497,-4.3497,-4.3497,-4.3497,-4.3497,-4.3497,-4.3497,-4.3497,-4.3497,-4.3497,-4.3497,-4.3497,-4.3497,-4.3497,-4.3497,-4.3497,-4.3497,-4.3497,-4.3497,-4.3497,-4.3497,-4.3497,-4.3497,-4.3497,-4.3497,-4.3497,-4.3497,-4.3497,-4.3497,-4.3497,-4.3646,-4.3758,-4.3758,-4.3758,-4.3836,-4.4004,-4.3836,-4.3679,-4.3479,-4.4035,-4.4175,-4.4016,-4.4401,-4.458,-4.4624,-4.4943,-4.5096,0.0,0.0,0.0,0.0,0.0,0.0,0.0,0.0,0.0,0.0,0.0,0.0,0.0,0.0,0.0,0.0,0.0,0.0,0.0,0.0,0.0,0.0,0.0,0.0,0.0,0.0,0.0,0.0,0.0,0.0,-3.9008,-3.8815,-3.8748,-3.8831,-3.9333,-3.9524,-3.9392,-4.0136,-4.0431,-4.0277,-4.0092,-3.9844,-3.9603,-4.0144,-3.9915,-3.9099,-3.8833,-3.8707,-3.8707,-3.8707,-3.8707,-3.8762,-3.9342,-4.0061,-4.0833,-4.1551,-4.2355,-4.3031,-4.3141,-4.3196,-4.3196,-4.3196,-4.3286,-4.3375,-4.3375,-4.341,-4.3497,-4.3497,-4.3497,-4.3497,-4.3497,-4.3497,-4.3497,-4.3497,-4.3497,-4.3497,-4.3497,-4.3497,-4.3497,-4.3497,-4.3497,-4.3497,-4.3497,-4.3497,-4.3497,-4.3497,-4.3497,-4.3497,-4.3497,-4.3497,-4.3497,-4.3497,-4.3497,-4.3513,-4.3563,-4.3818,-4.4028,-4.4087,-4.4087,-4.4233,-4.4599,-4.4346,-4.4016,-4.3712,-4.4337,-4.4508,-4.4204,-4.4587,-4.4757,-4.4781,-4.5052,-4.5201,0.0,0.0,0.0,0.0,0.0,0.0,0.0,0.0,0.0,0.0,0.0,0.0,0.0,0.0,0.0,0.0,0.0,0.0,0.0,0.0,0.0,0.0,0.0,0.0,0.0,0.0,0.0,0.0,0.0,0.0,-3.8732,-3.8719,-3.8407,-3.7732,-3.8927,-3.926,-3.8565,-3.9849,-4.0142,-3.945,-3.8465,-3.7814,-3.7532,-3.8059,-3.8574,-3.9099,-3.8833,-3.8707,-3.8707,-3.8707,-3.8707,-3.8676,-3.8292,-3.8665,-3.9408,-3.9741,-4.037,-4.1176,-4.1813,-4.2021,-4.2021,-4.2021,-4.2382,-4.2826,-4.2826,-4.3142,-4.3497,-4.3497,-4.3497,-4.3497,-4.3497,-4.3497,-4.3497,-4.3497,-4.3497,-4.3497,-4.3497,-4.3497,-4.3497,-4.3497,-4.3497,-4.3497,-4.3497,-4.3497,-4.3497,-4.3497,-4.3497,-4.3497,-4.3497,-4.3497,-4.3497,-4.3497,-4.3497,-4.3631,-4.3912,-4.3986,-4.4146,-4.4501,-4.4527,-4.4553,-4.4599,-4.4849,-4.4781,-4.4447,-4.4849,-4.5007,-4.4966,-4.5283,-4.5476,-4.5476,-4.5513,-4.5531,-3.4919,0.0,0.0,0.0,0.0,0.0,0.0,0.0,0.0,0.0,0.0,0.0,0.0,0.0,0.0,0.0,0.0,0.0,0.0,0.0,0.0,0.0,0.0,0.0,0.0,0.0,0.0,0.0,0.0,-3.8212,-3.8689,-3.8707,-3.8596,-3.8386,-3.8721,-3.8798,-3.8627,-3.8925,-3.8846,-3.835,-3.7827,-3.7336,-3.6878,-3.7107,-3.7559,-3.8219,-3.8578,-3.8707,-3.8676,-3.8382,-3.8267,-3.8183,-3.7685,-3.8238,-3.9325,-3.9447,-4.0253,-4.1374,-4.1687,-4.181,-4.181,-4.181,-4.1979,-4.2262,-4.2616,-4.2864,-4.3087,-4.341,-4.3497,-4.3497,-4.3497,-4.3497,-4.3497,-4.3497,-4.3497,-4.3497,-4.3497,-4.3497,-4.3497,-4.3497,-4.3497,-4.3497,-4.3497,-4.3497,-4.3497,-4.3497,-4.3497,-4.3497,-4.3497,-4.3497,-4.3497,-4.3497,-4.3679,-4.3818,-4.3986,-4.4401,-4.4688,-4.4872,-4.4872,-4.4966,-4.5161,-4.5118,-4.5118,-4.5161,-4.5322,-4.5302,-4.5096,-4.5438,-4.5586,-4.5586,-4.5586,-4.5586,0.0,0.0,0.0,0.0,0.0,0.0,0.0,0.0,0.0,0.0,0.0,0.0,0.0,0.0,0.0,0.0,0.0,0.0,0.0,0.0,0.0,0.0,0.0,0.0,0.0,0.0,0.0,0.0,0.0,-3.7459,-3.8065,-3.8155,-3.8182,-3.8186,-3.8127,-3.8131,-3.8156,-3.7775,-3.7485,-3.7258,-3.692,-3.6507,-3.6062,-3.621,-3.6528,-3.7034,-3.7998,-3.8425,-3.8465,-3.8065,-3.7825,-3.7685,-3.7173,-3.7703,-3.8725,-3.8813,-3.9518,-4.0552,-4.0955,-4.1095,-4.1112,-4.1305,-4.1464,-4.1664,-4.2121,-4.244,-4.2732,-4.2995,-4.3196,-4.3286,-4.3286,-4.3286,-4.3321,-4.3463,-4.3497,-4.3497,-4.3497,-4.3497,-4.3497,-4.3497,-4.3497,-4.3497,-4.3497,-4.3497,-4.3497,-4.3497,-4.3497,-4.3497,-4.3497,-4.3563,-4.3631,-4.3631,-4.3943,-4.4175,-4.4271,-4.4762,-4.5137,-4.5222,-4.5222,-4.5342,-4.5586,-4.5362,-4.5342,-4.5605,-4.5586,-4.5476,-4.5222,-4.5476,-4.5586,-4.5586,-4.5586,-4.5586,0.0,0.0,0.0,0.0,0.0,0.0,0.0,0.0,0.0,0.0,0.0,0.0,0.0,0.0,0.0,0.0,0.0,0.0,0.0,0.0,0.0,0.0,0.0,0.0,0.0,0.0,0.0,0.0,0.0,-3.6376,-3.6413,-3.6665,-3.6459,-3.5708,-3.6893,-3.7184,-3.6439,-3.64,-3.6381,-3.6344,-3.5023,-3.4354,-3.4344,-3.485,-3.5294,-3.5688,-3.6997,-3.7703,-3.7946,-3.7893,-3.7649,-3.7173,-3.6643,-3.6509,-3.6582,-3.6853,-3.7012,-3.7284,-3.8645,-3.9137,-3.9255,-3.9934,-4.0546,-4.0949,-4.0995,-4.1793,-4.2577,-4.2021,-4.2284,-4.275,-4.275,-4.275,-4.2864,-4.3375,-4.3497,-4.3497,-4.3497,-4.3497,-4.3497,-4.3497,-4.3497,-4.3497,-4.3497,-4.3497,-4.3497,-4.3497,-4.3497,-4.3497,-4.3497,-4.3772,-4.3986,-4.3986,-4.4318,-4.4682,-4.503,-4.5074,-4.5243,-4.5568,-4.5568,-4.5586,-4.5586,-4.5586,-4.5586,-4.5586,-4.5586,-4.5586,-4.5568,-4.5586,-4.5586,-4.5586,-4.5586,-4.5586,0.0,0.0,0.0,0.0,0.0,0.0,0.0,0.0,0.0,0.0,0.0,0.0,0.0,0.0,0.0,0.0,0.0,0.0,0.0,0.0,0.0,0.0,0.0,0.0,0.0,0.0,0.0,0.0,0.0,0.0,-3.6266,-3.6562,-3.664,-3.6539,-3.6672,-3.6345,-3.5543,-3.4969,-3.4792,-3.4948,-3.3923,-3.3597,-3.3954,-3.3852,-3.4202,-3.4808,-3.4983,-3.5982,-3.7433,-3.7097,-3.6825,-3.6643,-3.6097,-3.6205,-3.6683,-3.6763,-3.7094,-3.7584,-3.8108,-3.8599,-3.9039,-3.9292,-3.9814,-4.0449,-4.078,-4.1223,-4.1664,-4.2203,-4.2519,-4.2788,-4.3124,-4.3214,-4.325,-4.3444,-4.3497,-4.3497,-4.3497,-4.3497,-4.3497,-4.3497,-4.3497,-4.3497,-4.3497,-4.3497,-4.3497,-4.3497,-4.3497,-4.3563,-4.3804,-4.3924,-4.4087,-4.4364,-4.4707,-4.4966,-4.5096,-4.5302,-4.5457,-4.5586,-4.5586,-4.5586,-4.5586,-4.5586,-4.5586,-4.5586,-4.5586,-4.5586,-4.5586,-4.5586,-4.5586,-4.5586,-4.5586,-4.5586,-3.4431,0.0,0.0,0.0,0.0,0.0,0.0,0.0,0.0,0.0,0.0,0.0,0.0,0.0,0.0,0.0,0.0,0.0,0.0,0.0,0.0,0.0,0.0,0.0,0.0,0.0,0.0,0.0,0.0,0.0,-3.5422,-3.5813,-3.6186,-3.654,-3.5923,-3.5305,-3.4683,-3.3989,-3.3582,-3.338,-3.3167,-3.3107,-3.3195,-3.3057,-3.3319,-3.3888,-3.3617,-3.4638,-3.6517,-3.618,-3.6067,-3.6097,-3.5739,-3.5943,-3.64,-3.64,-3.6705,-3.7178,-3.7449,-3.7838,-3.8294,-3.8548,-3.8954,-3.9476,-4.0083,-4.0539,-4.1025,-4.1866,-4.2382,-4.2788,-4.3142,-4.3375,-4.3497,-4.3497,-4.3497,-4.3497,-4.3497,-4.3497,-4.3497,-4.3497,-4.3497,-4.3497,-4.3497,-4.3597,-4.3679,-4.3679,-4.3791,-4.3962,-4.4175,-4.429,-4.4482,-4.4732,-4.5074,-4.5282,-4.5282,-4.5476,-4.5586,-4.5586,-4.5586,-4.5586,-4.5586,-4.5586,-4.5586,-4.5586,-4.5586,-4.5586,-4.5586,-4.5586,-4.5586,-4.5586,-4.5586,-4.5586,0.0,0.0,0.0,0.0,0.0,0.0,0.0,0.0,0.0,0.0,0.0,0.0,0.0,0.0,0.0,0.0,0.0,0.0,0.0,0.0,0.0,0.0,0.0,0.0,0.0,0.0,0.0,0.0,0.0,-3.339,-3.378,-3.4334,-3.4906,-3.5435,-3.4622,-3.4021,-3.3764,-3.3469,-3.2799,-3.1778,-3.2703,-3.2733,-3.1971,-3.2343,-3.2669,-3.2968,-3.2931,-3.3835,-3.5203,-3.5255,-3.541,-3.5622,-3.5622,-3.5622,-3.5622,-3.5622,-3.5622,-3.5723,-3.6485,-3.6755,-3.6907,-3.7635,-3.7889,-3.8041,-3.8783,-3.9794,-4.07,-4.0889,-4.1793,-4.2693,-4.2711,-4.3105,-4.3497,-4.3497,-4.3497,-4.3497,-4.3497,-4.3497,-4.3497,-4.3497,-4.3497,-4.3479,-4.3513,-4.3772,-4.3998,-4.4016,-4.4346,-4.4606,-4.4606,-4.4896,-4.5096,-4.5118,-4.54,-4.5586,-4.5586,-4.5586,-4.5586,-4.5586,-4.5586,-4.5586,-4.5586,-4.5586,-4.5586,-4.5586,-4.5586,-4.5586,-4.5586,-4.5586,-4.5586,-4.5586,-4.5586,-4.5586,-3.3039,0.0,0.0,0.0,0.0,0.0,0.0,0.0,0.0,0.0,0.0,0.0,0.0,0.0,0.0,0.0,0.0,0.0,0.0,0.0,0.0,0.0,0.0,0.0,0.0,0.0,0.0,0.0,-3.3284,-3.368,-3.3788,-3.3769,-3.3996,-3.4532,-3.3699,-3.3049,-3.2654,-3.1995,-3.1491,-3.1144,-3.1355,-3.1505,-3.1573,-3.1845,-3.2037,-3.2117,-3.1833,-3.2241,-3.3196,-3.4286,-3.506,-3.5622,-3.5622,-3.5622,-3.5622,-3.5622,-3.5622,-3.5656,-3.5859,-3.6315,-3.6806,-3.7026,-3.7466,-3.8018,-3.8557,-3.9361,-4.0211,-4.1019,-4.1956,-4.2788,-4.3178,-4.341,-4.3497,-4.3497,-4.3497,-4.3497,-4.3497,-4.3497,-4.3497,-4.3497,-4.3497,-4.3563,-4.3836,-4.3924,-4.4087,-4.4392,-4.4527,-4.4701,-4.4919,-4.5052,-4.5201,-4.5438,-4.5531,-4.5586,-4.5586,-4.5586,-4.5586,-4.5586,-4.5586,-4.5586,-4.5586,-4.5586,-4.5586,-4.5586,-4.5586,-4.5586,-4.5586,-4.5586,-4.5586,-4.5586,-4.5586,-4.5586,-3.2312,-3.212,-3.2064,0.0,0.0,0.0,-3.3082,-3.3487,0.0,0.0,0.0,0.0,0.0,0.0,0.0,0.0,0.0,0.0,0.0,0.0,0.0,0.0,0.0,0.0,0.0,0.0,0.0,-3.2745,-3.3255,-3.3725,-3.416,-3.3802,-3.3705,-3.4012,-3.2861,-3.2016,-3.1542,-3.0898,-3.0512,-3.0369,-3.0384,-3.0497,-3.0681,-3.0764,-3.0824,-3.0784,-3.0567,-3.1016,-3.1976,-3.283,-3.395,-3.5182,-3.5504,-3.5622,-3.5622,-3.5622,-3.5622,-3.5622,-3.5622,-3.591,-3.6299,-3.6299,-3.6752,-3.737,-3.7966,-3.8761,-3.9775,-4.1025,-4.2194,-4.3105,-4.341,-4.3497,-4.3497,-4.3497,-4.3497,-4.3497,-4.3497,-4.3497,-4.3497,-4.3497,-4.3612,-4.3772,-4.3955,-4.4261,-4.4535,-4.4757,-4.4943,-4.5096,-4.5283,-4.5322,-4.5381,-4.5586,-4.5586,-4.5531,-4.54,-4.54,-4.5342,-4.5182,-4.5303,-4.54,-4.54,-4.5532,-4.5586,-4.5586,-4.5586,-4.5586,-4.5586,-4.5586,-4.5586,-4.5586,-4.5586,-4.5586,-3.1697,-3.1482,-3.1482,-3.1482,-3.2007,0.0,-3.2839,-3.3038,-3.3595,0.0,0.0,0.0,0.0,0.0,0.0,0.0,0.0,0.0,0.0,0.0,0.0,0.0,0.0,0.0,0.0,-3.2558,-3.2508,-3.328,-3.3298,-3.367,-3.4612,-3.4055,-3.3682,-3.3617,-3.2041,-3.0935,-3.0418,-2.9936,-2.9602,-2.9364,-2.9524,-2.9568,-2.9532,-2.9459,-2.9406,-2.9406,-2.9406,-3.0073,-3.1188,-3.1271,-3.2573,-3.4556,-3.5233,-3.5537,-3.5622,-3.5622,-3.5571,-3.5504,-3.5588,-3.5571,-3.5504,-3.5633,-3.6028,-3.6537,-3.7321,-3.8256,-3.9445,-4.1071,-4.2468,-4.3497,-4.3497,-4.3424,-4.3387,-4.3461,-4.3424,-4.3387,-4.3461,-4.3513,-4.3548,-4.3548,-4.3804,-4.4046,-4.4117,-4.4663,-4.5118,-4.5159,-4.5419,-4.5586,-4.5586,-4.5586,-4.5586,-4.5586,-4.5568,-4.5419,-4.5137,-4.5096,-4.4966,-4.4657,-4.4966,-4.5159,-4.5159,-4.5438,-4.5586,-4.5586,-4.5586,-4.5586,-4.5586,-4.5586,-4.5586,-4.5586,-4.5586,-4.5586,-3.1539,-3.1482,0.0,0.0,0.0,0.0,-3.2749,-3.1576,-3.1364,0.0,0.0,0.0,0.0,0.0,0.0,0.0,0.0,0.0,0.0,0.0,0.0,0.0,0.0,0.0,0.0,-3.3933,-3.3984,-3.414,-3.3858,-3.3858,-3.4288,-3.3568,-3.2968,-3.2524,-3.1205,-3.0064,-2.9144,-2.8312,-2.793,-2.7912,-2.8156,-2.8378,-2.8575,-2.9159,-2.9406,-2.9406,-2.9406,-2.9531,-2.9826,-3.0419,-3.2204,-3.4506,-3.4658,-3.5081,-3.5622,-3.5622,-3.5233,-3.4793,-3.5402,-3.5216,-3.4897,-3.5891,-3.6291,-3.6597,-3.752,-3.842,-3.9515,-4.1535,-4.2787,-4.3497,-4.3497,-4.302,-4.269,-4.3332,-4.3002,-4.2708,-4.3351,-4.3726,-4.3893,-4.3893,-4.3955,-4.4204,-4.4762,-4.4988,-4.5201,-4.5457,-4.5568,-4.5586,-4.5586,-4.5586,-4.5586,-4.5586,-4.5362,-4.518,-4.5096,-4.5096,-4.5074,-4.5007,-4.5322,-4.5495,-4.5495,-4.5568,-4.5586,-4.5586,-4.5586,-4.5586,-4.5586,-4.5586,-4.5586,-4.5586,-4.5586,-4.5586,0.0,0.0,0.0,-3.1482,0.0,0.0,0.0,-3.187,-3.194,0.0,0.0,0.0,0.0,0.0,0.0,0.0,0.0,0.0,0.0,0.0,0.0,0.0,0.0,0.0,0.0,-3.4802,-3.4322,-3.4131,-3.4026,-3.4068,-3.4176,-3.3568,-3.2913,-3.2318,-3.0898,-2.9624,-2.8514,-2.7467,-2.704,-2.7214,-2.717,-2.7386,-2.791,-2.8311,-2.8496,-2.8496,-2.8496,-2.867,-2.8982,-2.9375,-3.1075,-3.3539,-3.3907,-3.4706,-3.5622,-3.5622,-3.5131,-3.4607,-3.5351,-3.5131,-3.4694,-3.5983,-3.658,-3.696,-3.7685,-3.8642,-3.9805,-4.1284,-4.2286,-4.2983,-4.3387,-4.3185,-4.3002,-4.3387,-4.3185,-4.3002,-4.3406,-4.3612,-4.3868,-4.4223,-4.429,-4.4482,-4.5007,-4.5243,-4.5342,-4.5342,-4.5495,-4.5495,-4.514,-4.5243,-4.5302,-4.5118,-4.4943,-4.4757,-4.4587,-4.4561,-4.4561,-4.4561,-4.49,-4.518,-4.5342,-4.5513,-4.5586,-4.5586,-4.5586,-4.5586,-4.5586,-4.5586,-4.5586,-4.5586,-4.5586,-4.5586,0.0,0.0,0.0,0.0,0.0,-3.2041,0.0,0.0,0.0,0.0,0.0,0.0,0.0,0.0,0.0,0.0,0.0,0.0,0.0,0.0,0.0,0.0,0.0,0.0,0.0,-3.5259,-3.4225,-3.3595,-3.3968,-3.4129,-3.3887,-3.3548,-3.299,-3.221,-3.0638,-2.9237,-2.8092,-2.6759,-2.6267,-2.6596,-2.6255,-2.6441,-2.7149,-2.7161,-2.726,-2.738,-2.738,-2.7739,-2.8334,-2.8334,-2.9817,-3.221,-3.3077,-3.4284,-3.5605,-3.5453,-3.4928,-3.4387,-3.5148,-3.4912,-3.455,-3.608,-3.6999,-3.7578,-3.8126,-3.9057,-4.0102,-4.1075,-4.1809,-4.2488,-4.3277,-4.3387,-4.3259,-4.3259,-4.3259,-4.3259,-4.3259,-4.3437,-4.3758,-4.4364,-4.4553,-4.4751,-4.5118,-4.5381,-4.5419,-4.514,-4.5322,-4.5322,-4.4776,-4.4988,-4.5074,-4.4732,-4.4631,-4.4447,-4.4028,-4.4058,-4.4117,-4.4117,-4.4535,-4.4919,-4.518,-4.5476,-4.5586,-4.5586,-4.5586,-4.5568,-4.5495,-4.5495,-4.555,-4.5586,-4.5586,-4.5586,0.0,0.0,0.0,0.0,-3.1132,0.0,0.0,0.0,-3.1697,-3.1507,0.0,0.0,0.0,0.0,0.0,0.0,0.0,0.0,0.0,0.0,0.0,0.0,0.0,0.0,0.0,0.0,-3.4178,-3.2755,-3.3674,-3.3826,-3.2745,-3.301,-3.2679,-3.1458,-2.9847,-2.8596,-2.7691,-2.5669,-2.4961,-2.5555,-2.5074,-2.5167,-2.5813,-2.5841,-2.6153,-2.6692,-2.6692,-2.7085,-2.771,-2.771,-2.892,-3.0964,-3.215,-3.3834,-3.5537,-3.4861,-3.4167,-3.3643,-3.437,-3.4134,-3.3913,-3.633,-3.7756,-3.8674,-3.942,-3.9777,-4.0212,-4.1735,-4.2231,-4.2488,-4.3277,-4.2965,-4.2433,-4.2433,-4.2433,-4.2433,-4.2433,-4.3227,-4.3955,-4.4058,-4.4364,-4.4781,-4.5438,-4.5322,-4.514,-4.5096,-4.5118,-4.5118,-4.5052,-4.5342,-4.5419,-4.5074,-4.4776,-4.4447,-4.4028,-4.4337,-4.4527,-4.4527,-4.514,-4.5513,-4.5531,-4.5586,-4.5586,-4.5586,-4.5586,-4.5438,-4.5159,-4.5159,-4.5322,-4.5586,-4.5586,-4.5586,0.0,0.0,0.0,0.0,0.0,0.0,-3.1375,0.0,-3.1482,0.0,0.0,0.0,0.0,0.0,0.0,0.0,-3.3818,0.0,0.0,0.0,0.0,0.0,0.0,0.0,0.0,0.0,0.0,0.0,0.0,-3.3499,-3.2553,-3.2681,-3.2423,-3.162,-3.0191,-2.8803,-2.7498,-2.5844,-2.4795,-2.4362,-2.4178,-2.4427,-2.5,-2.5077,-2.5642,-2.6587,-2.6587,-2.6961,-2.7625,-2.7625,-2.8774,-3.0624,-3.1611,-3.3231,-3.5018,-3.5116,-3.4675,-3.4083,-3.4387,-3.4303,-3.4397,-3.6513,-3.7861,-3.8854,-3.9662,-3.957,-3.9533,-4.1148,-4.1607,-4.1791,-4.2598,-4.2892,-4.3002,-4.3002,-4.3002,-4.3002,-4.3002,-4.3391,-4.3772,-4.3955,-4.4136,-4.4428,-4.4924,-4.4896,-4.4732,-4.4508,-4.483,-4.4943,-4.4535,-4.4947,-4.5161,-4.4849,-4.4682,-4.4447,-4.4028,-4.4146,-4.4233,-4.4233,-4.4738,-4.5011,-4.5011,-4.5011,-4.5011,-4.5011,-4.5011,-4.4943,-4.4825,-4.4825,-4.4896,-4.5011,-4.5011,-4.5011,-3.1016,0.0,0.0,0.0,0.0,0.0,0.0,0.0,0.0,0.0,0.0,0.0,0.0,0.0,0.0,0.0,0.0,-3.5174,0.0,0.0,0.0,0.0,0.0,0.0,0.0,0.0,0.0,-3.2878,-3.3353,-3.3371,-3.2494,-3.2214,-3.1845,-3.1401,-2.9956,-2.8494,-2.7153,-2.5854,-2.4648,-2.361,-2.3672,-2.3908,-2.4313,-2.4393,-2.5014,-2.6063,-2.6243,-2.6692,-2.737,-2.755,-2.8655,-3.0323,-3.1262,-3.2723,-3.4391,-3.5059,-3.4962,-3.4455,-3.4269,-3.45,-3.5173,-3.687,-3.7982,-3.8854,-3.9662,-3.9478,-3.9368,-4.0983,-4.1442,-4.1625,-4.2415,-4.3057,-4.3424,-4.3222,-4.3332,-4.3424,-4.3222,-4.3332,-4.3563,-4.3836,-4.3849,-4.3974,-4.4252,-4.4364,-4.4337,-4.4028,-4.4561,-4.4732,-4.4087,-4.4638,-4.4943,-4.4482,-4.4447,-4.428,-4.3912,-4.3955,-4.4046,-4.4146,-4.4447,-4.458,-4.458,-4.458,-4.458,-4.458,-4.458,-4.4553,-4.4447,-4.4447,-4.4392,-4.4308,-4.4501,-4.4712,0.0,0.0,0.0,-3.121,0.0,0.0,0.0,0.0,-3.152,0.0,0.0,0.0,0.0,0.0,-3.2038,-3.347,0.0,0.0,0.0,0.0,0.0,0.0,0.0,0.0,0.0,0.0,0.0,-3.3372,-3.3797,-3.3567,-3.2354,-3.1433,-3.0774,-3.0377,-2.8554,-2.7252,-2.6523,-2.5288,-2.4283,-2.3595,-2.3625,-2.3625,-2.3625,-2.3655,-2.3999,-2.4686,-2.536,-2.6019,-2.6677,-2.7305,-2.8338,-2.9695,-3.1086,-3.2367,-3.3617,-3.4286,-3.4506,-3.4387,-3.3677,-3.4552,-3.6166,-3.7451,-3.8267,-3.8854,-3.9662,-3.9863,-4.0194,-4.1809,-4.2268,-4.2451,-4.324,-4.3461,-4.3296,-4.2525,-4.2928,-4.3277,-4.2506,-4.2947,-4.3479,-4.3513,-4.3513,-4.3513,-4.3548,-4.3804,-4.3998,-4.3998,-4.4346,-4.4474,-4.4058,-4.4638,-4.483,-4.4087,-4.4016,-4.3881,-4.3548,-4.3804,-4.4165,-4.4553,-4.458,-4.458,-4.458,-4.458,-4.458,-4.458,-4.458,-4.4419,-4.4016,-4.4016,-4.3849,-4.3548,-4.4252,-4.5014,0.0,0.0,-2.9235,-3.0537,0.0,0.0,0.0,0.0,0.0,0.0,0.0,0.0,0.0,0.0,-3.2622,-3.4139,-3.4723,-3.5412,0.0,0.0,0.0,0.0,0.0,0.0,0.0,0.0,0.0,-3.3381,-3.3097,-3.2551,0.0,-3.1382,-3.0764,-2.9733,-2.873,-2.7659,-2.6494,-2.5682,-2.4717,-2.361,-2.3201,-2.3187,-2.361,-2.3201,-2.3614,-2.4627,-2.533,-2.5974,-2.6632,-2.7305,-2.8296,-2.9516,-3.0526,-3.1929,-3.356,-3.4773,-3.5233,-3.5243,-3.5343,-3.5878,-3.6678,-3.7607,-3.8267,-3.8854,-3.9662,-3.99,-4.012,-4.1203,-4.1901,-4.2359,-4.2635,-4.3094,-4.3424,-4.3149,-4.3296,-4.3424,-4.3149,-4.3296,-4.3497,-4.3497,-4.3497,-4.3497,-4.3497,-4.3597,-4.3679,-4.3679,-4.3955,-4.4146,-4.4016,-4.4455,-4.4682,-4.4401,-4.4392,-4.4233,-4.3849,-4.3726,-4.3726,-4.3868,-4.3868,-4.3868,-4.3868,-4.3868,-4.3868,-4.3868,-4.3868,-4.3823,-4.3679,-4.3679,-4.3631,-4.3532,-4.3777,-4.4035,-2.916,-2.8921,0.0,-2.9924,-2.9879,0.0,-3.1219,0.0,0.0,0.0,0.0,0.0,0.0,0.0,0.0,-3.3808,-3.4159,-3.4691,0.0,-3.502,0.0,0.0,0.0,0.0,0.0,0.0,-3.3732,-3.3398,-3.3186,-3.2706,0.0,0.0,-3.0587,-2.9484,-2.8635,-2.7638,-2.6566,-2.5938,-2.5061,-2.3969,-2.3304,-2.3231,-2.3595,-2.3201,-2.3481,-2.4298,-2.4971,-2.563,-2.6303,-2.6946,-2.8088,-2.947,-3.0204,-3.1703,-3.3558,-3.4776,-3.5331,-3.5651,-3.6619,-3.688,-3.6949,-3.7878,-3.8415,-3.8799,-3.9313,-3.9863,-4.0432,-4.0965,-4.1901,-4.2727,-4.2727,-4.3112,-4.3497,-4.3497,-4.3497,-4.3497,-4.3497,-4.3497,-4.3497,-4.3497,-4.3497,-4.3497,-4.3497,-4.3497,-4.3497,-4.3497,-4.3772,-4.3955,-4.3836,-4.4165,-4.4337,-4.4223,-4.4213,-4.4106,-4.3849,-4.3612,-4.3497,-4.3497,-4.3497,-4.3497,-4.3497,-4.3497,-4.3754,-4.4342,-4.3773,-4.3773,-4.4342,-4.3773,-4.3497,-4.3497,-4.3497,-4.3497]}]]